<?xml version="1.0" encoding="UTF-8" standalone="no" ?>
<gpx xmlns="http://www.topografix.com/GPX/1/1" xmlns:xsi="http://www.w3.org/2001/XMLSchema-instance" xsi:schemaLocation="http://www.topografix.com/GPX/1/1 http://www.topografix.com/GPX/1/1/gpx.xsd" version="1.1" creator="VisuGPX - https://www.visugpx.com">
  <metadata>
    <name>lundi 2016 08</name>
    <desc><![CDATA[cumul des lundi du mois d'aout 2016]]></desc>
  </metadata>
  <trk>
    <name><![CDATA[lundi 2016 08 22]]></name>
    <trkseg>
      <trkpt lat="48.85738" lon="2.3473">
        <ele>40.400001525879</ele>
        <time>2016-08-22T18:20:21.000Z</time>
      </trkpt>
      <trkpt lat="48.85738" lon="2.34708">
        <ele>40.200000762939</ele>
        <time>2016-08-22T18:20:35.000Z</time>
      </trkpt>
      <trkpt lat="48.85732" lon="2.34704">
        <ele>40.400001525879</ele>
        <time>2016-08-22T18:20:41.000Z</time>
      </trkpt>
      <trkpt lat="48.85714" lon="2.34694">
        <ele>40.799999237061</ele>
        <time>2016-08-22T18:20:49.000Z</time>
      </trkpt>
      <trkpt lat="48.85696" lon="2.3468">
        <ele>41</ele>
        <time>2016-08-22T18:20:55.000Z</time>
      </trkpt>
      <trkpt lat="48.85677" lon="2.34668">
        <ele>42</ele>
        <time>2016-08-22T18:21:02.000Z</time>
      </trkpt>
      <trkpt lat="48.85661" lon="2.34657">
        <ele>43.400001525879</ele>
        <time>2016-08-22T18:21:08.000Z</time>
      </trkpt>
      <trkpt lat="48.85643" lon="2.34646">
        <ele>44.799999237061</ele>
        <time>2016-08-22T18:21:14.000Z</time>
      </trkpt>
      <trkpt lat="48.85626" lon="2.34635">
        <ele>46.400001525879</ele>
        <time>2016-08-22T18:21:21.000Z</time>
      </trkpt>
      <trkpt lat="48.85608" lon="2.34622">
        <ele>47.799999237061</ele>
        <time>2016-08-22T18:21:28.000Z</time>
      </trkpt>
      <trkpt lat="48.8559" lon="2.34613">
        <ele>47.799999237061</ele>
        <time>2016-08-22T18:21:33.000Z</time>
      </trkpt>
      <trkpt lat="48.85573" lon="2.34602">
        <ele>47.599998474121</ele>
        <time>2016-08-22T18:21:39.000Z</time>
      </trkpt>
      <trkpt lat="48.85553" lon="2.34591">
        <ele>47.400001525879</ele>
        <time>2016-08-22T18:21:43.000Z</time>
      </trkpt>
      <trkpt lat="48.85536" lon="2.34579">
        <ele>47.200000762939</ele>
        <time>2016-08-22T18:21:46.000Z</time>
      </trkpt>
      <trkpt lat="48.8552" lon="2.34564">
        <ele>46.400001525879</ele>
        <time>2016-08-22T18:21:49.000Z</time>
      </trkpt>
      <trkpt lat="48.85505" lon="2.3455">
        <ele>45.200000762939</ele>
        <time>2016-08-22T18:21:52.000Z</time>
      </trkpt>
      <trkpt lat="48.85487" lon="2.34533">
        <ele>44</ele>
        <time>2016-08-22T18:21:56.000Z</time>
      </trkpt>
      <trkpt lat="48.8547" lon="2.34517">
        <ele>42.799999237061</ele>
        <time>2016-08-22T18:21:59.000Z</time>
      </trkpt>
      <trkpt lat="48.85453" lon="2.34503">
        <ele>41.599998474121</ele>
        <time>2016-08-22T18:22:02.000Z</time>
      </trkpt>
      <trkpt lat="48.85436" lon="2.34489">
        <ele>41</ele>
        <time>2016-08-22T18:22:06.000Z</time>
      </trkpt>
      <trkpt lat="48.85427" lon="2.34473">
        <ele>41</ele>
        <time>2016-08-22T18:22:09.000Z</time>
      </trkpt>
      <trkpt lat="48.85417" lon="2.34463">
        <ele>41.400001525879</ele>
        <time>2016-08-22T18:22:12.000Z</time>
      </trkpt>
      <trkpt lat="48.85405" lon="2.34451">
        <ele>41.799999237061</ele>
        <time>2016-08-22T18:22:17.000Z</time>
      </trkpt>
      <trkpt lat="48.85393" lon="2.34443">
        <ele>42.400001525879</ele>
        <time>2016-08-22T18:22:22.000Z</time>
      </trkpt>
      <trkpt lat="48.85386" lon="2.34426">
        <ele>42.200000762939</ele>
        <time>2016-08-22T18:23:10.000Z</time>
      </trkpt>
      <trkpt lat="48.85372" lon="2.34408">
        <ele>43</ele>
        <time>2016-08-22T18:23:16.000Z</time>
      </trkpt>
      <trkpt lat="48.85357" lon="2.34386">
        <ele>45</ele>
        <time>2016-08-22T18:23:21.000Z</time>
      </trkpt>
      <trkpt lat="48.85342" lon="2.34362">
        <ele>46.200000762939</ele>
        <time>2016-08-22T18:23:26.000Z</time>
      </trkpt>
      <trkpt lat="48.85328" lon="2.34337">
        <ele>47.400001525879</ele>
        <time>2016-08-22T18:23:31.000Z</time>
      </trkpt>
      <trkpt lat="48.85316" lon="2.34317">
        <ele>48.200000762939</ele>
        <time>2016-08-22T18:23:36.000Z</time>
      </trkpt>
      <trkpt lat="48.85304" lon="2.34293">
        <ele>48.799999237061</ele>
        <time>2016-08-22T18:23:43.000Z</time>
      </trkpt>
      <trkpt lat="48.85292" lon="2.34268">
        <ele>49.200000762939</ele>
        <time>2016-08-22T18:23:50.000Z</time>
      </trkpt>
      <trkpt lat="48.85279" lon="2.34241">
        <ele>49.400001525879</ele>
        <time>2016-08-22T18:23:56.000Z</time>
      </trkpt>
      <trkpt lat="48.85265" lon="2.34221">
        <ele>48.400001525879</ele>
        <time>2016-08-22T18:24:01.000Z</time>
      </trkpt>
      <trkpt lat="48.85252" lon="2.34194">
        <ele>47</ele>
        <time>2016-08-22T18:24:06.000Z</time>
      </trkpt>
      <trkpt lat="48.85244" lon="2.34166">
        <ele>45.400001525879</ele>
        <time>2016-08-22T18:24:11.000Z</time>
      </trkpt>
      <trkpt lat="48.85241" lon="2.34134">
        <ele>45</ele>
        <time>2016-08-22T18:24:16.000Z</time>
      </trkpt>
      <trkpt lat="48.85236" lon="2.34102">
        <ele>44.599998474121</ele>
        <time>2016-08-22T18:24:21.000Z</time>
      </trkpt>
      <trkpt lat="48.85226" lon="2.34076">
        <ele>44.599998474121</ele>
        <time>2016-08-22T18:24:27.000Z</time>
      </trkpt>
      <trkpt lat="48.85224" lon="2.34074">
        <ele>44.799999237061</ele>
        <time>2016-08-22T18:24:28.000Z</time>
      </trkpt>
      <trkpt lat="48.85219" lon="2.34051">
        <ele>45.400001525879</ele>
        <time>2016-08-22T18:24:40.000Z</time>
      </trkpt>
      <trkpt lat="48.85219" lon="2.3405">
        <ele>45.400001525879</ele>
        <time>2016-08-22T18:24:42.000Z</time>
      </trkpt>
      <trkpt lat="48.85217" lon="2.34044">
        <ele>45.599998474121</ele>
        <time>2016-08-22T18:24:52.000Z</time>
      </trkpt>
      <trkpt lat="48.85215" lon="2.3403">
        <ele>46</ele>
        <time>2016-08-22T18:24:56.000Z</time>
      </trkpt>
      <trkpt lat="48.85203" lon="2.34005">
        <ele>46.599998474121</ele>
        <time>2016-08-22T18:25:03.000Z</time>
      </trkpt>
      <trkpt lat="48.85187" lon="2.33994">
        <ele>47.200000762939</ele>
        <time>2016-08-22T18:25:08.000Z</time>
      </trkpt>
      <trkpt lat="48.85166" lon="2.34">
        <ele>47.200000762939</ele>
        <time>2016-08-22T18:25:13.000Z</time>
      </trkpt>
      <trkpt lat="48.85148" lon="2.34013">
        <ele>47.200000762939</ele>
        <time>2016-08-22T18:25:19.000Z</time>
      </trkpt>
      <trkpt lat="48.85142" lon="2.3401">
        <ele>47.200000762939</ele>
        <time>2016-08-22T18:25:22.000Z</time>
      </trkpt>
      <trkpt lat="48.85126" lon="2.33994">
        <ele>48</ele>
        <time>2016-08-22T18:25:29.000Z</time>
      </trkpt>
      <trkpt lat="48.85116" lon="2.33969">
        <ele>50</ele>
        <time>2016-08-22T18:25:38.000Z</time>
      </trkpt>
      <trkpt lat="48.85116" lon="2.33965">
        <ele>50.200000762939</ele>
        <time>2016-08-22T18:25:40.000Z</time>
      </trkpt>
      <trkpt lat="48.85116" lon="2.33963">
        <ele>50.400001525879</ele>
        <time>2016-08-22T18:25:42.000Z</time>
      </trkpt>
      <trkpt lat="48.85098" lon="2.33954">
        <ele>51.400001525879</ele>
        <time>2016-08-22T18:25:55.000Z</time>
      </trkpt>
      <trkpt lat="48.85076" lon="2.33956">
        <ele>52</ele>
        <time>2016-08-22T18:26:02.000Z</time>
      </trkpt>
      <trkpt lat="48.85059" lon="2.33964">
        <ele>52.400001525879</ele>
        <time>2016-08-22T18:26:06.000Z</time>
      </trkpt>
      <trkpt lat="48.85041" lon="2.3397">
        <ele>53.200000762939</ele>
        <time>2016-08-22T18:26:10.000Z</time>
      </trkpt>
      <trkpt lat="48.85022" lon="2.33977">
        <ele>54</ele>
        <time>2016-08-22T18:26:15.000Z</time>
      </trkpt>
      <trkpt lat="48.85001" lon="2.33986">
        <ele>54.400001525879</ele>
        <time>2016-08-22T18:26:21.000Z</time>
      </trkpt>
      <trkpt lat="48.84981" lon="2.33994">
        <ele>56.799999237061</ele>
        <time>2016-08-22T18:26:26.000Z</time>
      </trkpt>
      <trkpt lat="48.84961" lon="2.34">
        <ele>58.799999237061</ele>
        <time>2016-08-22T18:26:31.000Z</time>
      </trkpt>
      <trkpt lat="48.84948" lon="2.34001">
        <ele>60</ele>
        <time>2016-08-22T18:26:34.000Z</time>
      </trkpt>
      <trkpt lat="48.84935" lon="2.34003">
        <ele>60.799999237061</ele>
        <time>2016-08-22T18:26:38.000Z</time>
      </trkpt>
      <trkpt lat="48.84918" lon="2.34011">
        <ele>60.599998474121</ele>
        <time>2016-08-22T18:26:44.000Z</time>
      </trkpt>
      <trkpt lat="48.84901" lon="2.34024">
        <ele>60.400001525879</ele>
        <time>2016-08-22T18:26:52.000Z</time>
      </trkpt>
      <trkpt lat="48.84881" lon="2.34033">
        <ele>60.599998474121</ele>
        <time>2016-08-22T18:26:59.000Z</time>
      </trkpt>
      <trkpt lat="48.84862" lon="2.34043">
        <ele>61</ele>
        <time>2016-08-22T18:27:05.000Z</time>
      </trkpt>
      <trkpt lat="48.84841" lon="2.34048">
        <ele>59.799999237061</ele>
        <time>2016-08-22T18:27:11.000Z</time>
      </trkpt>
      <trkpt lat="48.84822" lon="2.34061">
        <ele>58.400001525879</ele>
        <time>2016-08-22T18:27:18.000Z</time>
      </trkpt>
      <trkpt lat="48.84806" lon="2.34073">
        <ele>58.599998474121</ele>
        <time>2016-08-22T18:27:24.000Z</time>
      </trkpt>
      <trkpt lat="48.84785" lon="2.34083">
        <ele>58.400001525879</ele>
        <time>2016-08-22T18:27:33.000Z</time>
      </trkpt>
      <trkpt lat="48.84766" lon="2.3408">
        <ele>58.200000762939</ele>
        <time>2016-08-22T18:27:41.000Z</time>
      </trkpt>
      <trkpt lat="48.84759" lon="2.34077">
        <ele>58.200000762939</ele>
        <time>2016-08-22T18:27:47.000Z</time>
      </trkpt>
      <trkpt lat="48.84761" lon="2.34069">
        <ele>57.200000762939</ele>
        <time>2016-08-22T18:28:17.000Z</time>
      </trkpt>
      <trkpt lat="48.8476" lon="2.3405">
        <ele>56.400001525879</ele>
        <time>2016-08-22T18:28:38.000Z</time>
      </trkpt>
      <trkpt lat="48.8476" lon="2.34047">
        <ele>56.400001525879</ele>
        <time>2016-08-22T18:28:40.000Z</time>
      </trkpt>
      <trkpt lat="48.84759" lon="2.34041">
        <ele>56</ele>
        <time>2016-08-22T18:28:44.000Z</time>
      </trkpt>
      <trkpt lat="48.84759" lon="2.34041">
        <ele>56.200000762939</ele>
        <time>2016-08-22T18:28:45.000Z</time>
      </trkpt>
      <trkpt lat="48.84741" lon="2.34039">
        <ele>55.400001525879</ele>
        <time>2016-08-22T18:29:14.000Z</time>
      </trkpt>
      <trkpt lat="48.84721" lon="2.34041">
        <ele>55.599998474121</ele>
        <time>2016-08-22T18:29:19.000Z</time>
      </trkpt>
      <trkpt lat="48.84701" lon="2.34042">
        <ele>56.400001525879</ele>
        <time>2016-08-22T18:29:25.000Z</time>
      </trkpt>
      <trkpt lat="48.84682" lon="2.34042">
        <ele>57.599998474121</ele>
        <time>2016-08-22T18:29:31.000Z</time>
      </trkpt>
      <trkpt lat="48.84663" lon="2.34031">
        <ele>58.799999237061</ele>
        <time>2016-08-22T18:29:36.000Z</time>
      </trkpt>
      <trkpt lat="48.84644" lon="2.34022">
        <ele>60</ele>
        <time>2016-08-22T18:29:40.000Z</time>
      </trkpt>
      <trkpt lat="48.84626" lon="2.34016">
        <ele>61.599998474121</ele>
        <time>2016-08-22T18:29:44.000Z</time>
      </trkpt>
      <trkpt lat="48.84608" lon="2.34008">
        <ele>62.200000762939</ele>
        <time>2016-08-22T18:29:48.000Z</time>
      </trkpt>
      <trkpt lat="48.84588" lon="2.33997">
        <ele>62.799999237061</ele>
        <time>2016-08-22T18:29:52.000Z</time>
      </trkpt>
      <trkpt lat="48.84566" lon="2.33989">
        <ele>63.200000762939</ele>
        <time>2016-08-22T18:29:56.000Z</time>
      </trkpt>
      <trkpt lat="48.84548" lon="2.33982">
        <ele>63.599998474121</ele>
        <time>2016-08-22T18:29:59.000Z</time>
      </trkpt>
      <trkpt lat="48.84525" lon="2.33971">
        <ele>63.599998474121</ele>
        <time>2016-08-22T18:30:03.000Z</time>
      </trkpt>
      <trkpt lat="48.84519" lon="2.33968">
        <ele>63.599998474121</ele>
        <time>2016-08-22T18:30:04.000Z</time>
      </trkpt>
      <trkpt lat="48.84497" lon="2.33956">
        <ele>63.400001525879</ele>
        <time>2016-08-22T18:30:08.000Z</time>
      </trkpt>
      <trkpt lat="48.84479" lon="2.33947">
        <ele>63.400001525879</ele>
        <time>2016-08-22T18:30:11.000Z</time>
      </trkpt>
      <trkpt lat="48.84462" lon="2.33936">
        <ele>63</ele>
        <time>2016-08-22T18:30:14.000Z</time>
      </trkpt>
      <trkpt lat="48.84444" lon="2.33925">
        <ele>62.400001525879</ele>
        <time>2016-08-22T18:30:17.000Z</time>
      </trkpt>
      <trkpt lat="48.84422" lon="2.33918">
        <ele>61.400001525879</ele>
        <time>2016-08-22T18:30:21.000Z</time>
      </trkpt>
      <trkpt lat="48.84417" lon="2.33918">
        <ele>61</ele>
        <time>2016-08-22T18:30:22.000Z</time>
      </trkpt>
      <trkpt lat="48.84397" lon="2.33913">
        <ele>60</ele>
        <time>2016-08-22T18:30:27.000Z</time>
      </trkpt>
      <trkpt lat="48.84378" lon="2.33907">
        <ele>59.599998474121</ele>
        <time>2016-08-22T18:30:34.000Z</time>
      </trkpt>
      <trkpt lat="48.84359" lon="2.33899">
        <ele>59.200000762939</ele>
        <time>2016-08-22T18:30:41.000Z</time>
      </trkpt>
      <trkpt lat="48.84355" lon="2.33897">
        <ele>59.200000762939</ele>
        <time>2016-08-22T18:30:43.000Z</time>
      </trkpt>
      <trkpt lat="48.84362" lon="2.33903">
        <ele>59.200000762939</ele>
        <time>2016-08-22T18:30:48.000Z</time>
      </trkpt>
      <trkpt lat="48.84385" lon="2.33894">
        <ele>60.799999237061</ele>
        <time>2016-08-22T18:30:53.000Z</time>
      </trkpt>
      <trkpt lat="48.84399" lon="2.33875">
        <ele>63</ele>
        <time>2016-08-22T18:30:57.000Z</time>
      </trkpt>
      <trkpt lat="48.84409" lon="2.33846">
        <ele>62.200000762939</ele>
        <time>2016-08-22T18:31:02.000Z</time>
      </trkpt>
      <trkpt lat="48.84416" lon="2.33814">
        <ele>61.400001525879</ele>
        <time>2016-08-22T18:31:07.000Z</time>
      </trkpt>
      <trkpt lat="48.8442" lon="2.33784">
        <ele>61</ele>
        <time>2016-08-22T18:31:11.000Z</time>
      </trkpt>
      <trkpt lat="48.84416" lon="2.33755">
        <ele>60.599998474121</ele>
        <time>2016-08-22T18:31:15.000Z</time>
      </trkpt>
      <trkpt lat="48.84417" lon="2.33741">
        <ele>60</ele>
        <time>2016-08-22T18:31:17.000Z</time>
      </trkpt>
      <trkpt lat="48.8442" lon="2.33713">
        <ele>57</ele>
        <time>2016-08-22T18:31:21.000Z</time>
      </trkpt>
      <trkpt lat="48.8442" lon="2.33707">
        <ele>56.200000762939</ele>
        <time>2016-08-22T18:31:22.000Z</time>
      </trkpt>
      <trkpt lat="48.8442" lon="2.33694">
        <ele>54.799999237061</ele>
        <time>2016-08-22T18:31:24.000Z</time>
      </trkpt>
      <trkpt lat="48.84425" lon="2.33667">
        <ele>51.200000762939</ele>
        <time>2016-08-22T18:31:28.000Z</time>
      </trkpt>
      <trkpt lat="48.84427" lon="2.33656">
        <ele>50.599998474121</ele>
        <time>2016-08-22T18:31:30.000Z</time>
      </trkpt>
      <trkpt lat="48.8443" lon="2.33643">
        <ele>50.599998474121</ele>
        <time>2016-08-22T18:31:32.000Z</time>
      </trkpt>
      <trkpt lat="48.84433" lon="2.33615">
        <ele>50.799999237061</ele>
        <time>2016-08-22T18:31:36.000Z</time>
      </trkpt>
      <trkpt lat="48.84435" lon="2.33584">
        <ele>51.200000762939</ele>
        <time>2016-08-22T18:31:40.000Z</time>
      </trkpt>
      <trkpt lat="48.84435" lon="2.33552">
        <ele>53</ele>
        <time>2016-08-22T18:31:44.000Z</time>
      </trkpt>
      <trkpt lat="48.84437" lon="2.33519">
        <ele>55.400001525879</ele>
        <time>2016-08-22T18:31:48.000Z</time>
      </trkpt>
      <trkpt lat="48.84436" lon="2.335">
        <ele>56.799999237061</ele>
        <time>2016-08-22T18:31:50.000Z</time>
      </trkpt>
      <trkpt lat="48.84434" lon="2.33469">
        <ele>55.799999237061</ele>
        <time>2016-08-22T18:31:53.000Z</time>
      </trkpt>
      <trkpt lat="48.84434" lon="2.3344">
        <ele>54.400001525879</ele>
        <time>2016-08-22T18:31:56.000Z</time>
      </trkpt>
      <trkpt lat="48.84434" lon="2.33411">
        <ele>53</ele>
        <time>2016-08-22T18:31:59.000Z</time>
      </trkpt>
      <trkpt lat="48.84436" lon="2.3338">
        <ele>53</ele>
        <time>2016-08-22T18:32:02.000Z</time>
      </trkpt>
      <trkpt lat="48.84437" lon="2.33351">
        <ele>53</ele>
        <time>2016-08-22T18:32:05.000Z</time>
      </trkpt>
      <trkpt lat="48.84439" lon="2.33324">
        <ele>53.200000762939</ele>
        <time>2016-08-22T18:32:08.000Z</time>
      </trkpt>
      <trkpt lat="48.84439" lon="2.33317">
        <ele>53.400001525879</ele>
        <time>2016-08-22T18:32:09.000Z</time>
      </trkpt>
      <trkpt lat="48.84427" lon="2.333">
        <ele>53.799999237061</ele>
        <time>2016-08-22T18:32:14.000Z</time>
      </trkpt>
      <trkpt lat="48.84416" lon="2.33307">
        <ele>53.599998474121</ele>
        <time>2016-08-22T18:32:16.000Z</time>
      </trkpt>
      <trkpt lat="48.84411" lon="2.33312">
        <ele>53.599998474121</ele>
        <time>2016-08-22T18:32:17.000Z</time>
      </trkpt>
      <trkpt lat="48.844" lon="2.33322">
        <ele>53.599998474121</ele>
        <time>2016-08-22T18:32:19.000Z</time>
      </trkpt>
      <trkpt lat="48.84383" lon="2.33336">
        <ele>53.599998474121</ele>
        <time>2016-08-22T18:32:22.000Z</time>
      </trkpt>
      <trkpt lat="48.8437" lon="2.33342">
        <ele>53.799999237061</ele>
        <time>2016-08-22T18:32:24.000Z</time>
      </trkpt>
      <trkpt lat="48.84352" lon="2.33355">
        <ele>54.400001525879</ele>
        <time>2016-08-22T18:32:27.000Z</time>
      </trkpt>
      <trkpt lat="48.84334" lon="2.33372">
        <ele>55.799999237061</ele>
        <time>2016-08-22T18:32:30.000Z</time>
      </trkpt>
      <trkpt lat="48.84318" lon="2.33388">
        <ele>57</ele>
        <time>2016-08-22T18:32:33.000Z</time>
      </trkpt>
      <trkpt lat="48.84304" lon="2.33405">
        <ele>57.799999237061</ele>
        <time>2016-08-22T18:32:36.000Z</time>
      </trkpt>
      <trkpt lat="48.84289" lon="2.33422">
        <ele>59</ele>
        <time>2016-08-22T18:32:39.000Z</time>
      </trkpt>
      <trkpt lat="48.84271" lon="2.33441">
        <ele>60</ele>
        <time>2016-08-22T18:32:43.000Z</time>
      </trkpt>
      <trkpt lat="48.84258" lon="2.3345">
        <ele>59.799999237061</ele>
        <time>2016-08-22T18:32:47.000Z</time>
      </trkpt>
      <trkpt lat="48.8425" lon="2.33458">
        <ele>59.799999237061</ele>
        <time>2016-08-22T18:32:50.000Z</time>
      </trkpt>
      <trkpt lat="48.84235" lon="2.3347">
        <ele>60.200000762939</ele>
        <time>2016-08-22T18:32:56.000Z</time>
      </trkpt>
      <trkpt lat="48.84222" lon="2.33485">
        <ele>61.799999237061</ele>
        <time>2016-08-22T18:33:01.000Z</time>
      </trkpt>
      <trkpt lat="48.84219" lon="2.33489">
        <ele>62</ele>
        <time>2016-08-22T18:33:02.000Z</time>
      </trkpt>
      <trkpt lat="48.8421" lon="2.335">
        <ele>63</ele>
        <time>2016-08-22T18:33:05.000Z</time>
      </trkpt>
      <trkpt lat="48.84194" lon="2.33517">
        <ele>63.799999237061</ele>
        <time>2016-08-22T18:33:10.000Z</time>
      </trkpt>
      <trkpt lat="48.8419" lon="2.33521">
        <ele>64</ele>
        <time>2016-08-22T18:33:11.000Z</time>
      </trkpt>
      <trkpt lat="48.84174" lon="2.33535">
        <ele>64.599998474121</ele>
        <time>2016-08-22T18:33:15.000Z</time>
      </trkpt>
      <trkpt lat="48.84169" lon="2.3354">
        <ele>64.800003051758</ele>
        <time>2016-08-22T18:33:16.000Z</time>
      </trkpt>
      <trkpt lat="48.84164" lon="2.33545">
        <ele>64.800003051758</ele>
        <time>2016-08-22T18:33:17.000Z</time>
      </trkpt>
      <trkpt lat="48.84146" lon="2.33559">
        <ele>66</ele>
        <time>2016-08-22T18:33:20.000Z</time>
      </trkpt>
      <trkpt lat="48.84133" lon="2.33569">
        <ele>67</ele>
        <time>2016-08-22T18:33:22.000Z</time>
      </trkpt>
      <trkpt lat="48.84113" lon="2.33587">
        <ele>68.199996948242</ele>
        <time>2016-08-22T18:33:25.000Z</time>
      </trkpt>
      <trkpt lat="48.84094" lon="2.33601">
        <ele>66.400001525879</ele>
        <time>2016-08-22T18:33:28.000Z</time>
      </trkpt>
      <trkpt lat="48.84077" lon="2.33616">
        <ele>64</ele>
        <time>2016-08-22T18:33:31.000Z</time>
      </trkpt>
      <trkpt lat="48.84058" lon="2.33633">
        <ele>62.400001525879</ele>
        <time>2016-08-22T18:33:35.000Z</time>
      </trkpt>
      <trkpt lat="48.84049" lon="2.33643">
        <ele>62.200000762939</ele>
        <time>2016-08-22T18:33:37.000Z</time>
      </trkpt>
      <trkpt lat="48.84029" lon="2.33652">
        <ele>62.200000762939</ele>
        <time>2016-08-22T18:33:42.000Z</time>
      </trkpt>
      <trkpt lat="48.8402" lon="2.33654">
        <ele>62.200000762939</ele>
        <time>2016-08-22T18:33:45.000Z</time>
      </trkpt>
      <trkpt lat="48.84012" lon="2.33655">
        <ele>61.599998474121</ele>
        <time>2016-08-22T18:33:49.000Z</time>
      </trkpt>
      <trkpt lat="48.84004" lon="2.33659">
        <ele>61.599998474121</ele>
        <time>2016-08-22T18:33:53.000Z</time>
      </trkpt>
      <trkpt lat="48.83987" lon="2.33657">
        <ele>61.400001525879</ele>
        <time>2016-08-22T18:34:46.000Z</time>
      </trkpt>
      <trkpt lat="48.83983" lon="2.33648">
        <ele>61.200000762939</ele>
        <time>2016-08-22T18:35:12.000Z</time>
      </trkpt>
      <trkpt lat="48.8398" lon="2.33621">
        <ele>60.400001525879</ele>
        <time>2016-08-22T18:35:17.000Z</time>
      </trkpt>
      <trkpt lat="48.83983" lon="2.33608">
        <ele>61</ele>
        <time>2016-08-22T18:35:19.000Z</time>
      </trkpt>
      <trkpt lat="48.83993" lon="2.33584">
        <ele>62.200000762939</ele>
        <time>2016-08-22T18:35:23.000Z</time>
      </trkpt>
      <trkpt lat="48.84001" lon="2.33555">
        <ele>63.400001525879</ele>
        <time>2016-08-22T18:35:27.000Z</time>
      </trkpt>
      <trkpt lat="48.8401" lon="2.33522">
        <ele>64.599998474121</ele>
        <time>2016-08-22T18:35:31.000Z</time>
      </trkpt>
      <trkpt lat="48.84015" lon="2.33496">
        <ele>65.599998474121</ele>
        <time>2016-08-22T18:35:34.000Z</time>
      </trkpt>
      <trkpt lat="48.84021" lon="2.33469">
        <ele>65.599998474121</ele>
        <time>2016-08-22T18:35:37.000Z</time>
      </trkpt>
      <trkpt lat="48.8403" lon="2.33442">
        <ele>65.400001525879</ele>
        <time>2016-08-22T18:35:40.000Z</time>
      </trkpt>
      <trkpt lat="48.84041" lon="2.33416">
        <ele>64</ele>
        <time>2016-08-22T18:35:43.000Z</time>
      </trkpt>
      <trkpt lat="48.84051" lon="2.33389">
        <ele>63.599998474121</ele>
        <time>2016-08-22T18:35:46.000Z</time>
      </trkpt>
      <trkpt lat="48.8406" lon="2.33365">
        <ele>63.400001525879</ele>
        <time>2016-08-22T18:35:49.000Z</time>
      </trkpt>
      <trkpt lat="48.84068" lon="2.3334">
        <ele>64</ele>
        <time>2016-08-22T18:35:52.000Z</time>
      </trkpt>
      <trkpt lat="48.84077" lon="2.33313">
        <ele>63.799999237061</ele>
        <time>2016-08-22T18:35:55.000Z</time>
      </trkpt>
      <trkpt lat="48.84087" lon="2.33289">
        <ele>64</ele>
        <time>2016-08-22T18:35:58.000Z</time>
      </trkpt>
      <trkpt lat="48.84096" lon="2.3326">
        <ele>64.599998474121</ele>
        <time>2016-08-22T18:36:01.000Z</time>
      </trkpt>
      <trkpt lat="48.84105" lon="2.33228">
        <ele>65.199996948242</ele>
        <time>2016-08-22T18:36:04.000Z</time>
      </trkpt>
      <trkpt lat="48.84115" lon="2.33198">
        <ele>65.199996948242</ele>
        <time>2016-08-22T18:36:07.000Z</time>
      </trkpt>
      <trkpt lat="48.84125" lon="2.3317">
        <ele>65.199996948242</ele>
        <time>2016-08-22T18:36:10.000Z</time>
      </trkpt>
      <trkpt lat="48.84134" lon="2.33143">
        <ele>65.400001525879</ele>
        <time>2016-08-22T18:36:13.000Z</time>
      </trkpt>
      <trkpt lat="48.84145" lon="2.33116">
        <ele>65.599998474121</ele>
        <time>2016-08-22T18:36:16.000Z</time>
      </trkpt>
      <trkpt lat="48.84156" lon="2.33088">
        <ele>64.599998474121</ele>
        <time>2016-08-22T18:36:19.000Z</time>
      </trkpt>
      <trkpt lat="48.84164" lon="2.3306">
        <ele>62.799999237061</ele>
        <time>2016-08-22T18:36:22.000Z</time>
      </trkpt>
      <trkpt lat="48.84172" lon="2.33035">
        <ele>62</ele>
        <time>2016-08-22T18:36:25.000Z</time>
      </trkpt>
      <trkpt lat="48.8418" lon="2.33007">
        <ele>61.400001525879</ele>
        <time>2016-08-22T18:36:29.000Z</time>
      </trkpt>
      <trkpt lat="48.84186" lon="2.32988">
        <ele>61</ele>
        <time>2016-08-22T18:36:34.000Z</time>
      </trkpt>
      <trkpt lat="48.84188" lon="2.32986">
        <ele>61</ele>
        <time>2016-08-22T18:36:36.000Z</time>
      </trkpt>
      <trkpt lat="48.84182" lon="2.32965">
        <ele>61</ele>
        <time>2016-08-22T18:36:55.000Z</time>
      </trkpt>
      <trkpt lat="48.84178" lon="2.32962">
        <ele>61</ele>
        <time>2016-08-22T18:36:57.000Z</time>
      </trkpt>
      <trkpt lat="48.84159" lon="2.32972">
        <ele>61.200000762939</ele>
        <time>2016-08-22T18:37:02.000Z</time>
      </trkpt>
      <trkpt lat="48.8415" lon="2.32975">
        <ele>61.599998474121</ele>
        <time>2016-08-22T18:37:04.000Z</time>
      </trkpt>
      <trkpt lat="48.84129" lon="2.32972">
        <ele>62.200000762939</ele>
        <time>2016-08-22T18:37:09.000Z</time>
      </trkpt>
      <trkpt lat="48.84116" lon="2.32952">
        <ele>62</ele>
        <time>2016-08-22T18:37:14.000Z</time>
      </trkpt>
      <trkpt lat="48.84101" lon="2.3293">
        <ele>61.599998474121</ele>
        <time>2016-08-22T18:37:19.000Z</time>
      </trkpt>
      <trkpt lat="48.84087" lon="2.329">
        <ele>60.599998474121</ele>
        <time>2016-08-22T18:37:24.000Z</time>
      </trkpt>
      <trkpt lat="48.84079" lon="2.32868">
        <ele>60.200000762939</ele>
        <time>2016-08-22T18:37:28.000Z</time>
      </trkpt>
      <trkpt lat="48.84067" lon="2.32845">
        <ele>59.799999237061</ele>
        <time>2016-08-22T18:37:32.000Z</time>
      </trkpt>
      <trkpt lat="48.84065" lon="2.32839">
        <ele>59.599998474121</ele>
        <time>2016-08-22T18:37:33.000Z</time>
      </trkpt>
      <trkpt lat="48.84052" lon="2.32819">
        <ele>59.400001525879</ele>
        <time>2016-08-22T18:37:37.000Z</time>
      </trkpt>
      <trkpt lat="48.84038" lon="2.32799">
        <ele>59.599998474121</ele>
        <time>2016-08-22T18:37:42.000Z</time>
      </trkpt>
      <trkpt lat="48.84034" lon="2.32791">
        <ele>59.599998474121</ele>
        <time>2016-08-22T18:37:44.000Z</time>
      </trkpt>
      <trkpt lat="48.84038" lon="2.32764">
        <ele>60</ele>
        <time>2016-08-22T18:37:50.000Z</time>
      </trkpt>
      <trkpt lat="48.84039" lon="2.32759">
        <ele>60.200000762939</ele>
        <time>2016-08-22T18:37:51.000Z</time>
      </trkpt>
      <trkpt lat="48.84048" lon="2.32732">
        <ele>61.200000762939</ele>
        <time>2016-08-22T18:37:56.000Z</time>
      </trkpt>
      <trkpt lat="48.84054" lon="2.32706">
        <ele>61.599998474121</ele>
        <time>2016-08-22T18:38:00.000Z</time>
      </trkpt>
      <trkpt lat="48.84063" lon="2.32673">
        <ele>61.200000762939</ele>
        <time>2016-08-22T18:38:04.000Z</time>
      </trkpt>
      <trkpt lat="48.84071" lon="2.32647">
        <ele>60.799999237061</ele>
        <time>2016-08-22T18:38:07.000Z</time>
      </trkpt>
      <trkpt lat="48.84074" lon="2.32639">
        <ele>60.599998474121</ele>
        <time>2016-08-22T18:38:08.000Z</time>
      </trkpt>
      <trkpt lat="48.84085" lon="2.32607">
        <ele>60.200000762939</ele>
        <time>2016-08-22T18:38:12.000Z</time>
      </trkpt>
      <trkpt lat="48.84094" lon="2.32575">
        <ele>59.599998474121</ele>
        <time>2016-08-22T18:38:16.000Z</time>
      </trkpt>
      <trkpt lat="48.84103" lon="2.32546">
        <ele>60.599998474121</ele>
        <time>2016-08-22T18:38:20.000Z</time>
      </trkpt>
      <trkpt lat="48.8411" lon="2.3252">
        <ele>61.599998474121</ele>
        <time>2016-08-22T18:38:24.000Z</time>
      </trkpt>
      <trkpt lat="48.84112" lon="2.32514">
        <ele>62</ele>
        <time>2016-08-22T18:38:25.000Z</time>
      </trkpt>
      <trkpt lat="48.84121" lon="2.32492">
        <ele>62</ele>
        <time>2016-08-22T18:38:30.000Z</time>
      </trkpt>
      <trkpt lat="48.84127" lon="2.32474">
        <ele>61.799999237061</ele>
        <time>2016-08-22T18:38:36.000Z</time>
      </trkpt>
      <trkpt lat="48.84111" lon="2.3247">
        <ele>61.400001525879</ele>
        <time>2016-08-22T18:38:46.000Z</time>
      </trkpt>
      <trkpt lat="48.84104" lon="2.32467">
        <ele>61.400001525879</ele>
        <time>2016-08-22T18:38:49.000Z</time>
      </trkpt>
      <trkpt lat="48.84085" lon="2.32456">
        <ele>61.200000762939</ele>
        <time>2016-08-22T18:38:55.000Z</time>
      </trkpt>
      <trkpt lat="48.84068" lon="2.32446">
        <ele>61.200000762939</ele>
        <time>2016-08-22T18:38:59.000Z</time>
      </trkpt>
      <trkpt lat="48.8405" lon="2.32441">
        <ele>61.400001525879</ele>
        <time>2016-08-22T18:39:03.000Z</time>
      </trkpt>
      <trkpt lat="48.84031" lon="2.3243">
        <ele>60.799999237061</ele>
        <time>2016-08-22T18:39:07.000Z</time>
      </trkpt>
      <trkpt lat="48.84013" lon="2.32415">
        <ele>61.400001525879</ele>
        <time>2016-08-22T18:39:11.000Z</time>
      </trkpt>
      <trkpt lat="48.83997" lon="2.32402">
        <ele>62.599998474121</ele>
        <time>2016-08-22T18:39:15.000Z</time>
      </trkpt>
      <trkpt lat="48.83979" lon="2.32388">
        <ele>64</ele>
        <time>2016-08-22T18:39:19.000Z</time>
      </trkpt>
      <trkpt lat="48.83963" lon="2.32374">
        <ele>65.199996948242</ele>
        <time>2016-08-22T18:39:23.000Z</time>
      </trkpt>
      <trkpt lat="48.83946" lon="2.32355">
        <ele>66.800003051758</ele>
        <time>2016-08-22T18:39:27.000Z</time>
      </trkpt>
      <trkpt lat="48.83929" lon="2.32341">
        <ele>67.800003051758</ele>
        <time>2016-08-22T18:39:31.000Z</time>
      </trkpt>
      <trkpt lat="48.83912" lon="2.32328">
        <ele>68.199996948242</ele>
        <time>2016-08-22T18:39:35.000Z</time>
      </trkpt>
      <trkpt lat="48.83907" lon="2.32326">
        <ele>68.199996948242</ele>
        <time>2016-08-22T18:39:36.000Z</time>
      </trkpt>
      <trkpt lat="48.83891" lon="2.32315">
        <ele>68.199996948242</ele>
        <time>2016-08-22T18:39:40.000Z</time>
      </trkpt>
      <trkpt lat="48.83875" lon="2.32302">
        <ele>68</ele>
        <time>2016-08-22T18:39:44.000Z</time>
      </trkpt>
      <trkpt lat="48.83859" lon="2.32285">
        <ele>67.800003051758</ele>
        <time>2016-08-22T18:39:49.000Z</time>
      </trkpt>
      <trkpt lat="48.83852" lon="2.32272">
        <ele>67.599998474121</ele>
        <time>2016-08-22T18:39:55.000Z</time>
      </trkpt>
      <trkpt lat="48.83853" lon="2.3227">
        <ele>67.599998474121</ele>
        <time>2016-08-22T18:39:56.000Z</time>
      </trkpt>
      <trkpt lat="48.83842" lon="2.32254">
        <ele>67.400001525879</ele>
        <time>2016-08-22T18:40:35.000Z</time>
      </trkpt>
      <trkpt lat="48.83822" lon="2.32251">
        <ele>68</ele>
        <time>2016-08-22T18:40:40.000Z</time>
      </trkpt>
      <trkpt lat="48.83802" lon="2.32262">
        <ele>68.599998474121</ele>
        <time>2016-08-22T18:40:46.000Z</time>
      </trkpt>
      <trkpt lat="48.83784" lon="2.32273">
        <ele>69.199996948242</ele>
        <time>2016-08-22T18:40:53.000Z</time>
      </trkpt>
      <trkpt lat="48.83775" lon="2.32273">
        <ele>69.199996948242</ele>
        <time>2016-08-22T18:40:58.000Z</time>
      </trkpt>
      <trkpt lat="48.83765" lon="2.32271">
        <ele>69.599998474121</ele>
        <time>2016-08-22T18:41:16.000Z</time>
      </trkpt>
      <trkpt lat="48.83752" lon="2.32245">
        <ele>70</ele>
        <time>2016-08-22T18:41:25.000Z</time>
      </trkpt>
      <trkpt lat="48.83752" lon="2.32215">
        <ele>71</ele>
        <time>2016-08-22T18:41:29.000Z</time>
      </trkpt>
      <trkpt lat="48.83751" lon="2.32182">
        <ele>73</ele>
        <time>2016-08-22T18:41:33.000Z</time>
      </trkpt>
      <trkpt lat="48.83749" lon="2.32146">
        <ele>74.199996948242</ele>
        <time>2016-08-22T18:41:37.000Z</time>
      </trkpt>
      <trkpt lat="48.83749" lon="2.32114">
        <ele>76.400001525879</ele>
        <time>2016-08-22T18:41:41.000Z</time>
      </trkpt>
      <trkpt lat="48.83747" lon="2.32081">
        <ele>79.199996948242</ele>
        <time>2016-08-22T18:41:45.000Z</time>
      </trkpt>
      <trkpt lat="48.83748" lon="2.3205">
        <ele>78.800003051758</ele>
        <time>2016-08-22T18:41:49.000Z</time>
      </trkpt>
      <trkpt lat="48.83752" lon="2.32043">
        <ele>78.400001525879</ele>
        <time>2016-08-22T18:41:50.000Z</time>
      </trkpt>
      <trkpt lat="48.83751" lon="2.32017">
        <ele>76.400001525879</ele>
        <time>2016-08-22T18:41:54.000Z</time>
      </trkpt>
      <trkpt lat="48.83746" lon="2.31996">
        <ele>75</ele>
        <time>2016-08-22T18:41:57.000Z</time>
      </trkpt>
      <trkpt lat="48.83743" lon="2.31987">
        <ele>74.800003051758</ele>
        <time>2016-08-22T18:41:59.000Z</time>
      </trkpt>
      <trkpt lat="48.83738" lon="2.31967">
        <ele>74.199996948242</ele>
        <time>2016-08-22T18:42:02.000Z</time>
      </trkpt>
      <trkpt lat="48.83734" lon="2.31937">
        <ele>74.599998474121</ele>
        <time>2016-08-22T18:42:07.000Z</time>
      </trkpt>
      <trkpt lat="48.83733" lon="2.31931">
        <ele>74.599998474121</ele>
        <time>2016-08-22T18:42:08.000Z</time>
      </trkpt>
      <trkpt lat="48.83728" lon="2.31897">
        <ele>73.599998474121</ele>
        <time>2016-08-22T18:42:13.000Z</time>
      </trkpt>
      <trkpt lat="48.83728" lon="2.3189">
        <ele>73</ele>
        <time>2016-08-22T18:42:14.000Z</time>
      </trkpt>
      <trkpt lat="48.83736" lon="2.31863">
        <ele>71.599998474121</ele>
        <time>2016-08-22T18:42:18.000Z</time>
      </trkpt>
      <trkpt lat="48.83738" lon="2.31857">
        <ele>71.400001525879</ele>
        <time>2016-08-22T18:42:19.000Z</time>
      </trkpt>
      <trkpt lat="48.83745" lon="2.31831">
        <ele>70.800003051758</ele>
        <time>2016-08-22T18:42:23.000Z</time>
      </trkpt>
      <trkpt lat="48.83742" lon="2.31804">
        <ele>70.199996948242</ele>
        <time>2016-08-22T18:42:27.000Z</time>
      </trkpt>
      <trkpt lat="48.83726" lon="2.31786">
        <ele>68.599998474121</ele>
        <time>2016-08-22T18:42:32.000Z</time>
      </trkpt>
      <trkpt lat="48.83709" lon="2.31794">
        <ele>67.199996948242</ele>
        <time>2016-08-22T18:42:36.000Z</time>
      </trkpt>
      <trkpt lat="48.83697" lon="2.31825">
        <ele>66.599998474121</ele>
        <time>2016-08-22T18:42:40.000Z</time>
      </trkpt>
      <trkpt lat="48.83701" lon="2.31855">
        <ele>68.599998474121</ele>
        <time>2016-08-22T18:42:44.000Z</time>
      </trkpt>
      <trkpt lat="48.83717" lon="2.31872">
        <ele>70.800003051758</ele>
        <time>2016-08-22T18:42:48.000Z</time>
      </trkpt>
      <trkpt lat="48.83736" lon="2.3187">
        <ele>71.800003051758</ele>
        <time>2016-08-22T18:42:52.000Z</time>
      </trkpt>
      <trkpt lat="48.83749" lon="2.31847">
        <ele>71.800003051758</ele>
        <time>2016-08-22T18:42:56.000Z</time>
      </trkpt>
      <trkpt lat="48.83752" lon="2.31834">
        <ele>71.400001525879</ele>
        <time>2016-08-22T18:42:58.000Z</time>
      </trkpt>
      <trkpt lat="48.83757" lon="2.31821">
        <ele>71.599998474121</ele>
        <time>2016-08-22T18:43:00.000Z</time>
      </trkpt>
      <trkpt lat="48.83771" lon="2.31798">
        <ele>72.199996948242</ele>
        <time>2016-08-22T18:43:05.000Z</time>
      </trkpt>
      <trkpt lat="48.83786" lon="2.31776">
        <ele>72.599998474121</ele>
        <time>2016-08-22T18:43:10.000Z</time>
      </trkpt>
      <trkpt lat="48.83806" lon="2.31767">
        <ele>73</ele>
        <time>2016-08-22T18:43:14.000Z</time>
      </trkpt>
      <trkpt lat="48.83822" lon="2.31752">
        <ele>72</ele>
        <time>2016-08-22T18:43:18.000Z</time>
      </trkpt>
      <trkpt lat="48.83829" lon="2.31745">
        <ele>71.599998474121</ele>
        <time>2016-08-22T18:43:20.000Z</time>
      </trkpt>
      <trkpt lat="48.8384" lon="2.31729">
        <ele>70.800003051758</ele>
        <time>2016-08-22T18:43:24.000Z</time>
      </trkpt>
      <trkpt lat="48.83858" lon="2.31714">
        <ele>71.199996948242</ele>
        <time>2016-08-22T18:43:29.000Z</time>
      </trkpt>
      <trkpt lat="48.83866" lon="2.31703">
        <ele>71.199996948242</ele>
        <time>2016-08-22T18:43:32.000Z</time>
      </trkpt>
      <trkpt lat="48.83878" lon="2.3168">
        <ele>71.199996948242</ele>
        <time>2016-08-22T18:43:37.000Z</time>
      </trkpt>
      <trkpt lat="48.83882" lon="2.31672">
        <ele>71.599998474121</ele>
        <time>2016-08-22T18:43:39.000Z</time>
      </trkpt>
      <trkpt lat="48.83892" lon="2.31664">
        <ele>72.599998474121</ele>
        <time>2016-08-22T18:43:44.000Z</time>
      </trkpt>
      <trkpt lat="48.83892" lon="2.31656">
        <ele>72.599998474121</ele>
        <time>2016-08-22T18:43:48.000Z</time>
      </trkpt>
      <trkpt lat="48.83893" lon="2.31654">
        <ele>72.599998474121</ele>
        <time>2016-08-22T18:43:50.000Z</time>
      </trkpt>
      <trkpt lat="48.83881" lon="2.3164">
        <ele>71.800003051758</ele>
        <time>2016-08-22T18:44:06.000Z</time>
      </trkpt>
      <trkpt lat="48.83871" lon="2.31614">
        <ele>71</ele>
        <time>2016-08-22T18:44:14.000Z</time>
      </trkpt>
      <trkpt lat="48.83873" lon="2.31582">
        <ele>71.599998474121</ele>
        <time>2016-08-22T18:44:19.000Z</time>
      </trkpt>
      <trkpt lat="48.83874" lon="2.31562">
        <ele>70.800003051758</ele>
        <time>2016-08-22T18:44:22.000Z</time>
      </trkpt>
      <trkpt lat="48.83875" lon="2.3155">
        <ele>70.400001525879</ele>
        <time>2016-08-22T18:44:24.000Z</time>
      </trkpt>
      <trkpt lat="48.83878" lon="2.31508">
        <ele>68</ele>
        <time>2016-08-22T18:44:28.000Z</time>
      </trkpt>
      <trkpt lat="48.8387" lon="2.31481">
        <ele>66</ele>
        <time>2016-08-22T18:44:32.000Z</time>
      </trkpt>
      <trkpt lat="48.83872" lon="2.31448">
        <ele>64.800003051758</ele>
        <time>2016-08-22T18:44:36.000Z</time>
      </trkpt>
      <trkpt lat="48.8387" lon="2.31442">
        <ele>64.599998474121</ele>
        <time>2016-08-22T18:44:37.000Z</time>
      </trkpt>
      <trkpt lat="48.83865" lon="2.31411">
        <ele>63.200000762939</ele>
        <time>2016-08-22T18:44:41.000Z</time>
      </trkpt>
      <trkpt lat="48.83861" lon="2.31379">
        <ele>63.200000762939</ele>
        <time>2016-08-22T18:44:45.000Z</time>
      </trkpt>
      <trkpt lat="48.83861" lon="2.3135">
        <ele>63.200000762939</ele>
        <time>2016-08-22T18:44:48.000Z</time>
      </trkpt>
      <trkpt lat="48.83859" lon="2.3132">
        <ele>63.200000762939</ele>
        <time>2016-08-22T18:44:51.000Z</time>
      </trkpt>
      <trkpt lat="48.83859" lon="2.3129">
        <ele>63.599998474121</ele>
        <time>2016-08-22T18:44:54.000Z</time>
      </trkpt>
      <trkpt lat="48.83858" lon="2.3126">
        <ele>63.799999237061</ele>
        <time>2016-08-22T18:44:57.000Z</time>
      </trkpt>
      <trkpt lat="48.83857" lon="2.3123">
        <ele>64.199996948242</ele>
        <time>2016-08-22T18:45:00.000Z</time>
      </trkpt>
      <trkpt lat="48.83853" lon="2.312">
        <ele>64.400001525879</ele>
        <time>2016-08-22T18:45:03.000Z</time>
      </trkpt>
      <trkpt lat="48.83849" lon="2.31169">
        <ele>64.599998474121</ele>
        <time>2016-08-22T18:45:07.000Z</time>
      </trkpt>
      <trkpt lat="48.83851" lon="2.31158">
        <ele>64.599998474121</ele>
        <time>2016-08-22T18:45:09.000Z</time>
      </trkpt>
      <trkpt lat="48.83857" lon="2.31142">
        <ele>64.199996948242</ele>
        <time>2016-08-22T18:45:13.000Z</time>
      </trkpt>
      <trkpt lat="48.83869" lon="2.31119">
        <ele>62.799999237061</ele>
        <time>2016-08-22T18:45:17.000Z</time>
      </trkpt>
      <trkpt lat="48.83882" lon="2.31091">
        <ele>60.599998474121</ele>
        <time>2016-08-22T18:45:21.000Z</time>
      </trkpt>
      <trkpt lat="48.83894" lon="2.31059">
        <ele>58.799999237061</ele>
        <time>2016-08-22T18:45:25.000Z</time>
      </trkpt>
      <trkpt lat="48.83904" lon="2.31036">
        <ele>57.799999237061</ele>
        <time>2016-08-22T18:45:28.000Z</time>
      </trkpt>
      <trkpt lat="48.83917" lon="2.31007">
        <ele>56.200000762939</ele>
        <time>2016-08-22T18:45:32.000Z</time>
      </trkpt>
      <trkpt lat="48.83929" lon="2.30979">
        <ele>55.400001525879</ele>
        <time>2016-08-22T18:45:36.000Z</time>
      </trkpt>
      <trkpt lat="48.83943" lon="2.30953">
        <ele>57</ele>
        <time>2016-08-22T18:45:41.000Z</time>
      </trkpt>
      <trkpt lat="48.83947" lon="2.3095">
        <ele>57.200000762939</ele>
        <time>2016-08-22T18:45:42.000Z</time>
      </trkpt>
      <trkpt lat="48.83965" lon="2.30936">
        <ele>57.200000762939</ele>
        <time>2016-08-22T18:45:46.000Z</time>
      </trkpt>
      <trkpt lat="48.83981" lon="2.30916">
        <ele>55.400001525879</ele>
        <time>2016-08-22T18:45:50.000Z</time>
      </trkpt>
      <trkpt lat="48.84" lon="2.30899">
        <ele>53.400001525879</ele>
        <time>2016-08-22T18:45:54.000Z</time>
      </trkpt>
      <trkpt lat="48.8402" lon="2.30881">
        <ele>52</ele>
        <time>2016-08-22T18:45:58.000Z</time>
      </trkpt>
      <trkpt lat="48.84041" lon="2.30865">
        <ele>51.200000762939</ele>
        <time>2016-08-22T18:46:02.000Z</time>
      </trkpt>
      <trkpt lat="48.8406" lon="2.30859">
        <ele>50.599998474121</ele>
        <time>2016-08-22T18:46:05.000Z</time>
      </trkpt>
      <trkpt lat="48.84066" lon="2.30856">
        <ele>50.599998474121</ele>
        <time>2016-08-22T18:46:06.000Z</time>
      </trkpt>
      <trkpt lat="48.84084" lon="2.30838">
        <ele>50.400001525879</ele>
        <time>2016-08-22T18:46:10.000Z</time>
      </trkpt>
      <trkpt lat="48.84103" lon="2.30819">
        <ele>50.200000762939</ele>
        <time>2016-08-22T18:46:14.000Z</time>
      </trkpt>
      <trkpt lat="48.84118" lon="2.308">
        <ele>50</ele>
        <time>2016-08-22T18:46:18.000Z</time>
      </trkpt>
      <trkpt lat="48.8413" lon="2.30789">
        <ele>50</ele>
        <time>2016-08-22T18:46:23.000Z</time>
      </trkpt>
      <trkpt lat="48.84132" lon="2.30785">
        <ele>50</ele>
        <time>2016-08-22T18:46:27.000Z</time>
      </trkpt>
      <trkpt lat="48.84151" lon="2.3078">
        <ele>49.599998474121</ele>
        <time>2016-08-22T18:46:40.000Z</time>
      </trkpt>
      <trkpt lat="48.84171" lon="2.30768">
        <ele>49.799999237061</ele>
        <time>2016-08-22T18:46:46.000Z</time>
      </trkpt>
      <trkpt lat="48.84191" lon="2.30757">
        <ele>49.799999237061</ele>
        <time>2016-08-22T18:46:50.000Z</time>
      </trkpt>
      <trkpt lat="48.84208" lon="2.30747">
        <ele>49.400001525879</ele>
        <time>2016-08-22T18:46:54.000Z</time>
      </trkpt>
      <trkpt lat="48.84226" lon="2.30737">
        <ele>48.200000762939</ele>
        <time>2016-08-22T18:46:58.000Z</time>
      </trkpt>
      <trkpt lat="48.84245" lon="2.30723">
        <ele>46.799999237061</ele>
        <time>2016-08-22T18:47:02.000Z</time>
      </trkpt>
      <trkpt lat="48.84264" lon="2.30714">
        <ele>46.599998474121</ele>
        <time>2016-08-22T18:47:06.000Z</time>
      </trkpt>
      <trkpt lat="48.84281" lon="2.307">
        <ele>46.400001525879</ele>
        <time>2016-08-22T18:47:10.000Z</time>
      </trkpt>
      <trkpt lat="48.84299" lon="2.30685">
        <ele>46.200000762939</ele>
        <time>2016-08-22T18:47:15.000Z</time>
      </trkpt>
      <trkpt lat="48.84303" lon="2.30683">
        <ele>46.200000762939</ele>
        <time>2016-08-22T18:47:16.000Z</time>
      </trkpt>
      <trkpt lat="48.84323" lon="2.30669">
        <ele>45.599998474121</ele>
        <time>2016-08-22T18:47:22.000Z</time>
      </trkpt>
      <trkpt lat="48.84343" lon="2.30656">
        <ele>45.200000762939</ele>
        <time>2016-08-22T18:47:27.000Z</time>
      </trkpt>
      <trkpt lat="48.84358" lon="2.30651">
        <ele>44.799999237061</ele>
        <time>2016-08-22T18:47:32.000Z</time>
      </trkpt>
      <trkpt lat="48.84362" lon="2.3065">
        <ele>44.799999237061</ele>
        <time>2016-08-22T18:47:35.000Z</time>
      </trkpt>
      <trkpt lat="48.84366" lon="2.30647">
        <ele>44.799999237061</ele>
        <time>2016-08-22T18:47:40.000Z</time>
      </trkpt>
      <trkpt lat="48.84378" lon="2.30652">
        <ele>44.799999237061</ele>
        <time>2016-08-22T18:47:56.000Z</time>
      </trkpt>
      <trkpt lat="48.84392" lon="2.30652">
        <ele>44.799999237061</ele>
        <time>2016-08-22T18:48:01.000Z</time>
      </trkpt>
      <trkpt lat="48.84413" lon="2.30639">
        <ele>44.799999237061</ele>
        <time>2016-08-22T18:48:06.000Z</time>
      </trkpt>
      <trkpt lat="48.84436" lon="2.30623">
        <ele>45</ele>
        <time>2016-08-22T18:48:11.000Z</time>
      </trkpt>
      <trkpt lat="48.84453" lon="2.30606">
        <ele>43.599998474121</ele>
        <time>2016-08-22T18:48:14.000Z</time>
      </trkpt>
      <trkpt lat="48.84471" lon="2.30589">
        <ele>43.599998474121</ele>
        <time>2016-08-22T18:48:18.000Z</time>
      </trkpt>
      <trkpt lat="48.84487" lon="2.30577">
        <ele>44</ele>
        <time>2016-08-22T18:48:22.000Z</time>
      </trkpt>
      <trkpt lat="48.84504" lon="2.30566">
        <ele>43.799999237061</ele>
        <time>2016-08-22T18:48:26.000Z</time>
      </trkpt>
      <trkpt lat="48.84522" lon="2.30551">
        <ele>42</ele>
        <time>2016-08-22T18:48:30.000Z</time>
      </trkpt>
      <trkpt lat="48.8454" lon="2.30535">
        <ele>40.799999237061</ele>
        <time>2016-08-22T18:48:34.000Z</time>
      </trkpt>
      <trkpt lat="48.84558" lon="2.3052">
        <ele>40.599998474121</ele>
        <time>2016-08-22T18:48:38.000Z</time>
      </trkpt>
      <trkpt lat="48.84578" lon="2.30505">
        <ele>42.200000762939</ele>
        <time>2016-08-22T18:48:42.000Z</time>
      </trkpt>
      <trkpt lat="48.84594" lon="2.30493">
        <ele>43.599998474121</ele>
        <time>2016-08-22T18:48:46.000Z</time>
      </trkpt>
      <trkpt lat="48.84602" lon="2.30492">
        <ele>44</ele>
        <time>2016-08-22T18:48:49.000Z</time>
      </trkpt>
      <trkpt lat="48.84605" lon="2.30493">
        <ele>44</ele>
        <time>2016-08-22T18:48:51.000Z</time>
      </trkpt>
      <trkpt lat="48.84612" lon="2.30482">
        <ele>44.400001525879</ele>
        <time>2016-08-22T18:49:09.000Z</time>
      </trkpt>
      <trkpt lat="48.84631" lon="2.30473">
        <ele>44.599998474121</ele>
        <time>2016-08-22T18:49:18.000Z</time>
      </trkpt>
      <trkpt lat="48.8465" lon="2.30467">
        <ele>44.799999237061</ele>
        <time>2016-08-22T18:49:24.000Z</time>
      </trkpt>
      <trkpt lat="48.84666" lon="2.3045">
        <ele>44</ele>
        <time>2016-08-22T18:49:30.000Z</time>
      </trkpt>
      <trkpt lat="48.84684" lon="2.30436">
        <ele>42.799999237061</ele>
        <time>2016-08-22T18:49:36.000Z</time>
      </trkpt>
      <trkpt lat="48.84686" lon="2.30432">
        <ele>42.599998474121</ele>
        <time>2016-08-22T18:49:37.000Z</time>
      </trkpt>
      <trkpt lat="48.84702" lon="2.30434">
        <ele>42.799999237061</ele>
        <time>2016-08-22T18:49:58.000Z</time>
      </trkpt>
      <trkpt lat="48.84715" lon="2.30433">
        <ele>43.200000762939</ele>
        <time>2016-08-22T18:50:18.000Z</time>
      </trkpt>
      <trkpt lat="48.84723" lon="2.30409">
        <ele>43.200000762939</ele>
        <time>2016-08-22T18:50:26.000Z</time>
      </trkpt>
      <trkpt lat="48.84732" lon="2.30381">
        <ele>43.599998474121</ele>
        <time>2016-08-22T18:50:30.000Z</time>
      </trkpt>
      <trkpt lat="48.84742" lon="2.30352">
        <ele>42.799999237061</ele>
        <time>2016-08-22T18:50:34.000Z</time>
      </trkpt>
      <trkpt lat="48.84753" lon="2.30324">
        <ele>42</ele>
        <time>2016-08-22T18:50:38.000Z</time>
      </trkpt>
      <trkpt lat="48.84754" lon="2.30317">
        <ele>41.799999237061</ele>
        <time>2016-08-22T18:50:39.000Z</time>
      </trkpt>
      <trkpt lat="48.84764" lon="2.30291">
        <ele>41.599998474121</ele>
        <time>2016-08-22T18:50:43.000Z</time>
      </trkpt>
      <trkpt lat="48.84773" lon="2.30265">
        <ele>41.200000762939</ele>
        <time>2016-08-22T18:50:47.000Z</time>
      </trkpt>
      <trkpt lat="48.84781" lon="2.3024">
        <ele>41</ele>
        <time>2016-08-22T18:50:51.000Z</time>
      </trkpt>
      <trkpt lat="48.84789" lon="2.3021">
        <ele>40.799999237061</ele>
        <time>2016-08-22T18:50:55.000Z</time>
      </trkpt>
      <trkpt lat="48.84796" lon="2.30187">
        <ele>40.599998474121</ele>
        <time>2016-08-22T18:50:58.000Z</time>
      </trkpt>
      <trkpt lat="48.84805" lon="2.3016">
        <ele>40.799999237061</ele>
        <time>2016-08-22T18:51:02.000Z</time>
      </trkpt>
      <trkpt lat="48.84813" lon="2.30134">
        <ele>41.599998474121</ele>
        <time>2016-08-22T18:51:06.000Z</time>
      </trkpt>
      <trkpt lat="48.84817" lon="2.30122">
        <ele>42</ele>
        <time>2016-08-22T18:51:08.000Z</time>
      </trkpt>
      <trkpt lat="48.84824" lon="2.30092">
        <ele>43</ele>
        <time>2016-08-22T18:51:13.000Z</time>
      </trkpt>
      <trkpt lat="48.8483" lon="2.30075">
        <ele>43.400001525879</ele>
        <time>2016-08-22T18:51:16.000Z</time>
      </trkpt>
      <trkpt lat="48.84836" lon="2.30054">
        <ele>43.200000762939</ele>
        <time>2016-08-22T18:51:20.000Z</time>
      </trkpt>
      <trkpt lat="48.84845" lon="2.30025">
        <ele>42.599998474121</ele>
        <time>2016-08-22T18:51:25.000Z</time>
      </trkpt>
      <trkpt lat="48.84847" lon="2.30019">
        <ele>42.400001525879</ele>
        <time>2016-08-22T18:51:26.000Z</time>
      </trkpt>
      <trkpt lat="48.84851" lon="2.30007">
        <ele>42.200000762939</ele>
        <time>2016-08-22T18:51:28.000Z</time>
      </trkpt>
      <trkpt lat="48.8486" lon="2.29982">
        <ele>42.400001525879</ele>
        <time>2016-08-22T18:51:32.000Z</time>
      </trkpt>
      <trkpt lat="48.8487" lon="2.29952">
        <ele>43</ele>
        <time>2016-08-22T18:51:36.000Z</time>
      </trkpt>
      <trkpt lat="48.84879" lon="2.29925">
        <ele>43.400001525879</ele>
        <time>2016-08-22T18:51:40.000Z</time>
      </trkpt>
      <trkpt lat="48.84888" lon="2.29894">
        <ele>43.599998474121</ele>
        <time>2016-08-22T18:51:45.000Z</time>
      </trkpt>
      <trkpt lat="48.84889" lon="2.29886">
        <ele>43.799999237061</ele>
        <time>2016-08-22T18:51:46.000Z</time>
      </trkpt>
      <trkpt lat="48.84898" lon="2.29863">
        <ele>43.799999237061</ele>
        <time>2016-08-22T18:51:50.000Z</time>
      </trkpt>
      <trkpt lat="48.84902" lon="2.2985">
        <ele>43.599998474121</ele>
        <time>2016-08-22T18:51:52.000Z</time>
      </trkpt>
      <trkpt lat="48.84912" lon="2.29823">
        <ele>43.200000762939</ele>
        <time>2016-08-22T18:51:57.000Z</time>
      </trkpt>
      <trkpt lat="48.84915" lon="2.29811">
        <ele>43</ele>
        <time>2016-08-22T18:52:00.000Z</time>
      </trkpt>
      <trkpt lat="48.84912" lon="2.298">
        <ele>43</ele>
        <time>2016-08-22T18:52:04.000Z</time>
      </trkpt>
      <trkpt lat="48.84916" lon="2.29775">
        <ele>43.799999237061</ele>
        <time>2016-08-22T18:52:17.000Z</time>
      </trkpt>
      <trkpt lat="48.84923" lon="2.29747">
        <ele>44.599998474121</ele>
        <time>2016-08-22T18:52:21.000Z</time>
      </trkpt>
      <trkpt lat="48.84931" lon="2.29719">
        <ele>44.799999237061</ele>
        <time>2016-08-22T18:52:25.000Z</time>
      </trkpt>
      <trkpt lat="48.84939" lon="2.29693">
        <ele>45</ele>
        <time>2016-08-22T18:52:28.000Z</time>
      </trkpt>
      <trkpt lat="48.8495" lon="2.29666">
        <ele>44.599998474121</ele>
        <time>2016-08-22T18:52:31.000Z</time>
      </trkpt>
      <trkpt lat="48.8496" lon="2.29636">
        <ele>43.200000762939</ele>
        <time>2016-08-22T18:52:34.000Z</time>
      </trkpt>
      <trkpt lat="48.84971" lon="2.29605">
        <ele>42</ele>
        <time>2016-08-22T18:52:37.000Z</time>
      </trkpt>
      <trkpt lat="48.84982" lon="2.29573">
        <ele>41.400001525879</ele>
        <time>2016-08-22T18:52:40.000Z</time>
      </trkpt>
      <trkpt lat="48.84993" lon="2.29544">
        <ele>41</ele>
        <time>2016-08-22T18:52:43.000Z</time>
      </trkpt>
      <trkpt lat="48.85001" lon="2.29518">
        <ele>41</ele>
        <time>2016-08-22T18:52:46.000Z</time>
      </trkpt>
      <trkpt lat="48.85005" lon="2.29501">
        <ele>41</ele>
        <time>2016-08-22T18:52:48.000Z</time>
      </trkpt>
      <trkpt lat="48.85016" lon="2.29474">
        <ele>41</ele>
        <time>2016-08-22T18:52:52.000Z</time>
      </trkpt>
      <trkpt lat="48.85023" lon="2.29453">
        <ele>41</ele>
        <time>2016-08-22T18:52:55.000Z</time>
      </trkpt>
      <trkpt lat="48.85031" lon="2.29426">
        <ele>41</ele>
        <time>2016-08-22T18:52:59.000Z</time>
      </trkpt>
      <trkpt lat="48.85038" lon="2.29402">
        <ele>41.200000762939</ele>
        <time>2016-08-22T18:53:02.000Z</time>
      </trkpt>
      <trkpt lat="48.85047" lon="2.29375">
        <ele>41.200000762939</ele>
        <time>2016-08-22T18:53:06.000Z</time>
      </trkpt>
      <trkpt lat="48.85055" lon="2.29349">
        <ele>41</ele>
        <time>2016-08-22T18:53:10.000Z</time>
      </trkpt>
      <trkpt lat="48.85063" lon="2.29323">
        <ele>40.799999237061</ele>
        <time>2016-08-22T18:53:14.000Z</time>
      </trkpt>
      <trkpt lat="48.85072" lon="2.29297">
        <ele>40.799999237061</ele>
        <time>2016-08-22T18:53:18.000Z</time>
      </trkpt>
      <trkpt lat="48.8508" lon="2.2928">
        <ele>40.200000762939</ele>
        <time>2016-08-22T18:53:21.000Z</time>
      </trkpt>
      <trkpt lat="48.85093" lon="2.29255">
        <ele>39.400001525879</ele>
        <time>2016-08-22T18:53:26.000Z</time>
      </trkpt>
      <trkpt lat="48.85102" lon="2.29242">
        <ele>39</ele>
        <time>2016-08-22T18:53:29.000Z</time>
      </trkpt>
      <trkpt lat="48.85112" lon="2.29231">
        <ele>39.400001525879</ele>
        <time>2016-08-22T18:53:33.000Z</time>
      </trkpt>
      <trkpt lat="48.85128" lon="2.29216">
        <ele>40</ele>
        <time>2016-08-22T18:53:37.000Z</time>
      </trkpt>
      <trkpt lat="48.85132" lon="2.29211">
        <ele>40.200000762939</ele>
        <time>2016-08-22T18:53:38.000Z</time>
      </trkpt>
      <trkpt lat="48.8514" lon="2.29201">
        <ele>40.599998474121</ele>
        <time>2016-08-22T18:53:40.000Z</time>
      </trkpt>
      <trkpt lat="48.8516" lon="2.29183">
        <ele>40.799999237061</ele>
        <time>2016-08-22T18:53:44.000Z</time>
      </trkpt>
      <trkpt lat="48.85179" lon="2.29164">
        <ele>40.799999237061</ele>
        <time>2016-08-22T18:53:48.000Z</time>
      </trkpt>
      <trkpt lat="48.85187" lon="2.29153">
        <ele>40.599998474121</ele>
        <time>2016-08-22T18:53:50.000Z</time>
      </trkpt>
      <trkpt lat="48.85206" lon="2.29132">
        <ele>40.799999237061</ele>
        <time>2016-08-22T18:53:54.000Z</time>
      </trkpt>
      <trkpt lat="48.85221" lon="2.29117">
        <ele>40.799999237061</ele>
        <time>2016-08-22T18:53:57.000Z</time>
      </trkpt>
      <trkpt lat="48.8524" lon="2.29097">
        <ele>41</ele>
        <time>2016-08-22T18:54:01.000Z</time>
      </trkpt>
      <trkpt lat="48.85249" lon="2.29087">
        <ele>41.200000762939</ele>
        <time>2016-08-22T18:54:03.000Z</time>
      </trkpt>
      <trkpt lat="48.85263" lon="2.2907">
        <ele>41.400001525879</ele>
        <time>2016-08-22T18:54:07.000Z</time>
      </trkpt>
      <trkpt lat="48.85276" lon="2.29057">
        <ele>41.200000762939</ele>
        <time>2016-08-22T18:54:13.000Z</time>
      </trkpt>
      <trkpt lat="48.85279" lon="2.29054">
        <ele>41.200000762939</ele>
        <time>2016-08-22T18:54:15.000Z</time>
      </trkpt>
      <trkpt lat="48.85293" lon="2.29037">
        <ele>41</ele>
        <time>2016-08-22T18:54:21.000Z</time>
      </trkpt>
      <trkpt lat="48.85307" lon="2.2902">
        <ele>40.599998474121</ele>
        <time>2016-08-22T18:54:25.000Z</time>
      </trkpt>
      <trkpt lat="48.85325" lon="2.29001">
        <ele>40.400001525879</ele>
        <time>2016-08-22T18:54:29.000Z</time>
      </trkpt>
      <trkpt lat="48.8534" lon="2.28985">
        <ele>40.799999237061</ele>
        <time>2016-08-22T18:54:32.000Z</time>
      </trkpt>
      <trkpt lat="48.85356" lon="2.28968">
        <ele>41.599998474121</ele>
        <time>2016-08-22T18:54:35.000Z</time>
      </trkpt>
      <trkpt lat="48.85371" lon="2.28952">
        <ele>42.200000762939</ele>
        <time>2016-08-22T18:54:38.000Z</time>
      </trkpt>
      <trkpt lat="48.85388" lon="2.28935">
        <ele>42.799999237061</ele>
        <time>2016-08-22T18:54:41.000Z</time>
      </trkpt>
      <trkpt lat="48.85403" lon="2.28919">
        <ele>43.400001525879</ele>
        <time>2016-08-22T18:54:44.000Z</time>
      </trkpt>
      <trkpt lat="48.8542" lon="2.28902">
        <ele>43.599998474121</ele>
        <time>2016-08-22T18:54:47.000Z</time>
      </trkpt>
      <trkpt lat="48.85439" lon="2.28888">
        <ele>43</ele>
        <time>2016-08-22T18:54:51.000Z</time>
      </trkpt>
      <trkpt lat="48.85445" lon="2.28884">
        <ele>42.599998474121</ele>
        <time>2016-08-22T18:54:55.000Z</time>
      </trkpt>
      <trkpt lat="48.85446" lon="2.28884">
        <ele>42.599998474121</ele>
        <time>2016-08-22T18:54:57.000Z</time>
      </trkpt>
      <trkpt lat="48.85456" lon="2.28887">
        <ele>42</ele>
        <time>2016-08-22T18:55:46.000Z</time>
      </trkpt>
      <trkpt lat="48.85472" lon="2.28866">
        <ele>40.400001525879</ele>
        <time>2016-08-22T18:55:52.000Z</time>
      </trkpt>
      <trkpt lat="48.85487" lon="2.2885">
        <ele>38.799999237061</ele>
        <time>2016-08-22T18:55:56.000Z</time>
      </trkpt>
      <trkpt lat="48.85505" lon="2.28833">
        <ele>37.200000762939</ele>
        <time>2016-08-22T18:56:00.000Z</time>
      </trkpt>
      <trkpt lat="48.85526" lon="2.28815">
        <ele>35.400001525879</ele>
        <time>2016-08-22T18:56:04.000Z</time>
      </trkpt>
      <trkpt lat="48.85546" lon="2.28797">
        <ele>34</ele>
        <time>2016-08-22T18:56:08.000Z</time>
      </trkpt>
      <trkpt lat="48.85563" lon="2.28783">
        <ele>33</ele>
        <time>2016-08-22T18:56:11.000Z</time>
      </trkpt>
      <trkpt lat="48.8558" lon="2.28768">
        <ele>33</ele>
        <time>2016-08-22T18:56:14.000Z</time>
      </trkpt>
      <trkpt lat="48.85595" lon="2.28754">
        <ele>33</ele>
        <time>2016-08-22T18:56:17.000Z</time>
      </trkpt>
      <trkpt lat="48.85611" lon="2.28738">
        <ele>32.799999237061</ele>
        <time>2016-08-22T18:56:20.000Z</time>
      </trkpt>
      <trkpt lat="48.85626" lon="2.28721">
        <ele>32.200000762939</ele>
        <time>2016-08-22T18:56:23.000Z</time>
      </trkpt>
      <trkpt lat="48.85645" lon="2.28699">
        <ele>32</ele>
        <time>2016-08-22T18:56:27.000Z</time>
      </trkpt>
      <trkpt lat="48.85661" lon="2.28682">
        <ele>36.200000762939</ele>
        <time>2016-08-22T18:56:31.000Z</time>
      </trkpt>
      <trkpt lat="48.8567" lon="2.2867">
        <ele>38.599998474121</ele>
        <time>2016-08-22T18:56:35.000Z</time>
      </trkpt>
      <trkpt lat="48.8567" lon="2.28662">
        <ele>39.799999237061</ele>
        <time>2016-08-22T18:56:39.000Z</time>
      </trkpt>
      <trkpt lat="48.85685" lon="2.28652">
        <ele>42.400001525879</ele>
        <time>2016-08-22T18:57:07.000Z</time>
      </trkpt>
      <trkpt lat="48.85702" lon="2.28637">
        <ele>45.799999237061</ele>
        <time>2016-08-22T18:57:24.000Z</time>
      </trkpt>
      <trkpt lat="48.85709" lon="2.28612">
        <ele>48.599998474121</ele>
        <time>2016-08-22T18:57:31.000Z</time>
      </trkpt>
      <trkpt lat="48.85714" lon="2.28604">
        <ele>50</ele>
        <time>2016-08-22T18:57:35.000Z</time>
      </trkpt>
      <trkpt lat="48.85721" lon="2.28602">
        <ele>50.400001525879</ele>
        <time>2016-08-22T18:57:39.000Z</time>
      </trkpt>
      <trkpt lat="48.85729" lon="2.28605">
        <ele>51</ele>
        <time>2016-08-22T18:57:43.000Z</time>
      </trkpt>
      <trkpt lat="48.8573" lon="2.28602">
        <ele>51</ele>
        <time>2016-08-22T18:57:47.000Z</time>
      </trkpt>
      <trkpt lat="48.85745" lon="2.2862">
        <ele>52.200000762939</ele>
        <time>2016-08-22T18:58:15.000Z</time>
      </trkpt>
      <trkpt lat="48.85761" lon="2.28638">
        <ele>53.599998474121</ele>
        <time>2016-08-22T18:58:24.000Z</time>
      </trkpt>
      <trkpt lat="48.85778" lon="2.28647">
        <ele>55</ele>
        <time>2016-08-22T18:58:31.000Z</time>
      </trkpt>
      <trkpt lat="48.85796" lon="2.28655">
        <ele>56.200000762939</ele>
        <time>2016-08-22T18:58:41.000Z</time>
      </trkpt>
      <trkpt lat="48.85808" lon="2.28652">
        <ele>56.799999237061</ele>
        <time>2016-08-22T18:58:45.000Z</time>
      </trkpt>
      <trkpt lat="48.85816" lon="2.28636">
        <ele>57</ele>
        <time>2016-08-22T18:58:49.000Z</time>
      </trkpt>
      <trkpt lat="48.85821" lon="2.28638">
        <ele>57.400001525879</ele>
        <time>2016-08-22T18:58:52.000Z</time>
      </trkpt>
      <trkpt lat="48.85817" lon="2.28628">
        <ele>56.799999237061</ele>
        <time>2016-08-22T18:59:00.000Z</time>
      </trkpt>
      <trkpt lat="48.85802" lon="2.28609">
        <ele>55.599998474121</ele>
        <time>2016-08-22T18:59:06.000Z</time>
      </trkpt>
      <trkpt lat="48.85788" lon="2.28589">
        <ele>54.599998474121</ele>
        <time>2016-08-22T18:59:12.000Z</time>
      </trkpt>
      <trkpt lat="48.85781" lon="2.2857">
        <ele>54.400001525879</ele>
        <time>2016-08-22T18:59:18.000Z</time>
      </trkpt>
      <trkpt lat="48.85782" lon="2.28563">
        <ele>54.599998474121</ele>
        <time>2016-08-22T18:59:21.000Z</time>
      </trkpt>
      <trkpt lat="48.85782" lon="2.28561">
        <ele>54.599998474121</ele>
        <time>2016-08-22T19:00:51.000Z</time>
      </trkpt>
      <trkpt lat="48.85788" lon="2.28554">
        <ele>55.400001525879</ele>
        <time>2016-08-22T19:02:00.000Z</time>
      </trkpt>
      <trkpt lat="48.85807" lon="2.2854">
        <ele>58.400001525879</ele>
        <time>2016-08-22T19:02:07.000Z</time>
      </trkpt>
      <trkpt lat="48.8581" lon="2.28536">
        <ele>59</ele>
        <time>2016-08-22T19:02:08.000Z</time>
      </trkpt>
      <trkpt lat="48.85827" lon="2.28515">
        <ele>60.599998474121</ele>
        <time>2016-08-22T19:02:13.000Z</time>
      </trkpt>
      <trkpt lat="48.85843" lon="2.28501">
        <ele>62.400001525879</ele>
        <time>2016-08-22T19:02:18.000Z</time>
      </trkpt>
      <trkpt lat="48.85848" lon="2.28484">
        <ele>64</ele>
        <time>2016-08-22T19:02:24.000Z</time>
      </trkpt>
      <trkpt lat="48.85843" lon="2.28456">
        <ele>64.800003051758</ele>
        <time>2016-08-22T19:02:50.000Z</time>
      </trkpt>
      <trkpt lat="48.85843" lon="2.28453">
        <ele>65</ele>
        <time>2016-08-22T19:02:52.000Z</time>
      </trkpt>
      <trkpt lat="48.85829" lon="2.28444">
        <ele>64.599998474121</ele>
        <time>2016-08-22T19:03:25.000Z</time>
      </trkpt>
      <trkpt lat="48.85811" lon="2.28431">
        <ele>64.199996948242</ele>
        <time>2016-08-22T19:03:30.000Z</time>
      </trkpt>
      <trkpt lat="48.8579" lon="2.28416">
        <ele>63.799999237061</ele>
        <time>2016-08-22T19:03:35.000Z</time>
      </trkpt>
      <trkpt lat="48.85775" lon="2.28401">
        <ele>64.599998474121</ele>
        <time>2016-08-22T19:03:39.000Z</time>
      </trkpt>
      <trkpt lat="48.85761" lon="2.28384">
        <ele>64.599998474121</ele>
        <time>2016-08-22T19:03:43.000Z</time>
      </trkpt>
      <trkpt lat="48.85743" lon="2.28363">
        <ele>64</ele>
        <time>2016-08-22T19:03:47.000Z</time>
      </trkpt>
      <trkpt lat="48.85726" lon="2.28345">
        <ele>63</ele>
        <time>2016-08-22T19:03:51.000Z</time>
      </trkpt>
      <trkpt lat="48.85711" lon="2.28325">
        <ele>62.799999237061</ele>
        <time>2016-08-22T19:03:55.000Z</time>
      </trkpt>
      <trkpt lat="48.85695" lon="2.28305">
        <ele>61.799999237061</ele>
        <time>2016-08-22T19:03:59.000Z</time>
      </trkpt>
      <trkpt lat="48.85688" lon="2.28295">
        <ele>61.599998474121</ele>
        <time>2016-08-22T19:04:01.000Z</time>
      </trkpt>
      <trkpt lat="48.85674" lon="2.28275">
        <ele>60</ele>
        <time>2016-08-22T19:04:05.000Z</time>
      </trkpt>
      <trkpt lat="48.8566" lon="2.28256">
        <ele>58.599998474121</ele>
        <time>2016-08-22T19:04:09.000Z</time>
      </trkpt>
      <trkpt lat="48.85647" lon="2.28243">
        <ele>57</ele>
        <time>2016-08-22T19:04:12.000Z</time>
      </trkpt>
      <trkpt lat="48.85644" lon="2.28237">
        <ele>57</ele>
        <time>2016-08-22T19:04:13.000Z</time>
      </trkpt>
      <trkpt lat="48.85628" lon="2.28218">
        <ele>56.400001525879</ele>
        <time>2016-08-22T19:04:17.000Z</time>
      </trkpt>
      <trkpt lat="48.85615" lon="2.28206">
        <ele>55</ele>
        <time>2016-08-22T19:04:20.000Z</time>
      </trkpt>
      <trkpt lat="48.85611" lon="2.28202">
        <ele>54.799999237061</ele>
        <time>2016-08-22T19:04:21.000Z</time>
      </trkpt>
      <trkpt lat="48.85595" lon="2.28179">
        <ele>55.400001525879</ele>
        <time>2016-08-22T19:04:26.000Z</time>
      </trkpt>
      <trkpt lat="48.8558" lon="2.28164">
        <ele>54.799999237061</ele>
        <time>2016-08-22T19:04:30.000Z</time>
      </trkpt>
      <trkpt lat="48.85566" lon="2.28147">
        <ele>54.400001525879</ele>
        <time>2016-08-22T19:04:34.000Z</time>
      </trkpt>
      <trkpt lat="48.85554" lon="2.28124">
        <ele>55.200000762939</ele>
        <time>2016-08-22T19:04:39.000Z</time>
      </trkpt>
      <trkpt lat="48.85553" lon="2.28118">
        <ele>55.799999237061</ele>
        <time>2016-08-22T19:04:40.000Z</time>
      </trkpt>
      <trkpt lat="48.85547" lon="2.28101">
        <ele>56.599998474121</ele>
        <time>2016-08-22T19:04:44.000Z</time>
      </trkpt>
      <trkpt lat="48.85531" lon="2.28081">
        <ele>55.799999237061</ele>
        <time>2016-08-22T19:04:50.000Z</time>
      </trkpt>
      <trkpt lat="48.85519" lon="2.28061">
        <ele>55.799999237061</ele>
        <time>2016-08-22T19:04:55.000Z</time>
      </trkpt>
      <trkpt lat="48.85507" lon="2.28039">
        <ele>55.799999237061</ele>
        <time>2016-08-22T19:05:00.000Z</time>
      </trkpt>
      <trkpt lat="48.85496" lon="2.28016">
        <ele>56</ele>
        <time>2016-08-22T19:05:05.000Z</time>
      </trkpt>
      <trkpt lat="48.85482" lon="2.27995">
        <ele>55.599998474121</ele>
        <time>2016-08-22T19:05:11.000Z</time>
      </trkpt>
      <trkpt lat="48.85481" lon="2.27989">
        <ele>55.599998474121</ele>
        <time>2016-08-22T19:05:12.000Z</time>
      </trkpt>
      <trkpt lat="48.85486" lon="2.27972">
        <ele>56</ele>
        <time>2016-08-22T19:05:16.000Z</time>
      </trkpt>
      <trkpt lat="48.85495" lon="2.27961">
        <ele>57.400001525879</ele>
        <time>2016-08-22T19:05:20.000Z</time>
      </trkpt>
      <trkpt lat="48.85492" lon="2.27954">
        <ele>57.200000762939</ele>
        <time>2016-08-22T19:05:29.000Z</time>
      </trkpt>
      <trkpt lat="48.85488" lon="2.2795">
        <ele>56.799999237061</ele>
        <time>2016-08-22T19:05:36.000Z</time>
      </trkpt>
      <trkpt lat="48.85486" lon="2.27947">
        <ele>56.599998474121</ele>
        <time>2016-08-22T19:05:40.000Z</time>
      </trkpt>
      <trkpt lat="48.85474" lon="2.27934">
        <ele>55.400001525879</ele>
        <time>2016-08-22T19:06:00.000Z</time>
      </trkpt>
      <trkpt lat="48.85463" lon="2.27913">
        <ele>54.799999237061</ele>
        <time>2016-08-22T19:06:06.000Z</time>
      </trkpt>
      <trkpt lat="48.85456" lon="2.27886">
        <ele>55</ele>
        <time>2016-08-22T19:06:13.000Z</time>
      </trkpt>
      <trkpt lat="48.85444" lon="2.27864">
        <ele>54.200000762939</ele>
        <time>2016-08-22T19:06:20.000Z</time>
      </trkpt>
      <trkpt lat="48.85432" lon="2.27842">
        <ele>53.400001525879</ele>
        <time>2016-08-22T19:06:29.000Z</time>
      </trkpt>
      <trkpt lat="48.85418" lon="2.2782">
        <ele>52.599998474121</ele>
        <time>2016-08-22T19:06:35.000Z</time>
      </trkpt>
      <trkpt lat="48.85405" lon="2.27801">
        <ele>51.200000762939</ele>
        <time>2016-08-22T19:06:41.000Z</time>
      </trkpt>
      <trkpt lat="48.85405" lon="2.27797">
        <ele>51.200000762939</ele>
        <time>2016-08-22T19:06:42.000Z</time>
      </trkpt>
      <trkpt lat="48.85416" lon="2.27778">
        <ele>53.200000762939</ele>
        <time>2016-08-22T19:06:47.000Z</time>
      </trkpt>
      <trkpt lat="48.85432" lon="2.27755">
        <ele>55.799999237061</ele>
        <time>2016-08-22T19:06:52.000Z</time>
      </trkpt>
      <trkpt lat="48.85446" lon="2.27731">
        <ele>56.599998474121</ele>
        <time>2016-08-22T19:06:57.000Z</time>
      </trkpt>
      <trkpt lat="48.85461" lon="2.27711">
        <ele>56.200000762939</ele>
        <time>2016-08-22T19:07:03.000Z</time>
      </trkpt>
      <trkpt lat="48.85469" lon="2.27683">
        <ele>55.799999237061</ele>
        <time>2016-08-22T19:07:07.000Z</time>
      </trkpt>
      <trkpt lat="48.8548" lon="2.27656">
        <ele>56</ele>
        <time>2016-08-22T19:07:13.000Z</time>
      </trkpt>
      <trkpt lat="48.8549" lon="2.27628">
        <ele>54.799999237061</ele>
        <time>2016-08-22T19:07:19.000Z</time>
      </trkpt>
      <trkpt lat="48.855" lon="2.27602">
        <ele>54.400001525879</ele>
        <time>2016-08-22T19:07:24.000Z</time>
      </trkpt>
      <trkpt lat="48.85512" lon="2.27577">
        <ele>54.400001525879</ele>
        <time>2016-08-22T19:07:30.000Z</time>
      </trkpt>
      <trkpt lat="48.85528" lon="2.27558">
        <ele>55.400001525879</ele>
        <time>2016-08-22T19:07:37.000Z</time>
      </trkpt>
      <trkpt lat="48.85533" lon="2.27547">
        <ele>55.799999237061</ele>
        <time>2016-08-22T19:07:42.000Z</time>
      </trkpt>
      <trkpt lat="48.85522" lon="2.27517">
        <ele>55</ele>
        <time>2016-08-22T19:07:59.000Z</time>
      </trkpt>
      <trkpt lat="48.85523" lon="2.27517">
        <ele>55</ele>
        <time>2016-08-22T19:08:00.000Z</time>
      </trkpt>
      <trkpt lat="48.85525" lon="2.27514">
        <ele>55.200000762939</ele>
        <time>2016-08-22T19:08:20.000Z</time>
      </trkpt>
      <trkpt lat="48.85541" lon="2.27506">
        <ele>56</ele>
        <time>2016-08-22T19:08:38.000Z</time>
      </trkpt>
      <trkpt lat="48.8556" lon="2.27501">
        <ele>57</ele>
        <time>2016-08-22T19:08:45.000Z</time>
      </trkpt>
      <trkpt lat="48.85574" lon="2.27482">
        <ele>57.200000762939</ele>
        <time>2016-08-22T19:08:50.000Z</time>
      </trkpt>
      <trkpt lat="48.85583" lon="2.27458">
        <ele>57</ele>
        <time>2016-08-22T19:08:55.000Z</time>
      </trkpt>
      <trkpt lat="48.85592" lon="2.27432">
        <ele>56.799999237061</ele>
        <time>2016-08-22T19:09:01.000Z</time>
      </trkpt>
      <trkpt lat="48.85603" lon="2.27406">
        <ele>56.799999237061</ele>
        <time>2016-08-22T19:09:07.000Z</time>
      </trkpt>
      <trkpt lat="48.85612" lon="2.2738">
        <ele>56.799999237061</ele>
        <time>2016-08-22T19:09:12.000Z</time>
      </trkpt>
      <trkpt lat="48.8562" lon="2.27353">
        <ele>56.799999237061</ele>
        <time>2016-08-22T19:09:18.000Z</time>
      </trkpt>
      <trkpt lat="48.8563" lon="2.27324">
        <ele>57.200000762939</ele>
        <time>2016-08-22T19:09:25.000Z</time>
      </trkpt>
      <trkpt lat="48.85647" lon="2.27306">
        <ele>59.200000762939</ele>
        <time>2016-08-22T19:09:31.000Z</time>
      </trkpt>
      <trkpt lat="48.8566" lon="2.27276">
        <ele>60.599998474121</ele>
        <time>2016-08-22T19:09:37.000Z</time>
      </trkpt>
      <trkpt lat="48.85662" lon="2.27248">
        <ele>60.599998474121</ele>
        <time>2016-08-22T19:09:41.000Z</time>
      </trkpt>
      <trkpt lat="48.85668" lon="2.27222">
        <ele>62</ele>
        <time>2016-08-22T19:09:49.000Z</time>
      </trkpt>
      <trkpt lat="48.85668" lon="2.2722">
        <ele>61.799999237061</ele>
        <time>2016-08-22T19:09:52.000Z</time>
      </trkpt>
      <trkpt lat="48.85686" lon="2.2722">
        <ele>61.400001525879</ele>
        <time>2016-08-22T19:10:13.000Z</time>
      </trkpt>
      <trkpt lat="48.85702" lon="2.27241">
        <ele>61.799999237061</ele>
        <time>2016-08-22T19:10:19.000Z</time>
      </trkpt>
      <trkpt lat="48.8572" lon="2.27263">
        <ele>63</ele>
        <time>2016-08-22T19:10:25.000Z</time>
      </trkpt>
      <trkpt lat="48.85736" lon="2.27283">
        <ele>64.199996948242</ele>
        <time>2016-08-22T19:10:30.000Z</time>
      </trkpt>
      <trkpt lat="48.85751" lon="2.27293">
        <ele>64.800003051758</ele>
        <time>2016-08-22T19:10:38.000Z</time>
      </trkpt>
      <trkpt lat="48.85769" lon="2.27279">
        <ele>64</ele>
        <time>2016-08-22T19:10:44.000Z</time>
      </trkpt>
      <trkpt lat="48.85786" lon="2.27261">
        <ele>62.799999237061</ele>
        <time>2016-08-22T19:10:50.000Z</time>
      </trkpt>
      <trkpt lat="48.8579" lon="2.27257">
        <ele>63</ele>
        <time>2016-08-22T19:10:52.000Z</time>
      </trkpt>
      <trkpt lat="48.85796" lon="2.27244">
        <ele>62.799999237061</ele>
        <time>2016-08-22T19:11:01.000Z</time>
      </trkpt>
      <trkpt lat="48.85788" lon="2.2722">
        <ele>60.599998474121</ele>
        <time>2016-08-22T19:11:05.000Z</time>
      </trkpt>
      <trkpt lat="48.8578" lon="2.27188">
        <ele>58</ele>
        <time>2016-08-22T19:11:09.000Z</time>
      </trkpt>
      <trkpt lat="48.85775" lon="2.27161">
        <ele>56.200000762939</ele>
        <time>2016-08-22T19:11:12.000Z</time>
      </trkpt>
      <trkpt lat="48.85769" lon="2.27131">
        <ele>57.200000762939</ele>
        <time>2016-08-22T19:11:15.000Z</time>
      </trkpt>
      <trkpt lat="48.85763" lon="2.27102">
        <ele>58.400001525879</ele>
        <time>2016-08-22T19:11:18.000Z</time>
      </trkpt>
      <trkpt lat="48.85758" lon="2.27071">
        <ele>59.400001525879</ele>
        <time>2016-08-22T19:11:21.000Z</time>
      </trkpt>
      <trkpt lat="48.85751" lon="2.27042">
        <ele>60</ele>
        <time>2016-08-22T19:11:24.000Z</time>
      </trkpt>
      <trkpt lat="48.85744" lon="2.27014">
        <ele>60.400001525879</ele>
        <time>2016-08-22T19:11:27.000Z</time>
      </trkpt>
      <trkpt lat="48.85738" lon="2.26984">
        <ele>60.400001525879</ele>
        <time>2016-08-22T19:11:30.000Z</time>
      </trkpt>
      <trkpt lat="48.85733" lon="2.26956">
        <ele>60.400001525879</ele>
        <time>2016-08-22T19:11:33.000Z</time>
      </trkpt>
      <trkpt lat="48.85724" lon="2.26927">
        <ele>60.599998474121</ele>
        <time>2016-08-22T19:11:36.000Z</time>
      </trkpt>
      <trkpt lat="48.85716" lon="2.26896">
        <ele>60.200000762939</ele>
        <time>2016-08-22T19:11:39.000Z</time>
      </trkpt>
      <trkpt lat="48.85708" lon="2.26862">
        <ele>59.200000762939</ele>
        <time>2016-08-22T19:11:42.000Z</time>
      </trkpt>
      <trkpt lat="48.85701" lon="2.26827">
        <ele>58.799999237061</ele>
        <time>2016-08-22T19:11:45.000Z</time>
      </trkpt>
      <trkpt lat="48.85696" lon="2.26792">
        <ele>61.599998474121</ele>
        <time>2016-08-22T19:11:48.000Z</time>
      </trkpt>
      <trkpt lat="48.8569" lon="2.26755">
        <ele>64.400001525879</ele>
        <time>2016-08-22T19:11:51.000Z</time>
      </trkpt>
      <trkpt lat="48.85682" lon="2.26721">
        <ele>63.799999237061</ele>
        <time>2016-08-22T19:11:54.000Z</time>
      </trkpt>
      <trkpt lat="48.85675" lon="2.2669">
        <ele>62.200000762939</ele>
        <time>2016-08-22T19:11:57.000Z</time>
      </trkpt>
      <trkpt lat="48.85667" lon="2.26664">
        <ele>61</ele>
        <time>2016-08-22T19:12:00.000Z</time>
      </trkpt>
      <trkpt lat="48.85657" lon="2.26635">
        <ele>61.799999237061</ele>
        <time>2016-08-22T19:12:04.000Z</time>
      </trkpt>
      <trkpt lat="48.8565" lon="2.26619">
        <ele>62</ele>
        <time>2016-08-22T19:12:08.000Z</time>
      </trkpt>
      <trkpt lat="48.85638" lon="2.26595">
        <ele>61.799999237061</ele>
        <time>2016-08-22T19:12:16.000Z</time>
      </trkpt>
      <trkpt lat="48.85637" lon="2.26594">
        <ele>61.799999237061</ele>
        <time>2016-08-22T19:12:17.000Z</time>
      </trkpt>
      <trkpt lat="48.85632" lon="2.26586">
        <ele>61.799999237061</ele>
        <time>2016-08-22T19:12:22.000Z</time>
      </trkpt>
      <trkpt lat="48.85631" lon="2.26585">
        <ele>61.799999237061</ele>
        <time>2016-08-22T19:12:23.000Z</time>
      </trkpt>
      <trkpt lat="48.85619" lon="2.26562">
        <ele>62.400001525879</ele>
        <time>2016-08-22T19:12:38.000Z</time>
      </trkpt>
      <trkpt lat="48.85603" lon="2.26543">
        <ele>63</ele>
        <time>2016-08-22T19:12:42.000Z</time>
      </trkpt>
      <trkpt lat="48.8559" lon="2.26523">
        <ele>62.599998474121</ele>
        <time>2016-08-22T19:12:45.000Z</time>
      </trkpt>
      <trkpt lat="48.85575" lon="2.26498">
        <ele>62</ele>
        <time>2016-08-22T19:12:48.000Z</time>
      </trkpt>
      <trkpt lat="48.85569" lon="2.2649">
        <ele>61.400001525879</ele>
        <time>2016-08-22T19:12:49.000Z</time>
      </trkpt>
      <trkpt lat="48.85551" lon="2.26469">
        <ele>59</ele>
        <time>2016-08-22T19:12:52.000Z</time>
      </trkpt>
      <trkpt lat="48.85544" lon="2.26464">
        <ele>58.200000762939</ele>
        <time>2016-08-22T19:12:53.000Z</time>
      </trkpt>
      <trkpt lat="48.85523" lon="2.26444">
        <ele>55.799999237061</ele>
        <time>2016-08-22T19:12:56.000Z</time>
      </trkpt>
      <trkpt lat="48.85504" lon="2.2642">
        <ele>56.799999237061</ele>
        <time>2016-08-22T19:12:59.000Z</time>
      </trkpt>
      <trkpt lat="48.85484" lon="2.26398">
        <ele>58</ele>
        <time>2016-08-22T19:13:02.000Z</time>
      </trkpt>
      <trkpt lat="48.85464" lon="2.26375">
        <ele>59</ele>
        <time>2016-08-22T19:13:05.000Z</time>
      </trkpt>
      <trkpt lat="48.8544" lon="2.26359">
        <ele>60.599998474121</ele>
        <time>2016-08-22T19:13:08.000Z</time>
      </trkpt>
      <trkpt lat="48.85417" lon="2.26343">
        <ele>61.400001525879</ele>
        <time>2016-08-22T19:13:11.000Z</time>
      </trkpt>
      <trkpt lat="48.85396" lon="2.26325">
        <ele>61.799999237061</ele>
        <time>2016-08-22T19:13:14.000Z</time>
      </trkpt>
      <trkpt lat="48.85389" lon="2.26322">
        <ele>62</ele>
        <time>2016-08-22T19:13:15.000Z</time>
      </trkpt>
      <trkpt lat="48.85366" lon="2.26305">
        <ele>62</ele>
        <time>2016-08-22T19:13:18.000Z</time>
      </trkpt>
      <trkpt lat="48.85344" lon="2.26293">
        <ele>62.799999237061</ele>
        <time>2016-08-22T19:13:21.000Z</time>
      </trkpt>
      <trkpt lat="48.85325" lon="2.26282">
        <ele>63.400001525879</ele>
        <time>2016-08-22T19:13:24.000Z</time>
      </trkpt>
      <trkpt lat="48.85303" lon="2.26271">
        <ele>64.400001525879</ele>
        <time>2016-08-22T19:13:28.000Z</time>
      </trkpt>
      <trkpt lat="48.85291" lon="2.26269">
        <ele>64.599998474121</ele>
        <time>2016-08-22T19:13:31.000Z</time>
      </trkpt>
      <trkpt lat="48.85274" lon="2.26265">
        <ele>64.599998474121</ele>
        <time>2016-08-22T19:13:36.000Z</time>
      </trkpt>
      <trkpt lat="48.85279" lon="2.26249">
        <ele>64.800003051758</ele>
        <time>2016-08-22T19:14:04.000Z</time>
      </trkpt>
      <trkpt lat="48.85275" lon="2.26246">
        <ele>64.800003051758</ele>
        <time>2016-08-22T19:14:26.000Z</time>
      </trkpt>
      <trkpt lat="48.85257" lon="2.26249">
        <ele>63.799999237061</ele>
        <time>2016-08-22T19:14:33.000Z</time>
      </trkpt>
      <trkpt lat="48.85237" lon="2.26243">
        <ele>62.599998474121</ele>
        <time>2016-08-22T19:14:38.000Z</time>
      </trkpt>
      <trkpt lat="48.85216" lon="2.2624">
        <ele>61.200000762939</ele>
        <time>2016-08-22T19:14:43.000Z</time>
      </trkpt>
      <trkpt lat="48.85196" lon="2.26238">
        <ele>59.799999237061</ele>
        <time>2016-08-22T19:14:47.000Z</time>
      </trkpt>
      <trkpt lat="48.85176" lon="2.26236">
        <ele>59.599998474121</ele>
        <time>2016-08-22T19:14:51.000Z</time>
      </trkpt>
      <trkpt lat="48.85156" lon="2.26232">
        <ele>60</ele>
        <time>2016-08-22T19:14:55.000Z</time>
      </trkpt>
      <trkpt lat="48.85135" lon="2.26228">
        <ele>60.400001525879</ele>
        <time>2016-08-22T19:14:59.000Z</time>
      </trkpt>
      <trkpt lat="48.85114" lon="2.26222">
        <ele>60.799999237061</ele>
        <time>2016-08-22T19:15:03.000Z</time>
      </trkpt>
      <trkpt lat="48.85093" lon="2.26212">
        <ele>60.599998474121</ele>
        <time>2016-08-22T19:15:07.000Z</time>
      </trkpt>
      <trkpt lat="48.85072" lon="2.26202">
        <ele>60</ele>
        <time>2016-08-22T19:15:11.000Z</time>
      </trkpt>
      <trkpt lat="48.85056" lon="2.26193">
        <ele>59.599998474121</ele>
        <time>2016-08-22T19:15:14.000Z</time>
      </trkpt>
      <trkpt lat="48.85037" lon="2.26176">
        <ele>59.200000762939</ele>
        <time>2016-08-22T19:15:18.000Z</time>
      </trkpt>
      <trkpt lat="48.8502" lon="2.26158">
        <ele>58.799999237061</ele>
        <time>2016-08-22T19:15:22.000Z</time>
      </trkpt>
      <trkpt lat="48.85003" lon="2.26142">
        <ele>57.599998474121</ele>
        <time>2016-08-22T19:15:26.000Z</time>
      </trkpt>
      <trkpt lat="48.84983" lon="2.26123">
        <ele>56.200000762939</ele>
        <time>2016-08-22T19:15:30.000Z</time>
      </trkpt>
      <trkpt lat="48.84964" lon="2.26106">
        <ele>54.799999237061</ele>
        <time>2016-08-22T19:15:34.000Z</time>
      </trkpt>
      <trkpt lat="48.84948" lon="2.26092">
        <ele>53.599998474121</ele>
        <time>2016-08-22T19:15:38.000Z</time>
      </trkpt>
      <trkpt lat="48.84929" lon="2.26079">
        <ele>52.799999237061</ele>
        <time>2016-08-22T19:15:42.000Z</time>
      </trkpt>
      <trkpt lat="48.8491" lon="2.26068">
        <ele>52.200000762939</ele>
        <time>2016-08-22T19:15:46.000Z</time>
      </trkpt>
      <trkpt lat="48.84902" lon="2.26058">
        <ele>51.799999237061</ele>
        <time>2016-08-22T19:15:48.000Z</time>
      </trkpt>
      <trkpt lat="48.84887" lon="2.26045">
        <ele>51.200000762939</ele>
        <time>2016-08-22T19:15:52.000Z</time>
      </trkpt>
      <trkpt lat="48.84872" lon="2.26039">
        <ele>50.799999237061</ele>
        <time>2016-08-22T19:15:55.000Z</time>
      </trkpt>
      <trkpt lat="48.84853" lon="2.26036">
        <ele>50.599998474121</ele>
        <time>2016-08-22T19:15:59.000Z</time>
      </trkpt>
      <trkpt lat="48.84847" lon="2.26031">
        <ele>50.599998474121</ele>
        <time>2016-08-22T19:16:01.000Z</time>
      </trkpt>
      <trkpt lat="48.84834" lon="2.26008">
        <ele>50.200000762939</ele>
        <time>2016-08-22T19:16:08.000Z</time>
      </trkpt>
      <trkpt lat="48.84831" lon="2.26005">
        <ele>50.200000762939</ele>
        <time>2016-08-22T19:16:09.000Z</time>
      </trkpt>
      <trkpt lat="48.84824" lon="2.25989">
        <ele>50</ele>
        <time>2016-08-22T19:16:13.000Z</time>
      </trkpt>
      <trkpt lat="48.84822" lon="2.25981">
        <ele>49.799999237061</ele>
        <time>2016-08-22T19:16:15.000Z</time>
      </trkpt>
      <trkpt lat="48.84818" lon="2.25954">
        <ele>49.400001525879</ele>
        <time>2016-08-22T19:16:25.000Z</time>
      </trkpt>
      <trkpt lat="48.84818" lon="2.25954">
        <ele>49.400001525879</ele>
        <time>2016-08-22T19:16:26.000Z</time>
      </trkpt>
      <trkpt lat="48.84827" lon="2.25955">
        <ele>49.400001525879</ele>
        <time>2016-08-22T19:17:26.000Z</time>
      </trkpt>
      <trkpt lat="48.8484" lon="2.25935">
        <ele>49.200000762939</ele>
        <time>2016-08-22T19:17:44.000Z</time>
      </trkpt>
      <trkpt lat="48.84847" lon="2.25902">
        <ele>48.200000762939</ele>
        <time>2016-08-22T19:17:56.000Z</time>
      </trkpt>
      <trkpt lat="48.84841" lon="2.25886">
        <ele>47.599998474121</ele>
        <time>2016-08-22T19:17:58.000Z</time>
      </trkpt>
      <trkpt lat="48.84835" lon="2.25862">
        <ele>46.799999237061</ele>
        <time>2016-08-22T19:18:03.000Z</time>
      </trkpt>
      <trkpt lat="48.84832" lon="2.25833">
        <ele>46.400001525879</ele>
        <time>2016-08-22T19:18:09.000Z</time>
      </trkpt>
      <trkpt lat="48.84831" lon="2.2583">
        <ele>46.200000762939</ele>
        <time>2016-08-22T19:18:10.000Z</time>
      </trkpt>
      <trkpt lat="48.84833" lon="2.25803">
        <ele>45.799999237061</ele>
        <time>2016-08-22T19:18:18.000Z</time>
      </trkpt>
      <trkpt lat="48.84849" lon="2.2579">
        <ele>47</ele>
        <time>2016-08-22T19:18:25.000Z</time>
      </trkpt>
      <trkpt lat="48.84858" lon="2.25766">
        <ele>47.400001525879</ele>
        <time>2016-08-22T19:18:34.000Z</time>
      </trkpt>
      <trkpt lat="48.84851" lon="2.25741">
        <ele>46.799999237061</ele>
        <time>2016-08-22T19:18:45.000Z</time>
      </trkpt>
      <trkpt lat="48.84835" lon="2.25731">
        <ele>45.599998474121</ele>
        <time>2016-08-22T19:18:56.000Z</time>
      </trkpt>
      <trkpt lat="48.84818" lon="2.25727">
        <ele>44.200000762939</ele>
        <time>2016-08-22T19:19:05.000Z</time>
      </trkpt>
      <trkpt lat="48.84804" lon="2.25722">
        <ele>43.200000762939</ele>
        <time>2016-08-22T19:19:13.000Z</time>
      </trkpt>
      <trkpt lat="48.84801" lon="2.25707">
        <ele>43.400001525879</ele>
        <time>2016-08-22T19:19:17.000Z</time>
      </trkpt>
      <trkpt lat="48.848" lon="2.2568">
        <ele>44.200000762939</ele>
        <time>2016-08-22T19:19:23.000Z</time>
      </trkpt>
      <trkpt lat="48.84799" lon="2.25646">
        <ele>45.599998474121</ele>
        <time>2016-08-22T19:19:29.000Z</time>
      </trkpt>
      <trkpt lat="48.84799" lon="2.25618">
        <ele>46.200000762939</ele>
        <time>2016-08-22T19:19:33.000Z</time>
      </trkpt>
      <trkpt lat="48.848" lon="2.2558">
        <ele>44.599998474121</ele>
        <time>2016-08-22T19:19:37.000Z</time>
      </trkpt>
      <trkpt lat="48.84802" lon="2.25557">
        <ele>44.200000762939</ele>
        <time>2016-08-22T19:19:39.000Z</time>
      </trkpt>
      <trkpt lat="48.84803" lon="2.25524">
        <ele>43.599998474121</ele>
        <time>2016-08-22T19:19:42.000Z</time>
      </trkpt>
      <trkpt lat="48.84802" lon="2.25487">
        <ele>44.200000762939</ele>
        <time>2016-08-22T19:19:45.000Z</time>
      </trkpt>
      <trkpt lat="48.848" lon="2.25452">
        <ele>44</ele>
        <time>2016-08-22T19:19:48.000Z</time>
      </trkpt>
      <trkpt lat="48.84801" lon="2.25431">
        <ele>43.599998474121</ele>
        <time>2016-08-22T19:19:50.000Z</time>
      </trkpt>
      <trkpt lat="48.84805" lon="2.25403">
        <ele>43.200000762939</ele>
        <time>2016-08-22T19:19:53.000Z</time>
      </trkpt>
      <trkpt lat="48.8481" lon="2.25371">
        <ele>43.799999237061</ele>
        <time>2016-08-22T19:19:57.000Z</time>
      </trkpt>
      <trkpt lat="48.84812" lon="2.25347">
        <ele>42.599998474121</ele>
        <time>2016-08-22T19:20:00.000Z</time>
      </trkpt>
      <trkpt lat="48.84812" lon="2.25321">
        <ele>41.400001525879</ele>
        <time>2016-08-22T19:20:04.000Z</time>
      </trkpt>
      <trkpt lat="48.84812" lon="2.25315">
        <ele>41.200000762939</ele>
        <time>2016-08-22T19:20:05.000Z</time>
      </trkpt>
      <trkpt lat="48.8481" lon="2.25304">
        <ele>41</ele>
        <time>2016-08-22T19:20:07.000Z</time>
      </trkpt>
      <trkpt lat="48.8481" lon="2.25295">
        <ele>40.799999237061</ele>
        <time>2016-08-22T19:20:09.000Z</time>
      </trkpt>
      <trkpt lat="48.84808" lon="2.25283">
        <ele>40.599998474121</ele>
        <time>2016-08-22T19:20:45.000Z</time>
      </trkpt>
      <trkpt lat="48.84802" lon="2.25255">
        <ele>41.599998474121</ele>
        <time>2016-08-22T19:20:51.000Z</time>
      </trkpt>
      <trkpt lat="48.848" lon="2.25222">
        <ele>42</ele>
        <time>2016-08-22T19:20:56.000Z</time>
      </trkpt>
      <trkpt lat="48.84801" lon="2.25191">
        <ele>42</ele>
        <time>2016-08-22T19:21:00.000Z</time>
      </trkpt>
      <trkpt lat="48.84804" lon="2.25157">
        <ele>42</ele>
        <time>2016-08-22T19:21:04.000Z</time>
      </trkpt>
      <trkpt lat="48.84803" lon="2.25123">
        <ele>41.599998474121</ele>
        <time>2016-08-22T19:21:08.000Z</time>
      </trkpt>
      <trkpt lat="48.84803" lon="2.25087">
        <ele>40.599998474121</ele>
        <time>2016-08-22T19:21:12.000Z</time>
      </trkpt>
      <trkpt lat="48.84803" lon="2.2506">
        <ele>39.799999237061</ele>
        <time>2016-08-22T19:21:15.000Z</time>
      </trkpt>
      <trkpt lat="48.84803" lon="2.2503">
        <ele>39.200000762939</ele>
        <time>2016-08-22T19:21:18.000Z</time>
      </trkpt>
      <trkpt lat="48.84804" lon="2.25">
        <ele>39.400001525879</ele>
        <time>2016-08-22T19:21:21.000Z</time>
      </trkpt>
      <trkpt lat="48.84805" lon="2.2497">
        <ele>39.599998474121</ele>
        <time>2016-08-22T19:21:24.000Z</time>
      </trkpt>
      <trkpt lat="48.84805" lon="2.24941">
        <ele>39.599998474121</ele>
        <time>2016-08-22T19:21:27.000Z</time>
      </trkpt>
      <trkpt lat="48.84805" lon="2.24911">
        <ele>39.200000762939</ele>
        <time>2016-08-22T19:21:30.000Z</time>
      </trkpt>
      <trkpt lat="48.84806" lon="2.24882">
        <ele>39.599998474121</ele>
        <time>2016-08-22T19:21:33.000Z</time>
      </trkpt>
      <trkpt lat="48.84808" lon="2.24852">
        <ele>39.799999237061</ele>
        <time>2016-08-22T19:21:36.000Z</time>
      </trkpt>
      <trkpt lat="48.84808" lon="2.24822">
        <ele>39.599998474121</ele>
        <time>2016-08-22T19:21:39.000Z</time>
      </trkpt>
      <trkpt lat="48.84809" lon="2.24793">
        <ele>38.599998474121</ele>
        <time>2016-08-22T19:21:42.000Z</time>
      </trkpt>
      <trkpt lat="48.8481" lon="2.24763">
        <ele>38</ele>
        <time>2016-08-22T19:21:45.000Z</time>
      </trkpt>
      <trkpt lat="48.84812" lon="2.24734">
        <ele>37.799999237061</ele>
        <time>2016-08-22T19:21:48.000Z</time>
      </trkpt>
      <trkpt lat="48.84812" lon="2.24724">
        <ele>37.799999237061</ele>
        <time>2016-08-22T19:21:49.000Z</time>
      </trkpt>
      <trkpt lat="48.84812" lon="2.24694">
        <ele>37.599998474121</ele>
        <time>2016-08-22T19:21:52.000Z</time>
      </trkpt>
      <trkpt lat="48.84813" lon="2.24659">
        <ele>37</ele>
        <time>2016-08-22T19:21:56.000Z</time>
      </trkpt>
      <trkpt lat="48.84813" lon="2.24638">
        <ele>37.200000762939</ele>
        <time>2016-08-22T19:21:59.000Z</time>
      </trkpt>
      <trkpt lat="48.84823" lon="2.2461">
        <ele>37.200000762939</ele>
        <time>2016-08-22T19:22:04.000Z</time>
      </trkpt>
      <trkpt lat="48.8484" lon="2.24593">
        <ele>36.599998474121</ele>
        <time>2016-08-22T19:22:08.000Z</time>
      </trkpt>
      <trkpt lat="48.84852" lon="2.24582">
        <ele>36.200000762939</ele>
        <time>2016-08-22T19:22:11.000Z</time>
      </trkpt>
      <trkpt lat="48.84868" lon="2.24567">
        <ele>37.400001525879</ele>
        <time>2016-08-22T19:22:15.000Z</time>
      </trkpt>
      <trkpt lat="48.84879" lon="2.24554">
        <ele>38.599998474121</ele>
        <time>2016-08-22T19:22:19.000Z</time>
      </trkpt>
      <trkpt lat="48.84885" lon="2.24542">
        <ele>39.200000762939</ele>
        <time>2016-08-22T19:22:22.000Z</time>
      </trkpt>
      <trkpt lat="48.84885" lon="2.24517">
        <ele>39</ele>
        <time>2016-08-22T19:22:27.000Z</time>
      </trkpt>
      <trkpt lat="48.84881" lon="2.24483">
        <ele>38.200000762939</ele>
        <time>2016-08-22T19:22:32.000Z</time>
      </trkpt>
      <trkpt lat="48.84875" lon="2.2445">
        <ele>38.200000762939</ele>
        <time>2016-08-22T19:22:36.000Z</time>
      </trkpt>
      <trkpt lat="48.84872" lon="2.24414">
        <ele>38.200000762939</ele>
        <time>2016-08-22T19:22:40.000Z</time>
      </trkpt>
      <trkpt lat="48.84869" lon="2.24387">
        <ele>38.599998474121</ele>
        <time>2016-08-22T19:22:43.000Z</time>
      </trkpt>
      <trkpt lat="48.84866" lon="2.24353">
        <ele>39.200000762939</ele>
        <time>2016-08-22T19:22:47.000Z</time>
      </trkpt>
      <trkpt lat="48.84865" lon="2.24344">
        <ele>39.200000762939</ele>
        <time>2016-08-22T19:22:48.000Z</time>
      </trkpt>
      <trkpt lat="48.84858" lon="2.24315">
        <ele>38.799999237061</ele>
        <time>2016-08-22T19:22:52.000Z</time>
      </trkpt>
      <trkpt lat="48.84852" lon="2.24286">
        <ele>38.599998474121</ele>
        <time>2016-08-22T19:22:56.000Z</time>
      </trkpt>
      <trkpt lat="48.84848" lon="2.24269">
        <ele>38.400001525879</ele>
        <time>2016-08-22T19:22:59.000Z</time>
      </trkpt>
      <trkpt lat="48.84848" lon="2.24252">
        <ele>38.200000762939</ele>
        <time>2016-08-22T19:23:04.000Z</time>
      </trkpt>
      <trkpt lat="48.8485" lon="2.24242">
        <ele>38</ele>
        <time>2016-08-22T19:23:07.000Z</time>
      </trkpt>
      <trkpt lat="48.84851" lon="2.24231">
        <ele>37.799999237061</ele>
        <time>2016-08-22T19:23:12.000Z</time>
      </trkpt>
      <trkpt lat="48.84854" lon="2.24223">
        <ele>37.400001525879</ele>
        <time>2016-08-22T19:23:17.000Z</time>
      </trkpt>
      <trkpt lat="48.84853" lon="2.24221">
        <ele>37.400001525879</ele>
        <time>2016-08-22T19:24:53.000Z</time>
      </trkpt>
      <trkpt lat="48.84842" lon="2.24196">
        <ele>37.200000762939</ele>
        <time>2016-08-22T19:25:03.000Z</time>
      </trkpt>
      <trkpt lat="48.8484" lon="2.24168">
        <ele>36.599998474121</ele>
        <time>2016-08-22T19:25:10.000Z</time>
      </trkpt>
      <trkpt lat="48.84856" lon="2.24146">
        <ele>36.200000762939</ele>
        <time>2016-08-22T19:25:16.000Z</time>
      </trkpt>
      <trkpt lat="48.84859" lon="2.24141">
        <ele>36.400001525879</ele>
        <time>2016-08-22T19:25:17.000Z</time>
      </trkpt>
      <trkpt lat="48.84875" lon="2.2412">
        <ele>37.400001525879</ele>
        <time>2016-08-22T19:25:22.000Z</time>
      </trkpt>
      <trkpt lat="48.8489" lon="2.24101">
        <ele>37.799999237061</ele>
        <time>2016-08-22T19:25:27.000Z</time>
      </trkpt>
      <trkpt lat="48.84907" lon="2.24082">
        <ele>37.200000762939</ele>
        <time>2016-08-22T19:25:32.000Z</time>
      </trkpt>
      <trkpt lat="48.84925" lon="2.24062">
        <ele>36.799999237061</ele>
        <time>2016-08-22T19:25:37.000Z</time>
      </trkpt>
      <trkpt lat="48.8494" lon="2.24045">
        <ele>36.599998474121</ele>
        <time>2016-08-22T19:25:41.000Z</time>
      </trkpt>
      <trkpt lat="48.84954" lon="2.24028">
        <ele>37.200000762939</ele>
        <time>2016-08-22T19:25:45.000Z</time>
      </trkpt>
      <trkpt lat="48.84968" lon="2.24008">
        <ele>37.400001525879</ele>
        <time>2016-08-22T19:25:49.000Z</time>
      </trkpt>
      <trkpt lat="48.84981" lon="2.23988">
        <ele>37.599998474121</ele>
        <time>2016-08-22T19:25:53.000Z</time>
      </trkpt>
      <trkpt lat="48.84992" lon="2.23967">
        <ele>38.200000762939</ele>
        <time>2016-08-22T19:25:57.000Z</time>
      </trkpt>
      <trkpt lat="48.85002" lon="2.2394">
        <ele>37.599998474121</ele>
        <time>2016-08-22T19:26:01.000Z</time>
      </trkpt>
      <trkpt lat="48.85004" lon="2.23932">
        <ele>37.400001525879</ele>
        <time>2016-08-22T19:26:02.000Z</time>
      </trkpt>
      <trkpt lat="48.8501" lon="2.23905">
        <ele>37</ele>
        <time>2016-08-22T19:26:05.000Z</time>
      </trkpt>
      <trkpt lat="48.85018" lon="2.23872">
        <ele>37</ele>
        <time>2016-08-22T19:26:09.000Z</time>
      </trkpt>
      <trkpt lat="48.85025" lon="2.23846">
        <ele>37</ele>
        <time>2016-08-22T19:26:12.000Z</time>
      </trkpt>
      <trkpt lat="48.85034" lon="2.23813">
        <ele>36.799999237061</ele>
        <time>2016-08-22T19:26:16.000Z</time>
      </trkpt>
      <trkpt lat="48.85038" lon="2.23798">
        <ele>36.799999237061</ele>
        <time>2016-08-22T19:26:18.000Z</time>
      </trkpt>
      <trkpt lat="48.85054" lon="2.23784">
        <ele>36.599998474121</ele>
        <time>2016-08-22T19:26:22.000Z</time>
      </trkpt>
      <trkpt lat="48.85077" lon="2.23781">
        <ele>35.799999237061</ele>
        <time>2016-08-22T19:26:27.000Z</time>
      </trkpt>
      <trkpt lat="48.85093" lon="2.23766">
        <ele>35</ele>
        <time>2016-08-22T19:26:31.000Z</time>
      </trkpt>
      <trkpt lat="48.85105" lon="2.23743">
        <ele>34</ele>
        <time>2016-08-22T19:26:35.000Z</time>
      </trkpt>
      <trkpt lat="48.85108" lon="2.23739">
        <ele>34</ele>
        <time>2016-08-22T19:26:36.000Z</time>
      </trkpt>
      <trkpt lat="48.85112" lon="2.23735">
        <ele>34.200000762939</ele>
        <time>2016-08-22T19:26:37.000Z</time>
      </trkpt>
      <trkpt lat="48.85129" lon="2.23721">
        <ele>34.200000762939</ele>
        <time>2016-08-22T19:26:42.000Z</time>
      </trkpt>
      <trkpt lat="48.85141" lon="2.2371">
        <ele>34.400001525879</ele>
        <time>2016-08-22T19:26:47.000Z</time>
      </trkpt>
      <trkpt lat="48.85148" lon="2.23683">
        <ele>34.400001525879</ele>
        <time>2016-08-22T19:26:55.000Z</time>
      </trkpt>
      <trkpt lat="48.85149" lon="2.2368">
        <ele>34.400001525879</ele>
        <time>2016-08-22T19:26:56.000Z</time>
      </trkpt>
      <trkpt lat="48.85146" lon="2.23651">
        <ele>34.599998474121</ele>
        <time>2016-08-22T19:27:02.000Z</time>
      </trkpt>
      <trkpt lat="48.85145" lon="2.23624">
        <ele>35</ele>
        <time>2016-08-22T19:27:06.000Z</time>
      </trkpt>
      <trkpt lat="48.85145" lon="2.23596">
        <ele>35</ele>
        <time>2016-08-22T19:27:10.000Z</time>
      </trkpt>
      <trkpt lat="48.85143" lon="2.23567">
        <ele>35</ele>
        <time>2016-08-22T19:27:14.000Z</time>
      </trkpt>
      <trkpt lat="48.85145" lon="2.23535">
        <ele>34.599998474121</ele>
        <time>2016-08-22T19:27:18.000Z</time>
      </trkpt>
      <trkpt lat="48.85148" lon="2.23499">
        <ele>34.400001525879</ele>
        <time>2016-08-22T19:27:22.000Z</time>
      </trkpt>
      <trkpt lat="48.85151" lon="2.23466">
        <ele>33.799999237061</ele>
        <time>2016-08-22T19:27:26.000Z</time>
      </trkpt>
      <trkpt lat="48.85154" lon="2.23439">
        <ele>33</ele>
        <time>2016-08-22T19:27:29.000Z</time>
      </trkpt>
      <trkpt lat="48.85159" lon="2.23403">
        <ele>32.599998474121</ele>
        <time>2016-08-22T19:27:33.000Z</time>
      </trkpt>
      <trkpt lat="48.85164" lon="2.23376">
        <ele>33</ele>
        <time>2016-08-22T19:27:36.000Z</time>
      </trkpt>
      <trkpt lat="48.85169" lon="2.23341">
        <ele>33.400001525879</ele>
        <time>2016-08-22T19:27:40.000Z</time>
      </trkpt>
      <trkpt lat="48.85176" lon="2.23315">
        <ele>32.599998474121</ele>
        <time>2016-08-22T19:27:43.000Z</time>
      </trkpt>
      <trkpt lat="48.85182" lon="2.2329">
        <ele>32.400001525879</ele>
        <time>2016-08-22T19:27:46.000Z</time>
      </trkpt>
      <trkpt lat="48.85189" lon="2.23264">
        <ele>32.200000762939</ele>
        <time>2016-08-22T19:27:49.000Z</time>
      </trkpt>
      <trkpt lat="48.85196" lon="2.23236">
        <ele>31.799999237061</ele>
        <time>2016-08-22T19:27:52.000Z</time>
      </trkpt>
      <trkpt lat="48.85203" lon="2.2321">
        <ele>32.200000762939</ele>
        <time>2016-08-22T19:27:55.000Z</time>
      </trkpt>
      <trkpt lat="48.8521" lon="2.23183">
        <ele>32.400001525879</ele>
        <time>2016-08-22T19:27:58.000Z</time>
      </trkpt>
      <trkpt lat="48.85218" lon="2.23156">
        <ele>32.400001525879</ele>
        <time>2016-08-22T19:28:01.000Z</time>
      </trkpt>
      <trkpt lat="48.85227" lon="2.23128">
        <ele>32.599998474121</ele>
        <time>2016-08-22T19:28:04.000Z</time>
      </trkpt>
      <trkpt lat="48.85237" lon="2.231">
        <ele>33</ele>
        <time>2016-08-22T19:28:07.000Z</time>
      </trkpt>
      <trkpt lat="48.85249" lon="2.23075">
        <ele>33.200000762939</ele>
        <time>2016-08-22T19:28:10.000Z</time>
      </trkpt>
      <trkpt lat="48.85264" lon="2.23052">
        <ele>32.799999237061</ele>
        <time>2016-08-22T19:28:13.000Z</time>
      </trkpt>
      <trkpt lat="48.85281" lon="2.23029">
        <ele>32.599998474121</ele>
        <time>2016-08-22T19:28:16.000Z</time>
      </trkpt>
      <trkpt lat="48.853" lon="2.2301">
        <ele>32.799999237061</ele>
        <time>2016-08-22T19:28:19.000Z</time>
      </trkpt>
      <trkpt lat="48.8532" lon="2.22994">
        <ele>33</ele>
        <time>2016-08-22T19:28:22.000Z</time>
      </trkpt>
      <trkpt lat="48.85339" lon="2.22977">
        <ele>33.799999237061</ele>
        <time>2016-08-22T19:28:25.000Z</time>
      </trkpt>
      <trkpt lat="48.85357" lon="2.2296">
        <ele>32.599998474121</ele>
        <time>2016-08-22T19:28:28.000Z</time>
      </trkpt>
      <trkpt lat="48.85377" lon="2.22943">
        <ele>32.599998474121</ele>
        <time>2016-08-22T19:28:31.000Z</time>
      </trkpt>
      <trkpt lat="48.85395" lon="2.22928">
        <ele>32.200000762939</ele>
        <time>2016-08-22T19:28:34.000Z</time>
      </trkpt>
      <trkpt lat="48.85416" lon="2.22915">
        <ele>31.39999961853</ele>
        <time>2016-08-22T19:28:37.000Z</time>
      </trkpt>
      <trkpt lat="48.85439" lon="2.22904">
        <ele>30.799999237061</ele>
        <time>2016-08-22T19:28:40.000Z</time>
      </trkpt>
      <trkpt lat="48.85461" lon="2.22891">
        <ele>31.200000762939</ele>
        <time>2016-08-22T19:28:43.000Z</time>
      </trkpt>
      <trkpt lat="48.85483" lon="2.22881">
        <ele>32</ele>
        <time>2016-08-22T19:28:46.000Z</time>
      </trkpt>
      <trkpt lat="48.85507" lon="2.22872">
        <ele>32.200000762939</ele>
        <time>2016-08-22T19:28:49.000Z</time>
      </trkpt>
      <trkpt lat="48.8553" lon="2.22865">
        <ele>32.400001525879</ele>
        <time>2016-08-22T19:28:52.000Z</time>
      </trkpt>
      <trkpt lat="48.85554" lon="2.22858">
        <ele>33.200000762939</ele>
        <time>2016-08-22T19:28:55.000Z</time>
      </trkpt>
      <trkpt lat="48.85575" lon="2.22854">
        <ele>33.400001525879</ele>
        <time>2016-08-22T19:28:58.000Z</time>
      </trkpt>
      <trkpt lat="48.85597" lon="2.22852">
        <ele>33.799999237061</ele>
        <time>2016-08-22T19:29:01.000Z</time>
      </trkpt>
      <trkpt lat="48.85619" lon="2.2285">
        <ele>32.599998474121</ele>
        <time>2016-08-22T19:29:04.000Z</time>
      </trkpt>
      <trkpt lat="48.85639" lon="2.22851">
        <ele>32</ele>
        <time>2016-08-22T19:29:07.000Z</time>
      </trkpt>
      <trkpt lat="48.85658" lon="2.22853">
        <ele>32</ele>
        <time>2016-08-22T19:29:10.000Z</time>
      </trkpt>
      <trkpt lat="48.85676" lon="2.22859">
        <ele>32</ele>
        <time>2016-08-22T19:29:13.000Z</time>
      </trkpt>
      <trkpt lat="48.85694" lon="2.22864">
        <ele>32</ele>
        <time>2016-08-22T19:29:15.000Z</time>
      </trkpt>
      <trkpt lat="48.85715" lon="2.22867">
        <ele>32</ele>
        <time>2016-08-22T19:29:18.000Z</time>
      </trkpt>
      <trkpt lat="48.85736" lon="2.22868">
        <ele>32.400001525879</ele>
        <time>2016-08-22T19:29:21.000Z</time>
      </trkpt>
      <trkpt lat="48.85756" lon="2.2287">
        <ele>33.200000762939</ele>
        <time>2016-08-22T19:29:24.000Z</time>
      </trkpt>
      <trkpt lat="48.85774" lon="2.22876">
        <ele>33.799999237061</ele>
        <time>2016-08-22T19:29:27.000Z</time>
      </trkpt>
      <trkpt lat="48.85793" lon="2.22882">
        <ele>33.200000762939</ele>
        <time>2016-08-22T19:29:30.000Z</time>
      </trkpt>
      <trkpt lat="48.85811" lon="2.22887">
        <ele>32.799999237061</ele>
        <time>2016-08-22T19:29:33.000Z</time>
      </trkpt>
      <trkpt lat="48.85834" lon="2.22894">
        <ele>32.200000762939</ele>
        <time>2016-08-22T19:29:37.000Z</time>
      </trkpt>
      <trkpt lat="48.85851" lon="2.229">
        <ele>31.60000038147</ele>
        <time>2016-08-22T19:29:40.000Z</time>
      </trkpt>
      <trkpt lat="48.85863" lon="2.22902">
        <ele>31.200000762939</ele>
        <time>2016-08-22T19:29:42.000Z</time>
      </trkpt>
      <trkpt lat="48.8588" lon="2.2291">
        <ele>30.799999237061</ele>
        <time>2016-08-22T19:29:45.000Z</time>
      </trkpt>
      <trkpt lat="48.85898" lon="2.22919">
        <ele>30.60000038147</ele>
        <time>2016-08-22T19:29:48.000Z</time>
      </trkpt>
      <trkpt lat="48.85915" lon="2.22927">
        <ele>30.60000038147</ele>
        <time>2016-08-22T19:29:51.000Z</time>
      </trkpt>
      <trkpt lat="48.85932" lon="2.22937">
        <ele>30.60000038147</ele>
        <time>2016-08-22T19:29:54.000Z</time>
      </trkpt>
      <trkpt lat="48.85938" lon="2.2294">
        <ele>30.60000038147</ele>
        <time>2016-08-22T19:29:55.000Z</time>
      </trkpt>
      <trkpt lat="48.85957" lon="2.22947">
        <ele>30.799999237061</ele>
        <time>2016-08-22T19:29:58.000Z</time>
      </trkpt>
      <trkpt lat="48.85976" lon="2.22955">
        <ele>31</ele>
        <time>2016-08-22T19:30:01.000Z</time>
      </trkpt>
      <trkpt lat="48.85994" lon="2.22964">
        <ele>31.200000762939</ele>
        <time>2016-08-22T19:30:04.000Z</time>
      </trkpt>
      <trkpt lat="48.86012" lon="2.22973">
        <ele>31.39999961853</ele>
        <time>2016-08-22T19:30:07.000Z</time>
      </trkpt>
      <trkpt lat="48.86031" lon="2.22981">
        <ele>31.60000038147</ele>
        <time>2016-08-22T19:30:10.000Z</time>
      </trkpt>
      <trkpt lat="48.8605" lon="2.22988">
        <ele>31.799999237061</ele>
        <time>2016-08-22T19:30:13.000Z</time>
      </trkpt>
      <trkpt lat="48.86072" lon="2.22998">
        <ele>32</ele>
        <time>2016-08-22T19:30:17.000Z</time>
      </trkpt>
      <trkpt lat="48.86091" lon="2.23004">
        <ele>32.200000762939</ele>
        <time>2016-08-22T19:30:20.000Z</time>
      </trkpt>
      <trkpt lat="48.86113" lon="2.23014">
        <ele>32</ele>
        <time>2016-08-22T19:30:24.000Z</time>
      </trkpt>
      <trkpt lat="48.86135" lon="2.23022">
        <ele>31</ele>
        <time>2016-08-22T19:30:28.000Z</time>
      </trkpt>
      <trkpt lat="48.86153" lon="2.23031">
        <ele>30.39999961853</ele>
        <time>2016-08-22T19:30:32.000Z</time>
      </trkpt>
      <trkpt lat="48.86169" lon="2.23039">
        <ele>30</ele>
        <time>2016-08-22T19:30:36.000Z</time>
      </trkpt>
      <trkpt lat="48.86187" lon="2.23047">
        <ele>29.39999961853</ele>
        <time>2016-08-22T19:30:41.000Z</time>
      </trkpt>
      <trkpt lat="48.86198" lon="2.23054">
        <ele>29.60000038147</ele>
        <time>2016-08-22T19:30:44.000Z</time>
      </trkpt>
      <trkpt lat="48.86216" lon="2.23066">
        <ele>30.200000762939</ele>
        <time>2016-08-22T19:30:50.000Z</time>
      </trkpt>
      <trkpt lat="48.86233" lon="2.23076">
        <ele>30.60000038147</ele>
        <time>2016-08-22T19:30:56.000Z</time>
      </trkpt>
      <trkpt lat="48.86245" lon="2.23083">
        <ele>31.200000762939</ele>
        <time>2016-08-22T19:31:01.000Z</time>
      </trkpt>
      <trkpt lat="48.86262" lon="2.23093">
        <ele>32</ele>
        <time>2016-08-22T19:31:09.000Z</time>
      </trkpt>
      <trkpt lat="48.86274" lon="2.23112">
        <ele>32.799999237061</ele>
        <time>2016-08-22T19:31:23.000Z</time>
      </trkpt>
      <trkpt lat="48.86274" lon="2.23113">
        <ele>32.799999237061</ele>
        <time>2016-08-22T19:31:24.000Z</time>
      </trkpt>
      <trkpt lat="48.86277" lon="2.23109">
        <ele>32.599998474121</ele>
        <time>2016-08-22T19:31:32.000Z</time>
      </trkpt>
      <trkpt lat="48.86291" lon="2.23126">
        <ele>32.400001525879</ele>
        <time>2016-08-22T19:31:45.000Z</time>
      </trkpt>
      <trkpt lat="48.86295" lon="2.23131">
        <ele>32.400001525879</ele>
        <time>2016-08-22T19:31:48.000Z</time>
      </trkpt>
      <trkpt lat="48.86289" lon="2.23126">
        <ele>32.599998474121</ele>
        <time>2016-08-22T19:32:43.000Z</time>
      </trkpt>
      <trkpt lat="48.86274" lon="2.23107">
        <ele>32.599998474121</ele>
        <time>2016-08-22T19:32:51.000Z</time>
      </trkpt>
      <trkpt lat="48.86271" lon="2.23105">
        <ele>32.599998474121</ele>
        <time>2016-08-22T19:32:55.000Z</time>
      </trkpt>
      <trkpt lat="48.86275" lon="2.2311">
        <ele>32.599998474121</ele>
        <time>2016-08-22T19:32:59.000Z</time>
      </trkpt>
      <trkpt lat="48.86286" lon="2.23131">
        <ele>32.799999237061</ele>
        <time>2016-08-22T19:33:05.000Z</time>
      </trkpt>
      <trkpt lat="48.863" lon="2.2315">
        <ele>32.799999237061</ele>
        <time>2016-08-22T19:33:10.000Z</time>
      </trkpt>
      <trkpt lat="48.86313" lon="2.23169">
        <ele>32.599998474121</ele>
        <time>2016-08-22T19:33:14.000Z</time>
      </trkpt>
      <trkpt lat="48.86327" lon="2.23189">
        <ele>32.599998474121</ele>
        <time>2016-08-22T19:33:18.000Z</time>
      </trkpt>
      <trkpt lat="48.86342" lon="2.23213">
        <ele>32.799999237061</ele>
        <time>2016-08-22T19:33:22.000Z</time>
      </trkpt>
      <trkpt lat="48.86354" lon="2.23239">
        <ele>33</ele>
        <time>2016-08-22T19:33:26.000Z</time>
      </trkpt>
      <trkpt lat="48.86366" lon="2.23265">
        <ele>33.200000762939</ele>
        <time>2016-08-22T19:33:30.000Z</time>
      </trkpt>
      <trkpt lat="48.86373" lon="2.23284">
        <ele>33.200000762939</ele>
        <time>2016-08-22T19:33:33.000Z</time>
      </trkpt>
      <trkpt lat="48.86381" lon="2.23314">
        <ele>33.599998474121</ele>
        <time>2016-08-22T19:33:38.000Z</time>
      </trkpt>
      <trkpt lat="48.86388" lon="2.2334">
        <ele>33.400001525879</ele>
        <time>2016-08-22T19:33:43.000Z</time>
      </trkpt>
      <trkpt lat="48.86396" lon="2.2336">
        <ele>32.799999237061</ele>
        <time>2016-08-22T19:33:48.000Z</time>
      </trkpt>
      <trkpt lat="48.86398" lon="2.23375">
        <ele>32.400001525879</ele>
        <time>2016-08-22T19:33:51.000Z</time>
      </trkpt>
      <trkpt lat="48.86401" lon="2.23399">
        <ele>31.200000762939</ele>
        <time>2016-08-22T19:33:55.000Z</time>
      </trkpt>
      <trkpt lat="48.86403" lon="2.23428">
        <ele>30.60000038147</ele>
        <time>2016-08-22T19:34:00.000Z</time>
      </trkpt>
      <trkpt lat="48.86405" lon="2.2344">
        <ele>30.60000038147</ele>
        <time>2016-08-22T19:34:06.000Z</time>
      </trkpt>
      <trkpt lat="48.86403" lon="2.23418">
        <ele>30.60000038147</ele>
        <time>2016-08-22T19:34:16.000Z</time>
      </trkpt>
      <trkpt lat="48.864" lon="2.23391">
        <ele>31.60000038147</ele>
        <time>2016-08-22T19:34:24.000Z</time>
      </trkpt>
      <trkpt lat="48.86396" lon="2.23364">
        <ele>32.599998474121</ele>
        <time>2016-08-22T19:34:35.000Z</time>
      </trkpt>
      <trkpt lat="48.86396" lon="2.23362">
        <ele>32.799999237061</ele>
        <time>2016-08-22T19:34:36.000Z</time>
      </trkpt>
      <trkpt lat="48.86397" lon="2.23353">
        <ele>33</ele>
        <time>2016-08-22T19:34:42.000Z</time>
      </trkpt>
      <trkpt lat="48.86383" lon="2.23351">
        <ele>33.200000762939</ele>
        <time>2016-08-22T19:35:55.000Z</time>
      </trkpt>
      <trkpt lat="48.86399" lon="2.23352">
        <ele>33</ele>
        <time>2016-08-22T19:36:47.000Z</time>
      </trkpt>
      <trkpt lat="48.86404" lon="2.23364">
        <ele>32.599998474121</ele>
        <time>2016-08-22T19:37:24.000Z</time>
      </trkpt>
      <trkpt lat="48.86402" lon="2.23392">
        <ele>31.60000038147</ele>
        <time>2016-08-22T19:37:37.000Z</time>
      </trkpt>
      <trkpt lat="48.86403" lon="2.23401">
        <ele>31.200000762939</ele>
        <time>2016-08-22T19:37:39.000Z</time>
      </trkpt>
      <trkpt lat="48.86403" lon="2.23432">
        <ele>30.60000038147</ele>
        <time>2016-08-22T19:37:45.000Z</time>
      </trkpt>
      <trkpt lat="48.86404" lon="2.23455">
        <ele>30.60000038147</ele>
        <time>2016-08-22T19:37:49.000Z</time>
      </trkpt>
      <trkpt lat="48.86405" lon="2.2348">
        <ele>31</ele>
        <time>2016-08-22T19:37:53.000Z</time>
      </trkpt>
      <trkpt lat="48.86406" lon="2.23508">
        <ele>31.60000038147</ele>
        <time>2016-08-22T19:37:57.000Z</time>
      </trkpt>
      <trkpt lat="48.86406" lon="2.23537">
        <ele>31.799999237061</ele>
        <time>2016-08-22T19:38:01.000Z</time>
      </trkpt>
      <trkpt lat="48.86406" lon="2.23564">
        <ele>31.200000762939</ele>
        <time>2016-08-22T19:38:05.000Z</time>
      </trkpt>
      <trkpt lat="48.86401" lon="2.23597">
        <ele>30.200000762939</ele>
        <time>2016-08-22T19:38:10.000Z</time>
      </trkpt>
      <trkpt lat="48.86392" lon="2.23628">
        <ele>29.39999961853</ele>
        <time>2016-08-22T19:38:15.000Z</time>
      </trkpt>
      <trkpt lat="48.86384" lon="2.23653">
        <ele>28.200000762939</ele>
        <time>2016-08-22T19:38:19.000Z</time>
      </trkpt>
      <trkpt lat="48.86376" lon="2.23679">
        <ele>28</ele>
        <time>2016-08-22T19:38:23.000Z</time>
      </trkpt>
      <trkpt lat="48.86374" lon="2.23685">
        <ele>28.200000762939</ele>
        <time>2016-08-22T19:38:24.000Z</time>
      </trkpt>
      <trkpt lat="48.86369" lon="2.23696">
        <ele>28.39999961853</ele>
        <time>2016-08-22T19:38:26.000Z</time>
      </trkpt>
      <trkpt lat="48.86354" lon="2.2372">
        <ele>28.799999237061</ele>
        <time>2016-08-22T19:38:31.000Z</time>
      </trkpt>
      <trkpt lat="48.86335" lon="2.2374">
        <ele>29.799999237061</ele>
        <time>2016-08-22T19:38:36.000Z</time>
      </trkpt>
      <trkpt lat="48.86327" lon="2.23748">
        <ele>29.60000038147</ele>
        <time>2016-08-22T19:38:38.000Z</time>
      </trkpt>
      <trkpt lat="48.86309" lon="2.23763">
        <ele>29.200000762939</ele>
        <time>2016-08-22T19:38:42.000Z</time>
      </trkpt>
      <trkpt lat="48.86291" lon="2.23777">
        <ele>29</ele>
        <time>2016-08-22T19:38:46.000Z</time>
      </trkpt>
      <trkpt lat="48.86274" lon="2.23788">
        <ele>29</ele>
        <time>2016-08-22T19:38:50.000Z</time>
      </trkpt>
      <trkpt lat="48.86256" lon="2.23801">
        <ele>29.200000762939</ele>
        <time>2016-08-22T19:38:55.000Z</time>
      </trkpt>
      <trkpt lat="48.86242" lon="2.23805">
        <ele>29.799999237061</ele>
        <time>2016-08-22T19:38:59.000Z</time>
      </trkpt>
      <trkpt lat="48.86228" lon="2.23799">
        <ele>30.60000038147</ele>
        <time>2016-08-22T19:39:06.000Z</time>
      </trkpt>
      <trkpt lat="48.86213" lon="2.23792">
        <ele>31.39999961853</ele>
        <time>2016-08-22T19:39:56.000Z</time>
      </trkpt>
      <trkpt lat="48.86193" lon="2.23794">
        <ele>33.200000762939</ele>
        <time>2016-08-22T19:40:02.000Z</time>
      </trkpt>
      <trkpt lat="48.86174" lon="2.23787">
        <ele>33.799999237061</ele>
        <time>2016-08-22T19:40:07.000Z</time>
      </trkpt>
      <trkpt lat="48.86155" lon="2.23777">
        <ele>34.400001525879</ele>
        <time>2016-08-22T19:40:12.000Z</time>
      </trkpt>
      <trkpt lat="48.86137" lon="2.23768">
        <ele>34.799999237061</ele>
        <time>2016-08-22T19:40:16.000Z</time>
      </trkpt>
      <trkpt lat="48.8612" lon="2.23758">
        <ele>35</ele>
        <time>2016-08-22T19:40:20.000Z</time>
      </trkpt>
      <trkpt lat="48.86104" lon="2.23745">
        <ele>35</ele>
        <time>2016-08-22T19:40:24.000Z</time>
      </trkpt>
      <trkpt lat="48.86084" lon="2.23734">
        <ele>34.799999237061</ele>
        <time>2016-08-22T19:40:29.000Z</time>
      </trkpt>
      <trkpt lat="48.86064" lon="2.23728">
        <ele>35</ele>
        <time>2016-08-22T19:40:34.000Z</time>
      </trkpt>
      <trkpt lat="48.86044" lon="2.23719">
        <ele>35</ele>
        <time>2016-08-22T19:40:40.000Z</time>
      </trkpt>
      <trkpt lat="48.86023" lon="2.23711">
        <ele>35</ele>
        <time>2016-08-22T19:40:46.000Z</time>
      </trkpt>
      <trkpt lat="48.86004" lon="2.23704">
        <ele>34.599998474121</ele>
        <time>2016-08-22T19:40:51.000Z</time>
      </trkpt>
      <trkpt lat="48.85985" lon="2.23699">
        <ele>34</ele>
        <time>2016-08-22T19:40:56.000Z</time>
      </trkpt>
      <trkpt lat="48.85963" lon="2.23697">
        <ele>34</ele>
        <time>2016-08-22T19:41:01.000Z</time>
      </trkpt>
      <trkpt lat="48.85942" lon="2.23695">
        <ele>33.799999237061</ele>
        <time>2016-08-22T19:41:06.000Z</time>
      </trkpt>
      <trkpt lat="48.85923" lon="2.23694">
        <ele>33.599998474121</ele>
        <time>2016-08-22T19:41:10.000Z</time>
      </trkpt>
      <trkpt lat="48.85905" lon="2.23696">
        <ele>33.799999237061</ele>
        <time>2016-08-22T19:41:15.000Z</time>
      </trkpt>
      <trkpt lat="48.85901" lon="2.23697">
        <ele>34</ele>
        <time>2016-08-22T19:41:16.000Z</time>
      </trkpt>
      <trkpt lat="48.85883" lon="2.237">
        <ele>34</ele>
        <time>2016-08-22T19:41:21.000Z</time>
      </trkpt>
      <trkpt lat="48.85865" lon="2.23703">
        <ele>34</ele>
        <time>2016-08-22T19:41:26.000Z</time>
      </trkpt>
      <trkpt lat="48.85844" lon="2.23707">
        <ele>34.599998474121</ele>
        <time>2016-08-22T19:41:32.000Z</time>
      </trkpt>
      <trkpt lat="48.85823" lon="2.2371">
        <ele>35.200000762939</ele>
        <time>2016-08-22T19:41:38.000Z</time>
      </trkpt>
      <trkpt lat="48.85803" lon="2.23715">
        <ele>35.599998474121</ele>
        <time>2016-08-22T19:41:43.000Z</time>
      </trkpt>
      <trkpt lat="48.85782" lon="2.23719">
        <ele>35.799999237061</ele>
        <time>2016-08-22T19:41:48.000Z</time>
      </trkpt>
      <trkpt lat="48.85761" lon="2.23724">
        <ele>36.200000762939</ele>
        <time>2016-08-22T19:41:53.000Z</time>
      </trkpt>
      <trkpt lat="48.8574" lon="2.23729">
        <ele>37</ele>
        <time>2016-08-22T19:41:58.000Z</time>
      </trkpt>
      <trkpt lat="48.85722" lon="2.23736">
        <ele>37.799999237061</ele>
        <time>2016-08-22T19:42:02.000Z</time>
      </trkpt>
      <trkpt lat="48.85701" lon="2.23739">
        <ele>38.400001525879</ele>
        <time>2016-08-22T19:42:06.000Z</time>
      </trkpt>
      <trkpt lat="48.85679" lon="2.23743">
        <ele>38.799999237061</ele>
        <time>2016-08-22T19:42:10.000Z</time>
      </trkpt>
      <trkpt lat="48.85667" lon="2.23743">
        <ele>38.799999237061</ele>
        <time>2016-08-22T19:42:12.000Z</time>
      </trkpt>
      <trkpt lat="48.85648" lon="2.23745">
        <ele>39</ele>
        <time>2016-08-22T19:42:15.000Z</time>
      </trkpt>
      <trkpt lat="48.85628" lon="2.23747">
        <ele>39</ele>
        <time>2016-08-22T19:42:18.000Z</time>
      </trkpt>
      <trkpt lat="48.85608" lon="2.23748">
        <ele>39</ele>
        <time>2016-08-22T19:42:21.000Z</time>
      </trkpt>
      <trkpt lat="48.85587" lon="2.23748">
        <ele>39</ele>
        <time>2016-08-22T19:42:24.000Z</time>
      </trkpt>
      <trkpt lat="48.85565" lon="2.23748">
        <ele>39</ele>
        <time>2016-08-22T19:42:27.000Z</time>
      </trkpt>
      <trkpt lat="48.85542" lon="2.23748">
        <ele>39</ele>
        <time>2016-08-22T19:42:30.000Z</time>
      </trkpt>
      <trkpt lat="48.85522" lon="2.23748">
        <ele>39.200000762939</ele>
        <time>2016-08-22T19:42:33.000Z</time>
      </trkpt>
      <trkpt lat="48.855" lon="2.23746">
        <ele>39.599998474121</ele>
        <time>2016-08-22T19:42:37.000Z</time>
      </trkpt>
      <trkpt lat="48.85478" lon="2.23744">
        <ele>40</ele>
        <time>2016-08-22T19:42:42.000Z</time>
      </trkpt>
      <trkpt lat="48.85459" lon="2.23742">
        <ele>40.400001525879</ele>
        <time>2016-08-22T19:42:46.000Z</time>
      </trkpt>
      <trkpt lat="48.85438" lon="2.23739">
        <ele>40.799999237061</ele>
        <time>2016-08-22T19:42:50.000Z</time>
      </trkpt>
      <trkpt lat="48.85419" lon="2.23735">
        <ele>41</ele>
        <time>2016-08-22T19:42:54.000Z</time>
      </trkpt>
      <trkpt lat="48.85401" lon="2.23728">
        <ele>41.400001525879</ele>
        <time>2016-08-22T19:42:58.000Z</time>
      </trkpt>
      <trkpt lat="48.8538" lon="2.23719">
        <ele>41.599998474121</ele>
        <time>2016-08-22T19:43:03.000Z</time>
      </trkpt>
      <trkpt lat="48.85361" lon="2.23713">
        <ele>41.799999237061</ele>
        <time>2016-08-22T19:43:07.000Z</time>
      </trkpt>
      <trkpt lat="48.85343" lon="2.2371">
        <ele>41.400001525879</ele>
        <time>2016-08-22T19:43:10.000Z</time>
      </trkpt>
      <trkpt lat="48.8532" lon="2.23701">
        <ele>40</ele>
        <time>2016-08-22T19:43:14.000Z</time>
      </trkpt>
      <trkpt lat="48.85303" lon="2.23692">
        <ele>38.799999237061</ele>
        <time>2016-08-22T19:43:17.000Z</time>
      </trkpt>
      <trkpt lat="48.85284" lon="2.23685">
        <ele>37.400001525879</ele>
        <time>2016-08-22T19:43:20.000Z</time>
      </trkpt>
      <trkpt lat="48.85262" lon="2.23678">
        <ele>36.200000762939</ele>
        <time>2016-08-22T19:43:24.000Z</time>
      </trkpt>
      <trkpt lat="48.8524" lon="2.23674">
        <ele>35.400001525879</ele>
        <time>2016-08-22T19:43:28.000Z</time>
      </trkpt>
      <trkpt lat="48.85217" lon="2.23675">
        <ele>35</ele>
        <time>2016-08-22T19:43:32.000Z</time>
      </trkpt>
      <trkpt lat="48.85196" lon="2.2368">
        <ele>34.400001525879</ele>
        <time>2016-08-22T19:43:36.000Z</time>
      </trkpt>
      <trkpt lat="48.85177" lon="2.23689">
        <ele>34.200000762939</ele>
        <time>2016-08-22T19:43:40.000Z</time>
      </trkpt>
      <trkpt lat="48.85156" lon="2.23698">
        <ele>34.400001525879</ele>
        <time>2016-08-22T19:43:45.000Z</time>
      </trkpt>
      <trkpt lat="48.85153" lon="2.23699">
        <ele>34.400001525879</ele>
        <time>2016-08-22T19:43:46.000Z</time>
      </trkpt>
      <trkpt lat="48.85149" lon="2.23702">
        <ele>34.400001525879</ele>
        <time>2016-08-22T19:43:49.000Z</time>
      </trkpt>
      <trkpt lat="48.85148" lon="2.237">
        <ele>34.400001525879</ele>
        <time>2016-08-22T19:45:02.000Z</time>
      </trkpt>
      <trkpt lat="48.85139" lon="2.2371">
        <ele>34.400001525879</ele>
        <time>2016-08-22T19:45:08.000Z</time>
      </trkpt>
      <trkpt lat="48.85123" lon="2.23726">
        <ele>34.200000762939</ele>
        <time>2016-08-22T19:45:13.000Z</time>
      </trkpt>
      <trkpt lat="48.85106" lon="2.23741">
        <ele>34</ele>
        <time>2016-08-22T19:45:18.000Z</time>
      </trkpt>
      <trkpt lat="48.85102" lon="2.23744">
        <ele>34.200000762939</ele>
        <time>2016-08-22T19:45:19.000Z</time>
      </trkpt>
      <trkpt lat="48.85087" lon="2.23767">
        <ele>35.200000762939</ele>
        <time>2016-08-22T19:45:24.000Z</time>
      </trkpt>
      <trkpt lat="48.85079" lon="2.23778">
        <ele>35.799999237061</ele>
        <time>2016-08-22T19:45:27.000Z</time>
      </trkpt>
      <trkpt lat="48.8506" lon="2.23782">
        <ele>36.599998474121</ele>
        <time>2016-08-22T19:45:33.000Z</time>
      </trkpt>
      <trkpt lat="48.85044" lon="2.23773">
        <ele>36.799999237061</ele>
        <time>2016-08-22T19:45:42.000Z</time>
      </trkpt>
      <trkpt lat="48.85047" lon="2.23754">
        <ele>36.400001525879</ele>
        <time>2016-08-22T19:45:47.000Z</time>
      </trkpt>
      <trkpt lat="48.85052" lon="2.23725">
        <ele>36.400001525879</ele>
        <time>2016-08-22T19:45:53.000Z</time>
      </trkpt>
      <trkpt lat="48.85056" lon="2.23694">
        <ele>37</ele>
        <time>2016-08-22T19:45:59.000Z</time>
      </trkpt>
      <trkpt lat="48.85064" lon="2.23665">
        <ele>37</ele>
        <time>2016-08-22T19:46:05.000Z</time>
      </trkpt>
      <trkpt lat="48.85071" lon="2.23632">
        <ele>36.400001525879</ele>
        <time>2016-08-22T19:46:10.000Z</time>
      </trkpt>
      <trkpt lat="48.85078" lon="2.23604">
        <ele>36.400001525879</ele>
        <time>2016-08-22T19:46:14.000Z</time>
      </trkpt>
      <trkpt lat="48.85085" lon="2.23577">
        <ele>36.400001525879</ele>
        <time>2016-08-22T19:46:18.000Z</time>
      </trkpt>
      <trkpt lat="48.85092" lon="2.23549">
        <ele>35.799999237061</ele>
        <time>2016-08-22T19:46:22.000Z</time>
      </trkpt>
      <trkpt lat="48.851" lon="2.23514">
        <ele>35.200000762939</ele>
        <time>2016-08-22T19:46:26.000Z</time>
      </trkpt>
      <trkpt lat="48.85107" lon="2.2348">
        <ele>34.599998474121</ele>
        <time>2016-08-22T19:46:30.000Z</time>
      </trkpt>
      <trkpt lat="48.85114" lon="2.23445">
        <ele>33.599998474121</ele>
        <time>2016-08-22T19:46:34.000Z</time>
      </trkpt>
      <trkpt lat="48.8512" lon="2.23419">
        <ele>33</ele>
        <time>2016-08-22T19:46:37.000Z</time>
      </trkpt>
      <trkpt lat="48.85126" lon="2.23393">
        <ele>33.200000762939</ele>
        <time>2016-08-22T19:46:40.000Z</time>
      </trkpt>
      <trkpt lat="48.85133" lon="2.23359">
        <ele>34</ele>
        <time>2016-08-22T19:46:44.000Z</time>
      </trkpt>
      <trkpt lat="48.85139" lon="2.23333">
        <ele>34.200000762939</ele>
        <time>2016-08-22T19:46:47.000Z</time>
      </trkpt>
      <trkpt lat="48.85145" lon="2.23305">
        <ele>32.799999237061</ele>
        <time>2016-08-22T19:46:50.000Z</time>
      </trkpt>
      <trkpt lat="48.85151" lon="2.23278">
        <ele>32</ele>
        <time>2016-08-22T19:46:53.000Z</time>
      </trkpt>
      <trkpt lat="48.85157" lon="2.2325">
        <ele>31.60000038147</ele>
        <time>2016-08-22T19:46:56.000Z</time>
      </trkpt>
      <trkpt lat="48.85164" lon="2.23215">
        <ele>31.39999961853</ele>
        <time>2016-08-22T19:47:00.000Z</time>
      </trkpt>
      <trkpt lat="48.85171" lon="2.23189">
        <ele>32.400001525879</ele>
        <time>2016-08-22T19:47:03.000Z</time>
      </trkpt>
      <trkpt lat="48.85178" lon="2.23161">
        <ele>33.400001525879</ele>
        <time>2016-08-22T19:47:06.000Z</time>
      </trkpt>
      <trkpt lat="48.85185" lon="2.23133">
        <ele>34.400001525879</ele>
        <time>2016-08-22T19:47:09.000Z</time>
      </trkpt>
      <trkpt lat="48.85189" lon="2.23105">
        <ele>35.400001525879</ele>
        <time>2016-08-22T19:47:12.000Z</time>
      </trkpt>
      <trkpt lat="48.85195" lon="2.23075">
        <ele>35.799999237061</ele>
        <time>2016-08-22T19:47:15.000Z</time>
      </trkpt>
      <trkpt lat="48.85199" lon="2.23045">
        <ele>36</ele>
        <time>2016-08-22T19:47:18.000Z</time>
      </trkpt>
      <trkpt lat="48.85206" lon="2.23013">
        <ele>36</ele>
        <time>2016-08-22T19:47:21.000Z</time>
      </trkpt>
      <trkpt lat="48.85212" lon="2.2298">
        <ele>35.200000762939</ele>
        <time>2016-08-22T19:47:24.000Z</time>
      </trkpt>
      <trkpt lat="48.85219" lon="2.22944">
        <ele>33</ele>
        <time>2016-08-22T19:47:27.000Z</time>
      </trkpt>
      <trkpt lat="48.85225" lon="2.22908">
        <ele>34.799999237061</ele>
        <time>2016-08-22T19:47:30.000Z</time>
      </trkpt>
      <trkpt lat="48.85232" lon="2.22873">
        <ele>35.400001525879</ele>
        <time>2016-08-22T19:47:33.000Z</time>
      </trkpt>
      <trkpt lat="48.85237" lon="2.2284">
        <ele>34.400001525879</ele>
        <time>2016-08-22T19:47:36.000Z</time>
      </trkpt>
      <trkpt lat="48.85242" lon="2.22808">
        <ele>34.599998474121</ele>
        <time>2016-08-22T19:47:39.000Z</time>
      </trkpt>
      <trkpt lat="48.85246" lon="2.22779">
        <ele>34.599998474121</ele>
        <time>2016-08-22T19:47:42.000Z</time>
      </trkpt>
      <trkpt lat="48.85254" lon="2.22751">
        <ele>34.400001525879</ele>
        <time>2016-08-22T19:47:45.000Z</time>
      </trkpt>
      <trkpt lat="48.85261" lon="2.22719">
        <ele>33.400001525879</ele>
        <time>2016-08-22T19:47:48.000Z</time>
      </trkpt>
      <trkpt lat="48.85269" lon="2.22691">
        <ele>32.200000762939</ele>
        <time>2016-08-22T19:47:51.000Z</time>
      </trkpt>
      <trkpt lat="48.8528" lon="2.22666">
        <ele>31</ele>
        <time>2016-08-22T19:47:55.000Z</time>
      </trkpt>
      <trkpt lat="48.85283" lon="2.22657">
        <ele>30.799999237061</ele>
        <time>2016-08-22T19:47:57.000Z</time>
      </trkpt>
      <trkpt lat="48.85289" lon="2.22646">
        <ele>30.39999961853</ele>
        <time>2016-08-22T19:48:03.000Z</time>
      </trkpt>
      <trkpt lat="48.85302" lon="2.22639">
        <ele>30.200000762939</ele>
        <time>2016-08-22T19:48:53.000Z</time>
      </trkpt>
      <trkpt lat="48.85322" lon="2.22638">
        <ele>30.39999961853</ele>
        <time>2016-08-22T19:49:00.000Z</time>
      </trkpt>
      <trkpt lat="48.85324" lon="2.22635">
        <ele>30.39999961853</ele>
        <time>2016-08-22T19:49:02.000Z</time>
      </trkpt>
      <trkpt lat="48.85324" lon="2.22625">
        <ele>30</ele>
        <time>2016-08-22T19:49:06.000Z</time>
      </trkpt>
      <trkpt lat="48.85323" lon="2.22615">
        <ele>29.799999237061</ele>
        <time>2016-08-22T19:49:12.000Z</time>
      </trkpt>
      <trkpt lat="48.85324" lon="2.22596">
        <ele>29.60000038147</ele>
        <time>2016-08-22T19:49:21.000Z</time>
      </trkpt>
      <trkpt lat="48.85316" lon="2.22571">
        <ele>29.39999961853</ele>
        <time>2016-08-22T19:49:36.000Z</time>
      </trkpt>
      <trkpt lat="48.85315" lon="2.22569">
        <ele>29.39999961853</ele>
        <time>2016-08-22T19:49:38.000Z</time>
      </trkpt>
      <trkpt lat="48.8531" lon="2.22568">
        <ele>29.200000762939</ele>
        <time>2016-08-22T19:49:42.000Z</time>
      </trkpt>
      <trkpt lat="48.853" lon="2.22549">
        <ele>29.39999961853</ele>
        <time>2016-08-22T19:49:56.000Z</time>
      </trkpt>
      <trkpt lat="48.85299" lon="2.2254">
        <ele>29.60000038147</ele>
        <time>2016-08-22T19:50:00.000Z</time>
      </trkpt>
      <trkpt lat="48.85299" lon="2.22512">
        <ele>30</ele>
        <time>2016-08-22T19:50:09.000Z</time>
      </trkpt>
      <trkpt lat="48.853" lon="2.22482">
        <ele>28.799999237061</ele>
        <time>2016-08-22T19:50:17.000Z</time>
      </trkpt>
      <trkpt lat="48.85298" lon="2.22454">
        <ele>27.39999961853</ele>
        <time>2016-08-22T19:50:26.000Z</time>
      </trkpt>
      <trkpt lat="48.85296" lon="2.22427">
        <ele>26.200000762939</ele>
        <time>2016-08-22T19:50:44.000Z</time>
      </trkpt>
      <trkpt lat="48.85294" lon="2.22399">
        <ele>25.799999237061</ele>
        <time>2016-08-22T19:50:51.000Z</time>
      </trkpt>
      <trkpt lat="48.85292" lon="2.22369">
        <ele>26.200000762939</ele>
        <time>2016-08-22T19:50:58.000Z</time>
      </trkpt>
      <trkpt lat="48.8529" lon="2.22338">
        <ele>26.60000038147</ele>
        <time>2016-08-22T19:51:05.000Z</time>
      </trkpt>
      <trkpt lat="48.85289" lon="2.2231">
        <ele>28</ele>
        <time>2016-08-22T19:51:11.000Z</time>
      </trkpt>
      <trkpt lat="48.85292" lon="2.22282">
        <ele>30</ele>
        <time>2016-08-22T19:51:18.000Z</time>
      </trkpt>
      <trkpt lat="48.85296" lon="2.22254">
        <ele>31.200000762939</ele>
        <time>2016-08-22T19:51:24.000Z</time>
      </trkpt>
      <trkpt lat="48.85291" lon="2.22225">
        <ele>32.200000762939</ele>
        <time>2016-08-22T19:51:33.000Z</time>
      </trkpt>
      <trkpt lat="48.85284" lon="2.22197">
        <ele>33</ele>
        <time>2016-08-22T19:51:41.000Z</time>
      </trkpt>
      <trkpt lat="48.85279" lon="2.22169">
        <ele>33.599998474121</ele>
        <time>2016-08-22T19:51:49.000Z</time>
      </trkpt>
      <trkpt lat="48.85276" lon="2.22141">
        <ele>35</ele>
        <time>2016-08-22T19:51:55.000Z</time>
      </trkpt>
      <trkpt lat="48.85275" lon="2.22109">
        <ele>36.400001525879</ele>
        <time>2016-08-22T19:52:02.000Z</time>
      </trkpt>
      <trkpt lat="48.85273" lon="2.22078">
        <ele>38</ele>
        <time>2016-08-22T19:52:09.000Z</time>
      </trkpt>
      <trkpt lat="48.85271" lon="2.2205">
        <ele>41.799999237061</ele>
        <time>2016-08-22T19:52:15.000Z</time>
      </trkpt>
      <trkpt lat="48.85269" lon="2.22023">
        <ele>45.599998474121</ele>
        <time>2016-08-22T19:52:21.000Z</time>
      </trkpt>
      <trkpt lat="48.85266" lon="2.21995">
        <ele>49.400001525879</ele>
        <time>2016-08-22T19:52:30.000Z</time>
      </trkpt>
      <trkpt lat="48.85265" lon="2.21992">
        <ele>50</ele>
        <time>2016-08-22T19:52:33.000Z</time>
      </trkpt>
      <trkpt lat="48.85263" lon="2.21991">
        <ele>50.200000762939</ele>
        <time>2016-08-22T19:52:36.000Z</time>
      </trkpt>
      <trkpt lat="48.8527" lon="2.21976">
        <ele>51.599998474121</ele>
        <time>2016-08-22T19:53:36.000Z</time>
      </trkpt>
      <trkpt lat="48.85275" lon="2.21992">
        <ele>49.200000762939</ele>
        <time>2016-08-22T19:54:40.000Z</time>
      </trkpt>
      <trkpt lat="48.85275" lon="2.22025">
        <ele>45</ele>
        <time>2016-08-22T19:54:46.000Z</time>
      </trkpt>
      <trkpt lat="48.85276" lon="2.22057">
        <ele>40.799999237061</ele>
        <time>2016-08-22T19:54:51.000Z</time>
      </trkpt>
      <trkpt lat="48.85276" lon="2.22084">
        <ele>37.599998474121</ele>
        <time>2016-08-22T19:54:55.000Z</time>
      </trkpt>
      <trkpt lat="48.85278" lon="2.22114">
        <ele>36.200000762939</ele>
        <time>2016-08-22T19:55:00.000Z</time>
      </trkpt>
      <trkpt lat="48.85279" lon="2.22143">
        <ele>34.799999237061</ele>
        <time>2016-08-22T19:55:05.000Z</time>
      </trkpt>
      <trkpt lat="48.85281" lon="2.22172">
        <ele>33.400001525879</ele>
        <time>2016-08-22T19:55:11.000Z</time>
      </trkpt>
      <trkpt lat="48.85283" lon="2.222">
        <ele>33</ele>
        <time>2016-08-22T19:55:19.000Z</time>
      </trkpt>
      <trkpt lat="48.85284" lon="2.22229">
        <ele>32.599998474121</ele>
        <time>2016-08-22T19:55:26.000Z</time>
      </trkpt>
      <trkpt lat="48.85285" lon="2.22257">
        <ele>31.799999237061</ele>
        <time>2016-08-22T19:55:32.000Z</time>
      </trkpt>
      <trkpt lat="48.85285" lon="2.22284">
        <ele>30</ele>
        <time>2016-08-22T19:55:38.000Z</time>
      </trkpt>
      <trkpt lat="48.85288" lon="2.22312">
        <ele>27.799999237061</ele>
        <time>2016-08-22T19:55:47.000Z</time>
      </trkpt>
      <trkpt lat="48.85289" lon="2.22342">
        <ele>26.60000038147</ele>
        <time>2016-08-22T19:55:55.000Z</time>
      </trkpt>
      <trkpt lat="48.85291" lon="2.22369">
        <ele>26.200000762939</ele>
        <time>2016-08-22T19:56:02.000Z</time>
      </trkpt>
      <trkpt lat="48.85292" lon="2.22399">
        <ele>26</ele>
        <time>2016-08-22T19:56:09.000Z</time>
      </trkpt>
      <trkpt lat="48.85293" lon="2.22427">
        <ele>26.200000762939</ele>
        <time>2016-08-22T19:56:16.000Z</time>
      </trkpt>
      <trkpt lat="48.85295" lon="2.22455">
        <ele>27.60000038147</ele>
        <time>2016-08-22T19:56:23.000Z</time>
      </trkpt>
      <trkpt lat="48.85297" lon="2.22485">
        <ele>28.799999237061</ele>
        <time>2016-08-22T19:56:31.000Z</time>
      </trkpt>
      <trkpt lat="48.853" lon="2.22514">
        <ele>30</ele>
        <time>2016-08-22T19:56:39.000Z</time>
      </trkpt>
      <trkpt lat="48.853" lon="2.22545">
        <ele>29.60000038147</ele>
        <time>2016-08-22T19:56:48.000Z</time>
      </trkpt>
      <trkpt lat="48.85301" lon="2.22565">
        <ele>28.799999237061</ele>
        <time>2016-08-22T19:56:56.000Z</time>
      </trkpt>
      <trkpt lat="48.85304" lon="2.22591">
        <ele>28.60000038147</ele>
        <time>2016-08-22T19:57:40.000Z</time>
      </trkpt>
      <trkpt lat="48.85299" lon="2.22617">
        <ele>29.200000762939</ele>
        <time>2016-08-22T19:58:01.000Z</time>
      </trkpt>
      <trkpt lat="48.85297" lon="2.22623">
        <ele>29.39999961853</ele>
        <time>2016-08-22T19:58:08.000Z</time>
      </trkpt>
      <trkpt lat="48.85295" lon="2.22626">
        <ele>29.60000038147</ele>
        <time>2016-08-22T19:58:12.000Z</time>
      </trkpt>
      <trkpt lat="48.85283" lon="2.22644">
        <ele>30.200000762939</ele>
        <time>2016-08-22T19:58:22.000Z</time>
      </trkpt>
      <trkpt lat="48.85277" lon="2.22671">
        <ele>31.200000762939</ele>
        <time>2016-08-22T19:58:29.000Z</time>
      </trkpt>
      <trkpt lat="48.85269" lon="2.22698">
        <ele>32.400001525879</ele>
        <time>2016-08-22T19:58:36.000Z</time>
      </trkpt>
      <trkpt lat="48.85265" lon="2.22731">
        <ele>33.799999237061</ele>
        <time>2016-08-22T19:58:42.000Z</time>
      </trkpt>
      <trkpt lat="48.85263" lon="2.2276">
        <ele>34.200000762939</ele>
        <time>2016-08-22T19:58:47.000Z</time>
      </trkpt>
      <trkpt lat="48.85254" lon="2.22792">
        <ele>34.400001525879</ele>
        <time>2016-08-22T19:58:53.000Z</time>
      </trkpt>
      <trkpt lat="48.85243" lon="2.2282">
        <ele>34.200000762939</ele>
        <time>2016-08-22T19:58:57.000Z</time>
      </trkpt>
      <trkpt lat="48.85238" lon="2.22848">
        <ele>34.599998474121</ele>
        <time>2016-08-22T19:59:01.000Z</time>
      </trkpt>
      <trkpt lat="48.85232" lon="2.2288">
        <ele>35.400001525879</ele>
        <time>2016-08-22T19:59:05.000Z</time>
      </trkpt>
      <trkpt lat="48.85224" lon="2.22909">
        <ele>34.799999237061</ele>
        <time>2016-08-22T19:59:09.000Z</time>
      </trkpt>
      <trkpt lat="48.85216" lon="2.2294">
        <ele>33</ele>
        <time>2016-08-22T19:59:13.000Z</time>
      </trkpt>
      <trkpt lat="48.85209" lon="2.22973">
        <ele>35</ele>
        <time>2016-08-22T19:59:17.000Z</time>
      </trkpt>
      <trkpt lat="48.85202" lon="2.23008">
        <ele>36.200000762939</ele>
        <time>2016-08-22T19:59:21.000Z</time>
      </trkpt>
      <trkpt lat="48.85194" lon="2.23039">
        <ele>36.200000762939</ele>
        <time>2016-08-22T19:59:25.000Z</time>
      </trkpt>
      <trkpt lat="48.85188" lon="2.23063">
        <ele>36.200000762939</ele>
        <time>2016-08-22T19:59:28.000Z</time>
      </trkpt>
      <trkpt lat="48.8518" lon="2.23094">
        <ele>35</ele>
        <time>2016-08-22T19:59:32.000Z</time>
      </trkpt>
      <trkpt lat="48.85174" lon="2.2312">
        <ele>34</ele>
        <time>2016-08-22T19:59:35.000Z</time>
      </trkpt>
      <trkpt lat="48.85168" lon="2.23156">
        <ele>33</ele>
        <time>2016-08-22T19:59:39.000Z</time>
      </trkpt>
      <trkpt lat="48.85163" lon="2.23182">
        <ele>32.200000762939</ele>
        <time>2016-08-22T19:59:42.000Z</time>
      </trkpt>
      <trkpt lat="48.85157" lon="2.23216">
        <ele>31.200000762939</ele>
        <time>2016-08-22T19:59:46.000Z</time>
      </trkpt>
      <trkpt lat="48.85148" lon="2.23239">
        <ele>31.39999961853</ele>
        <time>2016-08-22T19:59:49.000Z</time>
      </trkpt>
      <trkpt lat="48.85143" lon="2.23267">
        <ele>31.799999237061</ele>
        <time>2016-08-22T19:59:52.000Z</time>
      </trkpt>
      <trkpt lat="48.85139" lon="2.23293">
        <ele>32.599998474121</ele>
        <time>2016-08-22T19:59:55.000Z</time>
      </trkpt>
      <trkpt lat="48.85131" lon="2.23327">
        <ele>34.400001525879</ele>
        <time>2016-08-22T19:59:59.000Z</time>
      </trkpt>
      <trkpt lat="48.85125" lon="2.2336">
        <ele>34</ele>
        <time>2016-08-22T20:00:03.000Z</time>
      </trkpt>
      <trkpt lat="48.85119" lon="2.23392">
        <ele>33.400001525879</ele>
        <time>2016-08-22T20:00:07.000Z</time>
      </trkpt>
      <trkpt lat="48.85112" lon="2.23422">
        <ele>33.200000762939</ele>
        <time>2016-08-22T20:00:11.000Z</time>
      </trkpt>
      <trkpt lat="48.85111" lon="2.2343">
        <ele>33.400001525879</ele>
        <time>2016-08-22T20:00:12.000Z</time>
      </trkpt>
      <trkpt lat="48.85104" lon="2.23464">
        <ele>34.200000762939</ele>
        <time>2016-08-22T20:00:16.000Z</time>
      </trkpt>
      <trkpt lat="48.85095" lon="2.23496">
        <ele>35.200000762939</ele>
        <time>2016-08-22T20:00:20.000Z</time>
      </trkpt>
      <trkpt lat="48.85089" lon="2.23528">
        <ele>35.599998474121</ele>
        <time>2016-08-22T20:00:24.000Z</time>
      </trkpt>
      <trkpt lat="48.85087" lon="2.23553">
        <ele>36</ele>
        <time>2016-08-22T20:00:27.000Z</time>
      </trkpt>
      <trkpt lat="48.85083" lon="2.23585">
        <ele>36.400001525879</ele>
        <time>2016-08-22T20:00:31.000Z</time>
      </trkpt>
      <trkpt lat="48.85078" lon="2.23616">
        <ele>36.200000762939</ele>
        <time>2016-08-22T20:00:35.000Z</time>
      </trkpt>
      <trkpt lat="48.85071" lon="2.2365">
        <ele>36.599998474121</ele>
        <time>2016-08-22T20:00:39.000Z</time>
      </trkpt>
      <trkpt lat="48.85063" lon="2.23684">
        <ele>36.799999237061</ele>
        <time>2016-08-22T20:00:43.000Z</time>
      </trkpt>
      <trkpt lat="48.85053" lon="2.23718">
        <ele>36.599998474121</ele>
        <time>2016-08-22T20:00:47.000Z</time>
      </trkpt>
      <trkpt lat="48.85044" lon="2.23746">
        <ele>36.200000762939</ele>
        <time>2016-08-22T20:00:51.000Z</time>
      </trkpt>
      <trkpt lat="48.85039" lon="2.23761">
        <ele>36.799999237061</ele>
        <time>2016-08-22T20:00:54.000Z</time>
      </trkpt>
      <trkpt lat="48.85037" lon="2.23769">
        <ele>36.799999237061</ele>
        <time>2016-08-22T20:00:58.000Z</time>
      </trkpt>
      <trkpt lat="48.85032" lon="2.23779">
        <ele>36.799999237061</ele>
        <time>2016-08-22T20:02:32.000Z</time>
      </trkpt>
      <trkpt lat="48.85025" lon="2.23807">
        <ele>37</ele>
        <time>2016-08-22T20:02:38.000Z</time>
      </trkpt>
      <trkpt lat="48.85019" lon="2.23833">
        <ele>37</ele>
        <time>2016-08-22T20:02:43.000Z</time>
      </trkpt>
      <trkpt lat="48.85014" lon="2.23862">
        <ele>37</ele>
        <time>2016-08-22T20:02:48.000Z</time>
      </trkpt>
      <trkpt lat="48.85009" lon="2.23889">
        <ele>37</ele>
        <time>2016-08-22T20:02:52.000Z</time>
      </trkpt>
      <trkpt lat="48.85008" lon="2.23896">
        <ele>37</ele>
        <time>2016-08-22T20:02:53.000Z</time>
      </trkpt>
      <trkpt lat="48.85004" lon="2.23923">
        <ele>37.200000762939</ele>
        <time>2016-08-22T20:02:57.000Z</time>
      </trkpt>
      <trkpt lat="48.84998" lon="2.23948">
        <ele>37.799999237061</ele>
        <time>2016-08-22T20:03:01.000Z</time>
      </trkpt>
      <trkpt lat="48.84986" lon="2.23973">
        <ele>38</ele>
        <time>2016-08-22T20:03:05.000Z</time>
      </trkpt>
      <trkpt lat="48.84973" lon="2.23998">
        <ele>37.200000762939</ele>
        <time>2016-08-22T20:03:09.000Z</time>
      </trkpt>
      <trkpt lat="48.84959" lon="2.2402">
        <ele>37.200000762939</ele>
        <time>2016-08-22T20:03:13.000Z</time>
      </trkpt>
      <trkpt lat="48.84949" lon="2.24037">
        <ele>37</ele>
        <time>2016-08-22T20:03:16.000Z</time>
      </trkpt>
      <trkpt lat="48.84933" lon="2.24056">
        <ele>36.799999237061</ele>
        <time>2016-08-22T20:03:20.000Z</time>
      </trkpt>
      <trkpt lat="48.84916" lon="2.24071">
        <ele>37</ele>
        <time>2016-08-22T20:03:24.000Z</time>
      </trkpt>
      <trkpt lat="48.84898" lon="2.24092">
        <ele>37.400001525879</ele>
        <time>2016-08-22T20:03:28.000Z</time>
      </trkpt>
      <trkpt lat="48.84882" lon="2.24114">
        <ele>37.799999237061</ele>
        <time>2016-08-22T20:03:32.000Z</time>
      </trkpt>
      <trkpt lat="48.84862" lon="2.2413">
        <ele>36.599998474121</ele>
        <time>2016-08-22T20:03:36.000Z</time>
      </trkpt>
      <trkpt lat="48.84846" lon="2.24144">
        <ele>36.400001525879</ele>
        <time>2016-08-22T20:03:40.000Z</time>
      </trkpt>
      <trkpt lat="48.84832" lon="2.24158">
        <ele>36.599998474121</ele>
        <time>2016-08-22T20:03:45.000Z</time>
      </trkpt>
      <trkpt lat="48.8482" lon="2.24167">
        <ele>37</ele>
        <time>2016-08-22T20:03:50.000Z</time>
      </trkpt>
      <trkpt lat="48.84818" lon="2.24168">
        <ele>37</ele>
        <time>2016-08-22T20:03:51.000Z</time>
      </trkpt>
      <trkpt lat="48.84804" lon="2.2417">
        <ele>37.400001525879</ele>
        <time>2016-08-22T20:03:56.000Z</time>
      </trkpt>
      <trkpt lat="48.84792" lon="2.24176">
        <ele>37.799999237061</ele>
        <time>2016-08-22T20:04:03.000Z</time>
      </trkpt>
      <trkpt lat="48.8478" lon="2.24195">
        <ele>38.200000762939</ele>
        <time>2016-08-22T20:04:34.000Z</time>
      </trkpt>
      <trkpt lat="48.84773" lon="2.24224">
        <ele>38.799999237061</ele>
        <time>2016-08-22T20:04:40.000Z</time>
      </trkpt>
      <trkpt lat="48.84764" lon="2.24248">
        <ele>39.200000762939</ele>
        <time>2016-08-22T20:04:45.000Z</time>
      </trkpt>
      <trkpt lat="48.84756" lon="2.24275">
        <ele>39</ele>
        <time>2016-08-22T20:04:50.000Z</time>
      </trkpt>
      <trkpt lat="48.84748" lon="2.24302">
        <ele>39</ele>
        <time>2016-08-22T20:04:54.000Z</time>
      </trkpt>
      <trkpt lat="48.84741" lon="2.24331">
        <ele>38.799999237061</ele>
        <time>2016-08-22T20:04:58.000Z</time>
      </trkpt>
      <trkpt lat="48.84735" lon="2.24363">
        <ele>38</ele>
        <time>2016-08-22T20:05:02.000Z</time>
      </trkpt>
      <trkpt lat="48.84728" lon="2.24397">
        <ele>37.400001525879</ele>
        <time>2016-08-22T20:05:06.000Z</time>
      </trkpt>
      <trkpt lat="48.84719" lon="2.24428">
        <ele>37.400001525879</ele>
        <time>2016-08-22T20:05:10.000Z</time>
      </trkpt>
      <trkpt lat="48.84708" lon="2.24461">
        <ele>38.200000762939</ele>
        <time>2016-08-22T20:05:14.000Z</time>
      </trkpt>
      <trkpt lat="48.84699" lon="2.24494">
        <ele>38.799999237061</ele>
        <time>2016-08-22T20:05:18.000Z</time>
      </trkpt>
      <trkpt lat="48.84692" lon="2.24519">
        <ele>38.599998474121</ele>
        <time>2016-08-22T20:05:21.000Z</time>
      </trkpt>
      <trkpt lat="48.84681" lon="2.24547">
        <ele>38.599998474121</ele>
        <time>2016-08-22T20:05:24.000Z</time>
      </trkpt>
      <trkpt lat="48.84671" lon="2.24576">
        <ele>38.799999237061</ele>
        <time>2016-08-22T20:05:27.000Z</time>
      </trkpt>
      <trkpt lat="48.8466" lon="2.24604">
        <ele>39</ele>
        <time>2016-08-22T20:05:30.000Z</time>
      </trkpt>
      <trkpt lat="48.84651" lon="2.24632">
        <ele>39.400001525879</ele>
        <time>2016-08-22T20:05:33.000Z</time>
      </trkpt>
      <trkpt lat="48.84643" lon="2.2466">
        <ele>40.400001525879</ele>
        <time>2016-08-22T20:05:36.000Z</time>
      </trkpt>
      <trkpt lat="48.84637" lon="2.24689">
        <ele>40.400001525879</ele>
        <time>2016-08-22T20:05:39.000Z</time>
      </trkpt>
      <trkpt lat="48.8463" lon="2.24719">
        <ele>41</ele>
        <time>2016-08-22T20:05:42.000Z</time>
      </trkpt>
      <trkpt lat="48.84623" lon="2.24749">
        <ele>41.599998474121</ele>
        <time>2016-08-22T20:05:45.000Z</time>
      </trkpt>
      <trkpt lat="48.84617" lon="2.24781">
        <ele>42</ele>
        <time>2016-08-22T20:05:48.000Z</time>
      </trkpt>
      <trkpt lat="48.84608" lon="2.2481">
        <ele>42</ele>
        <time>2016-08-22T20:05:51.000Z</time>
      </trkpt>
      <trkpt lat="48.84602" lon="2.2484">
        <ele>41.599998474121</ele>
        <time>2016-08-22T20:05:54.000Z</time>
      </trkpt>
      <trkpt lat="48.84596" lon="2.24867">
        <ele>40.400001525879</ele>
        <time>2016-08-22T20:05:57.000Z</time>
      </trkpt>
      <trkpt lat="48.8459" lon="2.24901">
        <ele>39.200000762939</ele>
        <time>2016-08-22T20:06:01.000Z</time>
      </trkpt>
      <trkpt lat="48.84584" lon="2.24928">
        <ele>39</ele>
        <time>2016-08-22T20:06:04.000Z</time>
      </trkpt>
      <trkpt lat="48.84582" lon="2.24956">
        <ele>38.799999237061</ele>
        <time>2016-08-22T20:06:07.000Z</time>
      </trkpt>
      <trkpt lat="48.84576" lon="2.24989">
        <ele>38.400001525879</ele>
        <time>2016-08-22T20:06:11.000Z</time>
      </trkpt>
      <trkpt lat="48.84568" lon="2.25019">
        <ele>38.200000762939</ele>
        <time>2016-08-22T20:06:15.000Z</time>
      </trkpt>
      <trkpt lat="48.8456" lon="2.25046">
        <ele>38</ele>
        <time>2016-08-22T20:06:20.000Z</time>
      </trkpt>
      <trkpt lat="48.84558" lon="2.2505">
        <ele>38</ele>
        <time>2016-08-22T20:06:21.000Z</time>
      </trkpt>
      <trkpt lat="48.84554" lon="2.25076">
        <ele>37.599998474121</ele>
        <time>2016-08-22T20:06:41.000Z</time>
      </trkpt>
      <trkpt lat="48.84552" lon="2.25103">
        <ele>38</ele>
        <time>2016-08-22T20:06:48.000Z</time>
      </trkpt>
      <trkpt lat="48.84548" lon="2.25123">
        <ele>38.200000762939</ele>
        <time>2016-08-22T20:06:53.000Z</time>
      </trkpt>
      <trkpt lat="48.84545" lon="2.25155">
        <ele>38.599998474121</ele>
        <time>2016-08-22T20:06:59.000Z</time>
      </trkpt>
      <trkpt lat="48.84546" lon="2.25186">
        <ele>38.799999237061</ele>
        <time>2016-08-22T20:07:04.000Z</time>
      </trkpt>
      <trkpt lat="48.84545" lon="2.25218">
        <ele>38.799999237061</ele>
        <time>2016-08-22T20:07:09.000Z</time>
      </trkpt>
      <trkpt lat="48.84544" lon="2.25248">
        <ele>38.599998474121</ele>
        <time>2016-08-22T20:07:14.000Z</time>
      </trkpt>
      <trkpt lat="48.84541" lon="2.2528">
        <ele>37.400001525879</ele>
        <time>2016-08-22T20:07:19.000Z</time>
      </trkpt>
      <trkpt lat="48.84539" lon="2.25312">
        <ele>35.799999237061</ele>
        <time>2016-08-22T20:07:24.000Z</time>
      </trkpt>
      <trkpt lat="48.84543" lon="2.25345">
        <ele>34.599998474121</ele>
        <time>2016-08-22T20:07:29.000Z</time>
      </trkpt>
      <trkpt lat="48.84545" lon="2.25371">
        <ele>34.400001525879</ele>
        <time>2016-08-22T20:07:33.000Z</time>
      </trkpt>
      <trkpt lat="48.84544" lon="2.25403">
        <ele>34.400001525879</ele>
        <time>2016-08-22T20:07:38.000Z</time>
      </trkpt>
      <trkpt lat="48.84544" lon="2.25427">
        <ele>34.599998474121</ele>
        <time>2016-08-22T20:07:42.000Z</time>
      </trkpt>
      <trkpt lat="48.84544" lon="2.25446">
        <ele>34.799999237061</ele>
        <time>2016-08-22T20:07:45.000Z</time>
      </trkpt>
      <trkpt lat="48.84544" lon="2.25458">
        <ele>34.799999237061</ele>
        <time>2016-08-22T20:07:47.000Z</time>
      </trkpt>
      <trkpt lat="48.84541" lon="2.25467">
        <ele>34.799999237061</ele>
        <time>2016-08-22T20:07:49.000Z</time>
      </trkpt>
      <trkpt lat="48.84535" lon="2.25478">
        <ele>34.799999237061</ele>
        <time>2016-08-22T20:07:52.000Z</time>
      </trkpt>
      <trkpt lat="48.84523" lon="2.25499">
        <ele>35</ele>
        <time>2016-08-22T20:07:58.000Z</time>
      </trkpt>
      <trkpt lat="48.84519" lon="2.25528">
        <ele>36</ele>
        <time>2016-08-22T20:08:04.000Z</time>
      </trkpt>
      <trkpt lat="48.84519" lon="2.25556">
        <ele>36.599998474121</ele>
        <time>2016-08-22T20:08:10.000Z</time>
      </trkpt>
      <trkpt lat="48.84521" lon="2.25575">
        <ele>37</ele>
        <time>2016-08-22T20:08:16.000Z</time>
      </trkpt>
      <trkpt lat="48.84533" lon="2.25595">
        <ele>37.400001525879</ele>
        <time>2016-08-22T20:08:22.000Z</time>
      </trkpt>
      <trkpt lat="48.84539" lon="2.25625">
        <ele>38.400001525879</ele>
        <time>2016-08-22T20:08:28.000Z</time>
      </trkpt>
      <trkpt lat="48.84537" lon="2.25658">
        <ele>39.599998474121</ele>
        <time>2016-08-22T20:08:34.000Z</time>
      </trkpt>
      <trkpt lat="48.84533" lon="2.25688">
        <ele>40.599998474121</ele>
        <time>2016-08-22T20:08:40.000Z</time>
      </trkpt>
      <trkpt lat="48.84528" lon="2.25716">
        <ele>41.799999237061</ele>
        <time>2016-08-22T20:08:46.000Z</time>
      </trkpt>
      <trkpt lat="48.84533" lon="2.25748">
        <ele>42.799999237061</ele>
        <time>2016-08-22T20:09:00.000Z</time>
      </trkpt>
      <trkpt lat="48.84537" lon="2.25754">
        <ele>43</ele>
        <time>2016-08-22T20:09:10.000Z</time>
      </trkpt>
      <trkpt lat="48.84543" lon="2.25757">
        <ele>43</ele>
        <time>2016-08-22T20:09:19.000Z</time>
      </trkpt>
      <trkpt lat="48.84542" lon="2.25785">
        <ele>45</ele>
        <time>2016-08-22T20:09:38.000Z</time>
      </trkpt>
      <trkpt lat="48.84541" lon="2.25813">
        <ele>46.599998474121</ele>
        <time>2016-08-22T20:09:44.000Z</time>
      </trkpt>
      <trkpt lat="48.84537" lon="2.25843">
        <ele>48.200000762939</ele>
        <time>2016-08-22T20:09:52.000Z</time>
      </trkpt>
      <trkpt lat="48.84536" lon="2.25855">
        <ele>48.200000762939</ele>
        <time>2016-08-22T20:09:57.000Z</time>
      </trkpt>
      <trkpt lat="48.84537" lon="2.2587">
        <ele>48</ele>
        <time>2016-08-22T20:10:04.000Z</time>
      </trkpt>
      <trkpt lat="48.8453" lon="2.25901">
        <ele>47.400001525879</ele>
        <time>2016-08-22T20:10:10.000Z</time>
      </trkpt>
      <trkpt lat="48.84529" lon="2.25931">
        <ele>47.400001525879</ele>
        <time>2016-08-22T20:10:15.000Z</time>
      </trkpt>
      <trkpt lat="48.84532" lon="2.25964">
        <ele>48</ele>
        <time>2016-08-22T20:10:20.000Z</time>
      </trkpt>
      <trkpt lat="48.84532" lon="2.25991">
        <ele>48.200000762939</ele>
        <time>2016-08-22T20:10:24.000Z</time>
      </trkpt>
      <trkpt lat="48.84533" lon="2.2602">
        <ele>48.599998474121</ele>
        <time>2016-08-22T20:10:28.000Z</time>
      </trkpt>
      <trkpt lat="48.84533" lon="2.26051">
        <ele>49</ele>
        <time>2016-08-22T20:10:33.000Z</time>
      </trkpt>
      <trkpt lat="48.84536" lon="2.26078">
        <ele>49.400001525879</ele>
        <time>2016-08-22T20:10:37.000Z</time>
      </trkpt>
      <trkpt lat="48.84536" lon="2.26112">
        <ele>49.400001525879</ele>
        <time>2016-08-22T20:10:42.000Z</time>
      </trkpt>
      <trkpt lat="48.84535" lon="2.26125">
        <ele>49.599998474121</ele>
        <time>2016-08-22T20:10:44.000Z</time>
      </trkpt>
      <trkpt lat="48.84536" lon="2.26153">
        <ele>49.799999237061</ele>
        <time>2016-08-22T20:10:48.000Z</time>
      </trkpt>
      <trkpt lat="48.8453" lon="2.26178">
        <ele>49.400001525879</ele>
        <time>2016-08-22T20:10:52.000Z</time>
      </trkpt>
      <trkpt lat="48.84524" lon="2.26203">
        <ele>47.599998474121</ele>
        <time>2016-08-22T20:10:56.000Z</time>
      </trkpt>
      <trkpt lat="48.84519" lon="2.26217">
        <ele>46.599998474121</ele>
        <time>2016-08-22T20:10:58.000Z</time>
      </trkpt>
      <trkpt lat="48.84516" lon="2.26248">
        <ele>44.799999237061</ele>
        <time>2016-08-22T20:11:02.000Z</time>
      </trkpt>
      <trkpt lat="48.84516" lon="2.26282">
        <ele>44.799999237061</ele>
        <time>2016-08-22T20:11:06.000Z</time>
      </trkpt>
      <trkpt lat="48.84516" lon="2.26317">
        <ele>44.799999237061</ele>
        <time>2016-08-22T20:11:09.000Z</time>
      </trkpt>
      <trkpt lat="48.84517" lon="2.26354">
        <ele>45.799999237061</ele>
        <time>2016-08-22T20:11:12.000Z</time>
      </trkpt>
      <trkpt lat="48.84517" lon="2.26389">
        <ele>47</ele>
        <time>2016-08-22T20:11:15.000Z</time>
      </trkpt>
      <trkpt lat="48.84516" lon="2.26417">
        <ele>47.400001525879</ele>
        <time>2016-08-22T20:11:18.000Z</time>
      </trkpt>
      <trkpt lat="48.84514" lon="2.26452">
        <ele>47</ele>
        <time>2016-08-22T20:11:22.000Z</time>
      </trkpt>
      <trkpt lat="48.84511" lon="2.26485">
        <ele>46.400001525879</ele>
        <time>2016-08-22T20:11:26.000Z</time>
      </trkpt>
      <trkpt lat="48.84508" lon="2.26516">
        <ele>46.200000762939</ele>
        <time>2016-08-22T20:11:30.000Z</time>
      </trkpt>
      <trkpt lat="48.8451" lon="2.26544">
        <ele>46</ele>
        <time>2016-08-22T20:11:33.000Z</time>
      </trkpt>
      <trkpt lat="48.84504" lon="2.26572">
        <ele>45.599998474121</ele>
        <time>2016-08-22T20:11:36.000Z</time>
      </trkpt>
      <trkpt lat="48.84503" lon="2.26606">
        <ele>44.599998474121</ele>
        <time>2016-08-22T20:11:40.000Z</time>
      </trkpt>
      <trkpt lat="48.84504" lon="2.26637">
        <ele>43.400001525879</ele>
        <time>2016-08-22T20:11:44.000Z</time>
      </trkpt>
      <trkpt lat="48.84502" lon="2.26646">
        <ele>43.200000762939</ele>
        <time>2016-08-22T20:11:46.000Z</time>
      </trkpt>
      <trkpt lat="48.84508" lon="2.26672">
        <ele>42.799999237061</ele>
        <time>2016-08-22T20:12:36.000Z</time>
      </trkpt>
      <trkpt lat="48.84522" lon="2.26692">
        <ele>42.200000762939</ele>
        <time>2016-08-22T20:12:42.000Z</time>
      </trkpt>
      <trkpt lat="48.84535" lon="2.26718">
        <ele>41.599998474121</ele>
        <time>2016-08-22T20:12:46.000Z</time>
      </trkpt>
      <trkpt lat="48.84546" lon="2.26747">
        <ele>41</ele>
        <time>2016-08-22T20:12:50.000Z</time>
      </trkpt>
      <trkpt lat="48.84558" lon="2.26775">
        <ele>41</ele>
        <time>2016-08-22T20:12:54.000Z</time>
      </trkpt>
      <trkpt lat="48.84568" lon="2.268">
        <ele>40.599998474121</ele>
        <time>2016-08-22T20:12:57.000Z</time>
      </trkpt>
      <trkpt lat="48.84578" lon="2.26825">
        <ele>39.599998474121</ele>
        <time>2016-08-22T20:13:00.000Z</time>
      </trkpt>
      <trkpt lat="48.84586" lon="2.26858">
        <ele>38.400001525879</ele>
        <time>2016-08-22T20:13:04.000Z</time>
      </trkpt>
      <trkpt lat="48.84596" lon="2.26884">
        <ele>37.799999237061</ele>
        <time>2016-08-22T20:13:07.000Z</time>
      </trkpt>
      <trkpt lat="48.84604" lon="2.26912">
        <ele>37</ele>
        <time>2016-08-22T20:13:10.000Z</time>
      </trkpt>
      <trkpt lat="48.84614" lon="2.26945">
        <ele>37.799999237061</ele>
        <time>2016-08-22T20:13:14.000Z</time>
      </trkpt>
      <trkpt lat="48.84621" lon="2.2697">
        <ele>38.599998474121</ele>
        <time>2016-08-22T20:13:17.000Z</time>
      </trkpt>
      <trkpt lat="48.84628" lon="2.27">
        <ele>39.599998474121</ele>
        <time>2016-08-22T20:13:21.000Z</time>
      </trkpt>
      <trkpt lat="48.84638" lon="2.27029">
        <ele>41.200000762939</ele>
        <time>2016-08-22T20:13:25.000Z</time>
      </trkpt>
      <trkpt lat="48.84639" lon="2.27041">
        <ele>42</ele>
        <time>2016-08-22T20:13:27.000Z</time>
      </trkpt>
      <trkpt lat="48.8464" lon="2.2705">
        <ele>42.400001525879</ele>
        <time>2016-08-22T20:13:29.000Z</time>
      </trkpt>
      <trkpt lat="48.84643" lon="2.27062">
        <ele>43.400001525879</ele>
        <time>2016-08-22T20:13:33.000Z</time>
      </trkpt>
      <trkpt lat="48.84653" lon="2.27088">
        <ele>44.799999237061</ele>
        <time>2016-08-22T20:13:39.000Z</time>
      </trkpt>
      <trkpt lat="48.84655" lon="2.27096">
        <ele>45</ele>
        <time>2016-08-22T20:13:41.000Z</time>
      </trkpt>
      <trkpt lat="48.84662" lon="2.27115">
        <ele>45.200000762939</ele>
        <time>2016-08-22T20:13:45.000Z</time>
      </trkpt>
      <trkpt lat="48.8467" lon="2.27134">
        <ele>45.799999237061</ele>
        <time>2016-08-22T20:13:48.000Z</time>
      </trkpt>
      <trkpt lat="48.84681" lon="2.27157">
        <ele>46.400001525879</ele>
        <time>2016-08-22T20:13:52.000Z</time>
      </trkpt>
      <trkpt lat="48.84695" lon="2.27181">
        <ele>46.599998474121</ele>
        <time>2016-08-22T20:13:56.000Z</time>
      </trkpt>
      <trkpt lat="48.84703" lon="2.27202">
        <ele>46.200000762939</ele>
        <time>2016-08-22T20:13:59.000Z</time>
      </trkpt>
      <trkpt lat="48.84707" lon="2.27219">
        <ele>45.799999237061</ele>
        <time>2016-08-22T20:14:01.000Z</time>
      </trkpt>
      <trkpt lat="48.84712" lon="2.27247">
        <ele>45.200000762939</ele>
        <time>2016-08-22T20:14:05.000Z</time>
      </trkpt>
      <trkpt lat="48.84719" lon="2.27281">
        <ele>44.599998474121</ele>
        <time>2016-08-22T20:14:10.000Z</time>
      </trkpt>
      <trkpt lat="48.84724" lon="2.27308">
        <ele>43.400001525879</ele>
        <time>2016-08-22T20:14:14.000Z</time>
      </trkpt>
      <trkpt lat="48.84727" lon="2.27313">
        <ele>43.200000762939</ele>
        <time>2016-08-22T20:14:15.000Z</time>
      </trkpt>
      <trkpt lat="48.84736" lon="2.27336">
        <ele>42.599998474121</ele>
        <time>2016-08-22T20:14:20.000Z</time>
      </trkpt>
      <trkpt lat="48.84728" lon="2.27367">
        <ele>41</ele>
        <time>2016-08-22T20:14:26.000Z</time>
      </trkpt>
      <trkpt lat="48.84728" lon="2.27372">
        <ele>40.799999237061</ele>
        <time>2016-08-22T20:14:28.000Z</time>
      </trkpt>
      <trkpt lat="48.84728" lon="2.27375">
        <ele>40.799999237061</ele>
        <time>2016-08-22T20:14:29.000Z</time>
      </trkpt>
      <trkpt lat="48.84732" lon="2.27385">
        <ele>40.799999237061</ele>
        <time>2016-08-22T20:14:32.000Z</time>
      </trkpt>
      <trkpt lat="48.84748" lon="2.274">
        <ele>41.200000762939</ele>
        <time>2016-08-22T20:14:37.000Z</time>
      </trkpt>
      <trkpt lat="48.84766" lon="2.27414">
        <ele>41.799999237061</ele>
        <time>2016-08-22T20:14:42.000Z</time>
      </trkpt>
      <trkpt lat="48.84783" lon="2.27432">
        <ele>42.799999237061</ele>
        <time>2016-08-22T20:14:47.000Z</time>
      </trkpt>
      <trkpt lat="48.84797" lon="2.2745">
        <ele>43.400001525879</ele>
        <time>2016-08-22T20:14:52.000Z</time>
      </trkpt>
      <trkpt lat="48.84812" lon="2.27468">
        <ele>44.200000762939</ele>
        <time>2016-08-22T20:14:57.000Z</time>
      </trkpt>
      <trkpt lat="48.8483" lon="2.27484">
        <ele>45</ele>
        <time>2016-08-22T20:15:01.000Z</time>
      </trkpt>
      <trkpt lat="48.84851" lon="2.27495">
        <ele>45.799999237061</ele>
        <time>2016-08-22T20:15:04.000Z</time>
      </trkpt>
      <trkpt lat="48.84871" lon="2.27508">
        <ele>46.200000762939</ele>
        <time>2016-08-22T20:15:08.000Z</time>
      </trkpt>
      <trkpt lat="48.84888" lon="2.27525">
        <ele>46.599998474121</ele>
        <time>2016-08-22T20:15:13.000Z</time>
      </trkpt>
      <trkpt lat="48.84907" lon="2.27535">
        <ele>47</ele>
        <time>2016-08-22T20:15:17.000Z</time>
      </trkpt>
      <trkpt lat="48.84924" lon="2.27547">
        <ele>47.200000762939</ele>
        <time>2016-08-22T20:15:21.000Z</time>
      </trkpt>
      <trkpt lat="48.8494" lon="2.27563">
        <ele>47.599998474121</ele>
        <time>2016-08-22T20:15:25.000Z</time>
      </trkpt>
      <trkpt lat="48.84962" lon="2.27577">
        <ele>46.599998474121</ele>
        <time>2016-08-22T20:15:29.000Z</time>
      </trkpt>
      <trkpt lat="48.84982" lon="2.27592">
        <ele>45.599998474121</ele>
        <time>2016-08-22T20:15:33.000Z</time>
      </trkpt>
      <trkpt lat="48.84997" lon="2.27604">
        <ele>44.799999237061</ele>
        <time>2016-08-22T20:15:36.000Z</time>
      </trkpt>
      <trkpt lat="48.85012" lon="2.27628">
        <ele>44.200000762939</ele>
        <time>2016-08-22T20:15:40.000Z</time>
      </trkpt>
      <trkpt lat="48.85026" lon="2.27652">
        <ele>43.599998474121</ele>
        <time>2016-08-22T20:15:44.000Z</time>
      </trkpt>
      <trkpt lat="48.85039" lon="2.27677">
        <ele>42.599998474121</ele>
        <time>2016-08-22T20:15:48.000Z</time>
      </trkpt>
      <trkpt lat="48.85051" lon="2.27702">
        <ele>40.799999237061</ele>
        <time>2016-08-22T20:15:52.000Z</time>
      </trkpt>
      <trkpt lat="48.85063" lon="2.27724">
        <ele>39</ele>
        <time>2016-08-22T20:15:56.000Z</time>
      </trkpt>
      <trkpt lat="48.85069" lon="2.27734">
        <ele>38</ele>
        <time>2016-08-22T20:15:58.000Z</time>
      </trkpt>
      <trkpt lat="48.85076" lon="2.27744">
        <ele>37.200000762939</ele>
        <time>2016-08-22T20:16:00.000Z</time>
      </trkpt>
      <trkpt lat="48.85086" lon="2.27772">
        <ele>37</ele>
        <time>2016-08-22T20:16:05.000Z</time>
      </trkpt>
      <trkpt lat="48.85099" lon="2.27793">
        <ele>37</ele>
        <time>2016-08-22T20:16:10.000Z</time>
      </trkpt>
      <trkpt lat="48.85101" lon="2.27813">
        <ele>37</ele>
        <time>2016-08-22T20:16:17.000Z</time>
      </trkpt>
      <trkpt lat="48.85106" lon="2.27821">
        <ele>37</ele>
        <time>2016-08-22T20:16:21.000Z</time>
      </trkpt>
      <trkpt lat="48.85112" lon="2.27828">
        <ele>37</ele>
        <time>2016-08-22T20:16:24.000Z</time>
      </trkpt>
      <trkpt lat="48.85124" lon="2.27847">
        <ele>36.799999237061</ele>
        <time>2016-08-22T20:16:36.000Z</time>
      </trkpt>
      <trkpt lat="48.85139" lon="2.27867">
        <ele>36.400001525879</ele>
        <time>2016-08-22T20:16:42.000Z</time>
      </trkpt>
      <trkpt lat="48.85153" lon="2.27891">
        <ele>35.599998474121</ele>
        <time>2016-08-22T20:16:47.000Z</time>
      </trkpt>
      <trkpt lat="48.85166" lon="2.27914">
        <ele>34.799999237061</ele>
        <time>2016-08-22T20:16:51.000Z</time>
      </trkpt>
      <trkpt lat="48.8518" lon="2.27939">
        <ele>34.200000762939</ele>
        <time>2016-08-22T20:16:55.000Z</time>
      </trkpt>
      <trkpt lat="48.85193" lon="2.27962">
        <ele>34</ele>
        <time>2016-08-22T20:16:59.000Z</time>
      </trkpt>
      <trkpt lat="48.8521" lon="2.27984">
        <ele>33.799999237061</ele>
        <time>2016-08-22T20:17:03.000Z</time>
      </trkpt>
      <trkpt lat="48.85224" lon="2.28">
        <ele>33.799999237061</ele>
        <time>2016-08-22T20:17:06.000Z</time>
      </trkpt>
      <trkpt lat="48.85242" lon="2.28024">
        <ele>33.599998474121</ele>
        <time>2016-08-22T20:17:10.000Z</time>
      </trkpt>
      <trkpt lat="48.85255" lon="2.28043">
        <ele>33.200000762939</ele>
        <time>2016-08-22T20:17:13.000Z</time>
      </trkpt>
      <trkpt lat="48.85271" lon="2.28066">
        <ele>32.599998474121</ele>
        <time>2016-08-22T20:17:17.000Z</time>
      </trkpt>
      <trkpt lat="48.85283" lon="2.28086">
        <ele>33.599998474121</ele>
        <time>2016-08-22T20:17:20.000Z</time>
      </trkpt>
      <trkpt lat="48.85296" lon="2.28112">
        <ele>34.200000762939</ele>
        <time>2016-08-22T20:17:24.000Z</time>
      </trkpt>
      <trkpt lat="48.85301" lon="2.28123">
        <ele>34.599998474121</ele>
        <time>2016-08-22T20:17:26.000Z</time>
      </trkpt>
      <trkpt lat="48.85313" lon="2.28147">
        <ele>35.599998474121</ele>
        <time>2016-08-22T20:17:30.000Z</time>
      </trkpt>
      <trkpt lat="48.85325" lon="2.28171">
        <ele>35.799999237061</ele>
        <time>2016-08-22T20:17:34.000Z</time>
      </trkpt>
      <trkpt lat="48.8534" lon="2.28194">
        <ele>35</ele>
        <time>2016-08-22T20:17:38.000Z</time>
      </trkpt>
      <trkpt lat="48.85354" lon="2.28216">
        <ele>34</ele>
        <time>2016-08-22T20:17:42.000Z</time>
      </trkpt>
      <trkpt lat="48.85366" lon="2.28238">
        <ele>32.599998474121</ele>
        <time>2016-08-22T20:17:46.000Z</time>
      </trkpt>
      <trkpt lat="48.85378" lon="2.28262">
        <ele>32.799999237061</ele>
        <time>2016-08-22T20:17:50.000Z</time>
      </trkpt>
      <trkpt lat="48.85392" lon="2.28282">
        <ele>34</ele>
        <time>2016-08-22T20:17:53.000Z</time>
      </trkpt>
      <trkpt lat="48.85406" lon="2.28302">
        <ele>34.799999237061</ele>
        <time>2016-08-22T20:17:57.000Z</time>
      </trkpt>
      <trkpt lat="48.85419" lon="2.28323">
        <ele>35.400001525879</ele>
        <time>2016-08-22T20:18:01.000Z</time>
      </trkpt>
      <trkpt lat="48.85437" lon="2.28342">
        <ele>37.200000762939</ele>
        <time>2016-08-22T20:18:05.000Z</time>
      </trkpt>
      <trkpt lat="48.85455" lon="2.28362">
        <ele>39</ele>
        <time>2016-08-22T20:18:09.000Z</time>
      </trkpt>
      <trkpt lat="48.85472" lon="2.28382">
        <ele>40.400001525879</ele>
        <time>2016-08-22T20:18:13.000Z</time>
      </trkpt>
      <trkpt lat="48.8549" lon="2.28402">
        <ele>42</ele>
        <time>2016-08-22T20:18:17.000Z</time>
      </trkpt>
      <trkpt lat="48.85507" lon="2.28423">
        <ele>43.200000762939</ele>
        <time>2016-08-22T20:18:21.000Z</time>
      </trkpt>
      <trkpt lat="48.85525" lon="2.28445">
        <ele>43.799999237061</ele>
        <time>2016-08-22T20:18:25.000Z</time>
      </trkpt>
      <trkpt lat="48.85538" lon="2.28462">
        <ele>42.599998474121</ele>
        <time>2016-08-22T20:18:28.000Z</time>
      </trkpt>
      <trkpt lat="48.85552" lon="2.28484">
        <ele>41.200000762939</ele>
        <time>2016-08-22T20:18:32.000Z</time>
      </trkpt>
      <trkpt lat="48.85567" lon="2.28506">
        <ele>40.400001525879</ele>
        <time>2016-08-22T20:18:36.000Z</time>
      </trkpt>
      <trkpt lat="48.85583" lon="2.28526">
        <ele>40</ele>
        <time>2016-08-22T20:18:40.000Z</time>
      </trkpt>
      <trkpt lat="48.85598" lon="2.28546">
        <ele>39.799999237061</ele>
        <time>2016-08-22T20:18:44.000Z</time>
      </trkpt>
      <trkpt lat="48.85612" lon="2.28566">
        <ele>40</ele>
        <time>2016-08-22T20:18:48.000Z</time>
      </trkpt>
      <trkpt lat="48.85621" lon="2.28573">
        <ele>40.799999237061</ele>
        <time>2016-08-22T20:18:50.000Z</time>
      </trkpt>
      <trkpt lat="48.85639" lon="2.28592">
        <ele>41.599998474121</ele>
        <time>2016-08-22T20:18:54.000Z</time>
      </trkpt>
      <trkpt lat="48.85654" lon="2.28611">
        <ele>42</ele>
        <time>2016-08-22T20:18:58.000Z</time>
      </trkpt>
      <trkpt lat="48.85668" lon="2.28629">
        <ele>42.200000762939</ele>
        <time>2016-08-22T20:19:02.000Z</time>
      </trkpt>
      <trkpt lat="48.85672" lon="2.28634">
        <ele>42.200000762939</ele>
        <time>2016-08-22T20:19:03.000Z</time>
      </trkpt>
      <trkpt lat="48.85682" lon="2.28644">
        <ele>42.599998474121</ele>
        <time>2016-08-22T20:19:06.000Z</time>
      </trkpt>
      <trkpt lat="48.85698" lon="2.28661">
        <ele>43.599998474121</ele>
        <time>2016-08-22T20:19:10.000Z</time>
      </trkpt>
      <trkpt lat="48.85705" lon="2.2867">
        <ele>43.799999237061</ele>
        <time>2016-08-22T20:19:12.000Z</time>
      </trkpt>
      <trkpt lat="48.85713" lon="2.28681">
        <ele>43.799999237061</ele>
        <time>2016-08-22T20:19:14.000Z</time>
      </trkpt>
      <trkpt lat="48.85728" lon="2.28702">
        <ele>43.799999237061</ele>
        <time>2016-08-22T20:19:18.000Z</time>
      </trkpt>
      <trkpt lat="48.85743" lon="2.28724">
        <ele>43.799999237061</ele>
        <time>2016-08-22T20:19:23.000Z</time>
      </trkpt>
      <trkpt lat="48.85756" lon="2.28738">
        <ele>44.200000762939</ele>
        <time>2016-08-22T20:19:26.000Z</time>
      </trkpt>
      <trkpt lat="48.85772" lon="2.28754">
        <ele>44.599998474121</ele>
        <time>2016-08-22T20:19:31.000Z</time>
      </trkpt>
      <trkpt lat="48.85773" lon="2.28761">
        <ele>43.599998474121</ele>
        <time>2016-08-22T20:19:33.000Z</time>
      </trkpt>
      <trkpt lat="48.85802" lon="2.28807">
        <ele>39.400001525879</ele>
        <time>2016-08-22T20:19:47.000Z</time>
      </trkpt>
      <trkpt lat="48.85802" lon="2.28811">
        <ele>38.599998474121</ele>
        <time>2016-08-22T20:19:48.000Z</time>
      </trkpt>
      <trkpt lat="48.85797" lon="2.28826">
        <ele>35</ele>
        <time>2016-08-22T20:19:51.000Z</time>
      </trkpt>
      <trkpt lat="48.85801" lon="2.2883">
        <ele>35.200000762939</ele>
        <time>2016-08-22T20:19:53.000Z</time>
      </trkpt>
      <trkpt lat="48.85819" lon="2.28846">
        <ele>35.599998474121</ele>
        <time>2016-08-22T20:20:00.000Z</time>
      </trkpt>
      <trkpt lat="48.85831" lon="2.2887">
        <ele>34.400001525879</ele>
        <time>2016-08-22T20:20:07.000Z</time>
      </trkpt>
      <trkpt lat="48.85845" lon="2.28889">
        <ele>34.200000762939</ele>
        <time>2016-08-22T20:20:13.000Z</time>
      </trkpt>
      <trkpt lat="48.85862" lon="2.28909">
        <ele>34</ele>
        <time>2016-08-22T20:20:20.000Z</time>
      </trkpt>
      <trkpt lat="48.85881" lon="2.28924">
        <ele>34.200000762939</ele>
        <time>2016-08-22T20:20:25.000Z</time>
      </trkpt>
      <trkpt lat="48.85897" lon="2.28943">
        <ele>34</ele>
        <time>2016-08-22T20:20:31.000Z</time>
      </trkpt>
      <trkpt lat="48.85911" lon="2.28963">
        <ele>33.599998474121</ele>
        <time>2016-08-22T20:20:36.000Z</time>
      </trkpt>
      <trkpt lat="48.85925" lon="2.28984">
        <ele>32.799999237061</ele>
        <time>2016-08-22T20:20:41.000Z</time>
      </trkpt>
      <trkpt lat="48.85941" lon="2.29001">
        <ele>32.799999237061</ele>
        <time>2016-08-22T20:20:46.000Z</time>
      </trkpt>
      <trkpt lat="48.85956" lon="2.2902">
        <ele>32.799999237061</ele>
        <time>2016-08-22T20:20:51.000Z</time>
      </trkpt>
      <trkpt lat="48.85971" lon="2.29038">
        <ele>32.599998474121</ele>
        <time>2016-08-22T20:20:57.000Z</time>
      </trkpt>
      <trkpt lat="48.85987" lon="2.29058">
        <ele>32.400001525879</ele>
        <time>2016-08-22T20:21:03.000Z</time>
      </trkpt>
      <trkpt lat="48.85998" lon="2.29079">
        <ele>32.200000762939</ele>
        <time>2016-08-22T20:21:12.000Z</time>
      </trkpt>
      <trkpt lat="48.86013" lon="2.29096">
        <ele>31.60000038147</ele>
        <time>2016-08-22T20:21:23.000Z</time>
      </trkpt>
      <trkpt lat="48.86024" lon="2.29115">
        <ele>31</ele>
        <time>2016-08-22T20:21:30.000Z</time>
      </trkpt>
      <trkpt lat="48.86014" lon="2.29121">
        <ele>30.200000762939</ele>
        <time>2016-08-22T20:23:02.000Z</time>
      </trkpt>
      <trkpt lat="48.86022" lon="2.29127">
        <ele>30.200000762939</ele>
        <time>2016-08-22T20:23:09.000Z</time>
      </trkpt>
      <trkpt lat="48.86031" lon="2.29131">
        <ele>30.39999961853</ele>
        <time>2016-08-22T20:23:14.000Z</time>
      </trkpt>
      <trkpt lat="48.86051" lon="2.29143">
        <ele>30.60000038147</ele>
        <time>2016-08-22T20:23:21.000Z</time>
      </trkpt>
      <trkpt lat="48.86065" lon="2.2916">
        <ele>30.200000762939</ele>
        <time>2016-08-22T20:23:26.000Z</time>
      </trkpt>
      <trkpt lat="48.86081" lon="2.29175">
        <ele>30.60000038147</ele>
        <time>2016-08-22T20:23:32.000Z</time>
      </trkpt>
      <trkpt lat="48.86091" lon="2.29198">
        <ele>30.799999237061</ele>
        <time>2016-08-22T20:23:43.000Z</time>
      </trkpt>
      <trkpt lat="48.86104" lon="2.29217">
        <ele>31.200000762939</ele>
        <time>2016-08-22T20:23:51.000Z</time>
      </trkpt>
      <trkpt lat="48.86119" lon="2.2924">
        <ele>31.799999237061</ele>
        <time>2016-08-22T20:23:57.000Z</time>
      </trkpt>
      <trkpt lat="48.86133" lon="2.29258">
        <ele>31.799999237061</ele>
        <time>2016-08-22T20:24:03.000Z</time>
      </trkpt>
      <trkpt lat="48.8615" lon="2.29276">
        <ele>31.60000038147</ele>
        <time>2016-08-22T20:24:10.000Z</time>
      </trkpt>
      <trkpt lat="48.86165" lon="2.29296">
        <ele>31</ele>
        <time>2016-08-22T20:24:15.000Z</time>
      </trkpt>
      <trkpt lat="48.86178" lon="2.29315">
        <ele>30.39999961853</ele>
        <time>2016-08-22T20:24:19.000Z</time>
      </trkpt>
      <trkpt lat="48.86194" lon="2.29334">
        <ele>30.39999961853</ele>
        <time>2016-08-22T20:24:23.000Z</time>
      </trkpt>
      <trkpt lat="48.86207" lon="2.29354">
        <ele>31.39999961853</ele>
        <time>2016-08-22T20:24:27.000Z</time>
      </trkpt>
      <trkpt lat="48.86223" lon="2.29374">
        <ele>32.799999237061</ele>
        <time>2016-08-22T20:24:31.000Z</time>
      </trkpt>
      <trkpt lat="48.86235" lon="2.29399">
        <ele>33.799999237061</ele>
        <time>2016-08-22T20:24:36.000Z</time>
      </trkpt>
      <trkpt lat="48.86243" lon="2.29412">
        <ele>34.599998474121</ele>
        <time>2016-08-22T20:24:39.000Z</time>
      </trkpt>
      <trkpt lat="48.86252" lon="2.29431">
        <ele>34.400001525879</ele>
        <time>2016-08-22T20:24:43.000Z</time>
      </trkpt>
      <trkpt lat="48.86259" lon="2.29444">
        <ele>34.400001525879</ele>
        <time>2016-08-22T20:24:46.000Z</time>
      </trkpt>
      <trkpt lat="48.86269" lon="2.29473">
        <ele>33.799999237061</ele>
        <time>2016-08-22T20:24:51.000Z</time>
      </trkpt>
      <trkpt lat="48.86277" lon="2.29498">
        <ele>33.200000762939</ele>
        <time>2016-08-22T20:24:55.000Z</time>
      </trkpt>
      <trkpt lat="48.86286" lon="2.29525">
        <ele>33</ele>
        <time>2016-08-22T20:25:00.000Z</time>
      </trkpt>
      <trkpt lat="48.86288" lon="2.29535">
        <ele>32.799999237061</ele>
        <time>2016-08-22T20:25:02.000Z</time>
      </trkpt>
      <trkpt lat="48.86298" lon="2.29562">
        <ele>32.599998474121</ele>
        <time>2016-08-22T20:25:07.000Z</time>
      </trkpt>
      <trkpt lat="48.8631" lon="2.29588">
        <ele>32.599998474121</ele>
        <time>2016-08-22T20:25:12.000Z</time>
      </trkpt>
      <trkpt lat="48.86318" lon="2.29612">
        <ele>32.799999237061</ele>
        <time>2016-08-22T20:25:17.000Z</time>
      </trkpt>
      <trkpt lat="48.86323" lon="2.29634">
        <ele>32.599998474121</ele>
        <time>2016-08-22T20:25:24.000Z</time>
      </trkpt>
      <trkpt lat="48.86332" lon="2.29659">
        <ele>32.200000762939</ele>
        <time>2016-08-22T20:25:30.000Z</time>
      </trkpt>
      <trkpt lat="48.86337" lon="2.29671">
        <ele>32.400001525879</ele>
        <time>2016-08-22T20:25:34.000Z</time>
      </trkpt>
      <trkpt lat="48.86339" lon="2.29687">
        <ele>32.599998474121</ele>
        <time>2016-08-22T20:25:38.000Z</time>
      </trkpt>
      <trkpt lat="48.86344" lon="2.29719">
        <ele>33</ele>
        <time>2016-08-22T20:25:44.000Z</time>
      </trkpt>
      <trkpt lat="48.86351" lon="2.2975">
        <ele>33.400001525879</ele>
        <time>2016-08-22T20:25:50.000Z</time>
      </trkpt>
      <trkpt lat="48.86355" lon="2.2978">
        <ele>33.599998474121</ele>
        <time>2016-08-22T20:25:56.000Z</time>
      </trkpt>
      <trkpt lat="48.8636" lon="2.29811">
        <ele>33.599998474121</ele>
        <time>2016-08-22T20:26:01.000Z</time>
      </trkpt>
      <trkpt lat="48.86368" lon="2.29839">
        <ele>34.400001525879</ele>
        <time>2016-08-22T20:26:05.000Z</time>
      </trkpt>
      <trkpt lat="48.86373" lon="2.29866">
        <ele>34.799999237061</ele>
        <time>2016-08-22T20:26:09.000Z</time>
      </trkpt>
      <trkpt lat="48.86379" lon="2.29897">
        <ele>35</ele>
        <time>2016-08-22T20:26:13.000Z</time>
      </trkpt>
      <trkpt lat="48.86382" lon="2.29911">
        <ele>35</ele>
        <time>2016-08-22T20:26:15.000Z</time>
      </trkpt>
      <trkpt lat="48.86383" lon="2.29924">
        <ele>36</ele>
        <time>2016-08-22T20:26:17.000Z</time>
      </trkpt>
      <trkpt lat="48.86388" lon="2.29952">
        <ele>38.599998474121</ele>
        <time>2016-08-22T20:26:21.000Z</time>
      </trkpt>
      <trkpt lat="48.86393" lon="2.29981">
        <ele>41.599998474121</ele>
        <time>2016-08-22T20:26:25.000Z</time>
      </trkpt>
      <trkpt lat="48.86397" lon="2.3001">
        <ele>41.200000762939</ele>
        <time>2016-08-22T20:26:29.000Z</time>
      </trkpt>
      <trkpt lat="48.86401" lon="2.30032">
        <ele>38</ele>
        <time>2016-08-22T20:26:33.000Z</time>
      </trkpt>
      <trkpt lat="48.86404" lon="2.30051">
        <ele>35.799999237061</ele>
        <time>2016-08-22T20:26:37.000Z</time>
      </trkpt>
      <trkpt lat="48.86404" lon="2.30056">
        <ele>35.400001525879</ele>
        <time>2016-08-22T20:26:38.000Z</time>
      </trkpt>
      <trkpt lat="48.86405" lon="2.30065">
        <ele>34.599998474121</ele>
        <time>2016-08-22T20:26:40.000Z</time>
      </trkpt>
      <trkpt lat="48.86407" lon="2.30076">
        <ele>33.599998474121</ele>
        <time>2016-08-22T20:26:43.000Z</time>
      </trkpt>
      <trkpt lat="48.86409" lon="2.30087">
        <ele>32.400001525879</ele>
        <time>2016-08-22T20:26:46.000Z</time>
      </trkpt>
      <trkpt lat="48.86412" lon="2.3011">
        <ele>29.200000762939</ele>
        <time>2016-08-22T20:26:52.000Z</time>
      </trkpt>
      <trkpt lat="48.86411" lon="2.30138">
        <ele>25.60000038147</ele>
        <time>2016-08-22T20:27:00.000Z</time>
      </trkpt>
      <trkpt lat="48.86411" lon="2.30139">
        <ele>25.60000038147</ele>
        <time>2016-08-22T20:27:01.000Z</time>
      </trkpt>
      <trkpt lat="48.86413" lon="2.30164">
        <ele>25</ele>
        <time>2016-08-22T20:28:05.000Z</time>
      </trkpt>
      <trkpt lat="48.86414" lon="2.30166">
        <ele>25</ele>
        <time>2016-08-22T20:28:06.000Z</time>
      </trkpt>
      <trkpt lat="48.86418" lon="2.30178">
        <ele>25.60000038147</ele>
        <time>2016-08-22T20:28:10.000Z</time>
      </trkpt>
      <trkpt lat="48.86422" lon="2.302">
        <ele>26.799999237061</ele>
        <time>2016-08-22T20:28:18.000Z</time>
      </trkpt>
      <trkpt lat="48.86427" lon="2.30214">
        <ele>27.39999961853</ele>
        <time>2016-08-22T20:29:07.000Z</time>
      </trkpt>
      <trkpt lat="48.86426" lon="2.30242">
        <ele>28.799999237061</ele>
        <time>2016-08-22T20:29:12.000Z</time>
      </trkpt>
      <trkpt lat="48.86426" lon="2.3027">
        <ele>29.799999237061</ele>
        <time>2016-08-22T20:29:16.000Z</time>
      </trkpt>
      <trkpt lat="48.86426" lon="2.30301">
        <ele>31</ele>
        <time>2016-08-22T20:29:20.000Z</time>
      </trkpt>
      <trkpt lat="48.86427" lon="2.30335">
        <ele>31.39999961853</ele>
        <time>2016-08-22T20:29:24.000Z</time>
      </trkpt>
      <trkpt lat="48.86428" lon="2.30368">
        <ele>31.799999237061</ele>
        <time>2016-08-22T20:29:28.000Z</time>
      </trkpt>
      <trkpt lat="48.86432" lon="2.30399">
        <ele>32.400001525879</ele>
        <time>2016-08-22T20:29:32.000Z</time>
      </trkpt>
      <trkpt lat="48.86437" lon="2.30431">
        <ele>32.400001525879</ele>
        <time>2016-08-22T20:29:36.000Z</time>
      </trkpt>
      <trkpt lat="48.86441" lon="2.30464">
        <ele>32</ele>
        <time>2016-08-22T20:29:40.000Z</time>
      </trkpt>
      <trkpt lat="48.86441" lon="2.30491">
        <ele>31.39999961853</ele>
        <time>2016-08-22T20:29:43.000Z</time>
      </trkpt>
      <trkpt lat="48.86439" lon="2.30524">
        <ele>31.200000762939</ele>
        <time>2016-08-22T20:29:47.000Z</time>
      </trkpt>
      <trkpt lat="48.86439" lon="2.30553">
        <ele>31.60000038147</ele>
        <time>2016-08-22T20:29:51.000Z</time>
      </trkpt>
      <trkpt lat="48.86439" lon="2.30584">
        <ele>32</ele>
        <time>2016-08-22T20:29:55.000Z</time>
      </trkpt>
      <trkpt lat="48.86439" lon="2.30613">
        <ele>32.799999237061</ele>
        <time>2016-08-22T20:29:59.000Z</time>
      </trkpt>
      <trkpt lat="48.86438" lon="2.30643">
        <ele>33.400001525879</ele>
        <time>2016-08-22T20:30:03.000Z</time>
      </trkpt>
      <trkpt lat="48.86438" lon="2.30676">
        <ele>33.599998474121</ele>
        <time>2016-08-22T20:30:07.000Z</time>
      </trkpt>
      <trkpt lat="48.86439" lon="2.30705">
        <ele>33</ele>
        <time>2016-08-22T20:30:11.000Z</time>
      </trkpt>
      <trkpt lat="48.86439" lon="2.3074">
        <ele>32.200000762939</ele>
        <time>2016-08-22T20:30:15.000Z</time>
      </trkpt>
      <trkpt lat="48.86439" lon="2.30768">
        <ele>32</ele>
        <time>2016-08-22T20:30:18.000Z</time>
      </trkpt>
      <trkpt lat="48.8644" lon="2.308">
        <ele>32</ele>
        <time>2016-08-22T20:30:21.000Z</time>
      </trkpt>
      <trkpt lat="48.86442" lon="2.30835">
        <ele>32.200000762939</ele>
        <time>2016-08-22T20:30:24.000Z</time>
      </trkpt>
      <trkpt lat="48.86442" lon="2.30862">
        <ele>31.60000038147</ele>
        <time>2016-08-22T20:30:27.000Z</time>
      </trkpt>
      <trkpt lat="48.86443" lon="2.3089">
        <ele>31</ele>
        <time>2016-08-22T20:30:30.000Z</time>
      </trkpt>
      <trkpt lat="48.86445" lon="2.30918">
        <ele>30.60000038147</ele>
        <time>2016-08-22T20:30:33.000Z</time>
      </trkpt>
      <trkpt lat="48.86446" lon="2.30952">
        <ele>30.799999237061</ele>
        <time>2016-08-22T20:30:37.000Z</time>
      </trkpt>
      <trkpt lat="48.86448" lon="2.30983">
        <ele>31.200000762939</ele>
        <time>2016-08-22T20:30:41.000Z</time>
      </trkpt>
      <trkpt lat="48.86448" lon="2.30997">
        <ele>31</ele>
        <time>2016-08-22T20:30:43.000Z</time>
      </trkpt>
      <trkpt lat="48.86444" lon="2.31026">
        <ele>29.39999961853</ele>
        <time>2016-08-22T20:30:50.000Z</time>
      </trkpt>
      <trkpt lat="48.8645" lon="2.31055">
        <ele>29</ele>
        <time>2016-08-22T20:30:58.000Z</time>
      </trkpt>
      <trkpt lat="48.8645" lon="2.31059">
        <ele>29</ele>
        <time>2016-08-22T20:30:59.000Z</time>
      </trkpt>
      <trkpt lat="48.8645" lon="2.3108">
        <ele>28.200000762939</ele>
        <time>2016-08-22T20:31:03.000Z</time>
      </trkpt>
      <trkpt lat="48.8645" lon="2.31114">
        <ele>28.200000762939</ele>
        <time>2016-08-22T20:31:08.000Z</time>
      </trkpt>
      <trkpt lat="48.86449" lon="2.31142">
        <ele>28.200000762939</ele>
        <time>2016-08-22T20:31:12.000Z</time>
      </trkpt>
      <trkpt lat="48.86448" lon="2.31174">
        <ele>28.799999237061</ele>
        <time>2016-08-22T20:31:16.000Z</time>
      </trkpt>
      <trkpt lat="48.86449" lon="2.31204">
        <ele>31.60000038147</ele>
        <time>2016-08-22T20:31:20.000Z</time>
      </trkpt>
      <trkpt lat="48.8645" lon="2.31235">
        <ele>34.799999237061</ele>
        <time>2016-08-22T20:31:24.000Z</time>
      </trkpt>
      <trkpt lat="48.86451" lon="2.31265">
        <ele>36</ele>
        <time>2016-08-22T20:31:28.000Z</time>
      </trkpt>
      <trkpt lat="48.86451" lon="2.31293">
        <ele>35</ele>
        <time>2016-08-22T20:31:32.000Z</time>
      </trkpt>
      <trkpt lat="48.86451" lon="2.31301">
        <ele>34.599998474121</ele>
        <time>2016-08-22T20:31:33.000Z</time>
      </trkpt>
      <trkpt lat="48.86449" lon="2.31332">
        <ele>33</ele>
        <time>2016-08-22T20:31:38.000Z</time>
      </trkpt>
      <trkpt lat="48.86448" lon="2.31338">
        <ele>32.599998474121</ele>
        <time>2016-08-22T20:31:39.000Z</time>
      </trkpt>
      <trkpt lat="48.86444" lon="2.31364">
        <ele>31.60000038147</ele>
        <time>2016-08-22T20:31:53.000Z</time>
      </trkpt>
      <trkpt lat="48.86451" lon="2.31389">
        <ele>31.60000038147</ele>
        <time>2016-08-22T20:32:00.000Z</time>
      </trkpt>
      <trkpt lat="48.86462" lon="2.31414">
        <ele>31.799999237061</ele>
        <time>2016-08-22T20:32:05.000Z</time>
      </trkpt>
      <trkpt lat="48.86463" lon="2.3142">
        <ele>32.400001525879</ele>
        <time>2016-08-22T20:32:06.000Z</time>
      </trkpt>
      <trkpt lat="48.86464" lon="2.31448">
        <ele>34</ele>
        <time>2016-08-22T20:32:10.000Z</time>
      </trkpt>
      <trkpt lat="48.86464" lon="2.3148">
        <ele>33.599998474121</ele>
        <time>2016-08-22T20:32:14.000Z</time>
      </trkpt>
      <trkpt lat="48.86464" lon="2.31513">
        <ele>31.60000038147</ele>
        <time>2016-08-22T20:32:18.000Z</time>
      </trkpt>
      <trkpt lat="48.86464" lon="2.31544">
        <ele>30</ele>
        <time>2016-08-22T20:32:22.000Z</time>
      </trkpt>
      <trkpt lat="48.86463" lon="2.31578">
        <ele>28.60000038147</ele>
        <time>2016-08-22T20:32:26.000Z</time>
      </trkpt>
      <trkpt lat="48.86464" lon="2.31606">
        <ele>27</ele>
        <time>2016-08-22T20:32:29.000Z</time>
      </trkpt>
      <trkpt lat="48.86465" lon="2.31641">
        <ele>27</ele>
        <time>2016-08-22T20:32:33.000Z</time>
      </trkpt>
      <trkpt lat="48.86465" lon="2.31668">
        <ele>27.200000762939</ele>
        <time>2016-08-22T20:32:36.000Z</time>
      </trkpt>
      <trkpt lat="48.86465" lon="2.31702">
        <ele>30.799999237061</ele>
        <time>2016-08-22T20:32:40.000Z</time>
      </trkpt>
      <trkpt lat="48.86467" lon="2.31735">
        <ele>36.599998474121</ele>
        <time>2016-08-22T20:32:44.000Z</time>
      </trkpt>
      <trkpt lat="48.86468" lon="2.31768">
        <ele>38.599998474121</ele>
        <time>2016-08-22T20:32:48.000Z</time>
      </trkpt>
      <trkpt lat="48.86467" lon="2.31788">
        <ele>37.400001525879</ele>
        <time>2016-08-22T20:32:51.000Z</time>
      </trkpt>
      <trkpt lat="48.86468" lon="2.31818">
        <ele>34.599998474121</ele>
        <time>2016-08-22T20:32:55.000Z</time>
      </trkpt>
      <trkpt lat="48.86468" lon="2.31825">
        <ele>33.799999237061</ele>
        <time>2016-08-22T20:32:56.000Z</time>
      </trkpt>
      <trkpt lat="48.86457" lon="2.31849">
        <ele>32.400001525879</ele>
        <time>2016-08-22T20:33:00.000Z</time>
      </trkpt>
      <trkpt lat="48.86451" lon="2.31859">
        <ele>31.60000038147</ele>
        <time>2016-08-22T20:33:02.000Z</time>
      </trkpt>
      <trkpt lat="48.86449" lon="2.31863">
        <ele>31.200000762939</ele>
        <time>2016-08-22T20:33:03.000Z</time>
      </trkpt>
      <trkpt lat="48.86442" lon="2.31883">
        <ele>29.39999961853</ele>
        <time>2016-08-22T20:33:07.000Z</time>
      </trkpt>
      <trkpt lat="48.8644" lon="2.31888">
        <ele>28.799999237061</ele>
        <time>2016-08-22T20:33:08.000Z</time>
      </trkpt>
      <trkpt lat="48.86434" lon="2.31913">
        <ele>27.200000762939</ele>
        <time>2016-08-22T20:33:13.000Z</time>
      </trkpt>
      <trkpt lat="48.86429" lon="2.31938">
        <ele>27.799999237061</ele>
        <time>2016-08-22T20:33:18.000Z</time>
      </trkpt>
      <trkpt lat="48.86421" lon="2.31963">
        <ele>28.60000038147</ele>
        <time>2016-08-22T20:33:23.000Z</time>
      </trkpt>
      <trkpt lat="48.86411" lon="2.31987">
        <ele>29</ele>
        <time>2016-08-22T20:33:30.000Z</time>
      </trkpt>
      <trkpt lat="48.8641" lon="2.31989">
        <ele>29</ele>
        <time>2016-08-22T20:33:32.000Z</time>
      </trkpt>
      <trkpt lat="48.86404" lon="2.32009">
        <ele>29.60000038147</ele>
        <time>2016-08-22T20:34:23.000Z</time>
      </trkpt>
      <trkpt lat="48.86399" lon="2.3203">
        <ele>30.200000762939</ele>
        <time>2016-08-22T20:34:32.000Z</time>
      </trkpt>
      <trkpt lat="48.8639" lon="2.32054">
        <ele>30</ele>
        <time>2016-08-22T20:34:42.000Z</time>
      </trkpt>
      <trkpt lat="48.8638" lon="2.32079">
        <ele>29.39999961853</ele>
        <time>2016-08-22T20:34:52.000Z</time>
      </trkpt>
      <trkpt lat="48.86375" lon="2.32105">
        <ele>29.799999237061</ele>
        <time>2016-08-22T20:34:59.000Z</time>
      </trkpt>
      <trkpt lat="48.86372" lon="2.32119">
        <ele>29.799999237061</ele>
        <time>2016-08-22T20:35:05.000Z</time>
      </trkpt>
      <trkpt lat="48.86365" lon="2.32155">
        <ele>29.60000038147</ele>
        <time>2016-08-22T20:35:35.000Z</time>
      </trkpt>
      <trkpt lat="48.86362" lon="2.32164">
        <ele>29.39999961853</ele>
        <time>2016-08-22T20:35:36.000Z</time>
      </trkpt>
      <trkpt lat="48.86352" lon="2.32196">
        <ele>30.39999961853</ele>
        <time>2016-08-22T20:35:39.000Z</time>
      </trkpt>
      <trkpt lat="48.8634" lon="2.32231">
        <ele>31.799999237061</ele>
        <time>2016-08-22T20:35:42.000Z</time>
      </trkpt>
      <trkpt lat="48.86332" lon="2.32256">
        <ele>31.799999237061</ele>
        <time>2016-08-22T20:35:44.000Z</time>
      </trkpt>
      <trkpt lat="48.86323" lon="2.3228">
        <ele>31</ele>
        <time>2016-08-22T20:35:46.000Z</time>
      </trkpt>
      <trkpt lat="48.86316" lon="2.32306">
        <ele>30.60000038147</ele>
        <time>2016-08-22T20:35:48.000Z</time>
      </trkpt>
      <trkpt lat="48.86312" lon="2.32318">
        <ele>30.39999961853</ele>
        <time>2016-08-22T20:35:49.000Z</time>
      </trkpt>
      <trkpt lat="48.86303" lon="2.32343">
        <ele>30</ele>
        <time>2016-08-22T20:35:51.000Z</time>
      </trkpt>
      <trkpt lat="48.86295" lon="2.3237">
        <ele>29.39999961853</ele>
        <time>2016-08-22T20:35:53.000Z</time>
      </trkpt>
      <trkpt lat="48.86286" lon="2.32394">
        <ele>28.200000762939</ele>
        <time>2016-08-22T20:35:55.000Z</time>
      </trkpt>
      <trkpt lat="48.86275" lon="2.32429">
        <ele>27.39999961853</ele>
        <time>2016-08-22T20:35:58.000Z</time>
      </trkpt>
      <trkpt lat="48.86267" lon="2.32459">
        <ele>28</ele>
        <time>2016-08-22T20:36:01.000Z</time>
      </trkpt>
      <trkpt lat="48.86258" lon="2.32492">
        <ele>28.799999237061</ele>
        <time>2016-08-22T20:36:05.000Z</time>
      </trkpt>
      <trkpt lat="48.86251" lon="2.32507">
        <ele>29.200000762939</ele>
        <time>2016-08-22T20:36:07.000Z</time>
      </trkpt>
      <trkpt lat="48.86242" lon="2.32535">
        <ele>30</ele>
        <time>2016-08-22T20:36:11.000Z</time>
      </trkpt>
      <trkpt lat="48.86235" lon="2.32558">
        <ele>30.200000762939</ele>
        <time>2016-08-22T20:36:14.000Z</time>
      </trkpt>
      <trkpt lat="48.86228" lon="2.32584">
        <ele>30.60000038147</ele>
        <time>2016-08-22T20:36:17.000Z</time>
      </trkpt>
      <trkpt lat="48.8622" lon="2.32612">
        <ele>31</ele>
        <time>2016-08-22T20:36:20.000Z</time>
      </trkpt>
      <trkpt lat="48.86211" lon="2.3264">
        <ele>30.200000762939</ele>
        <time>2016-08-22T20:36:23.000Z</time>
      </trkpt>
      <trkpt lat="48.86203" lon="2.3267">
        <ele>29.60000038147</ele>
        <time>2016-08-22T20:36:26.000Z</time>
      </trkpt>
      <trkpt lat="48.86193" lon="2.32702">
        <ele>30.39999961853</ele>
        <time>2016-08-22T20:36:29.000Z</time>
      </trkpt>
      <trkpt lat="48.86182" lon="2.32735">
        <ele>31.60000038147</ele>
        <time>2016-08-22T20:36:32.000Z</time>
      </trkpt>
      <trkpt lat="48.86171" lon="2.32768">
        <ele>31.799999237061</ele>
        <time>2016-08-22T20:36:35.000Z</time>
      </trkpt>
      <trkpt lat="48.8616" lon="2.328">
        <ele>32.799999237061</ele>
        <time>2016-08-22T20:36:38.000Z</time>
      </trkpt>
      <trkpt lat="48.86148" lon="2.32832">
        <ele>31</ele>
        <time>2016-08-22T20:36:41.000Z</time>
      </trkpt>
      <trkpt lat="48.86136" lon="2.32862">
        <ele>30</ele>
        <time>2016-08-22T20:36:44.000Z</time>
      </trkpt>
      <trkpt lat="48.86125" lon="2.3289">
        <ele>31.799999237061</ele>
        <time>2016-08-22T20:36:47.000Z</time>
      </trkpt>
      <trkpt lat="48.86116" lon="2.32916">
        <ele>33.400001525879</ele>
        <time>2016-08-22T20:36:50.000Z</time>
      </trkpt>
      <trkpt lat="48.86111" lon="2.32947">
        <ele>37</ele>
        <time>2016-08-22T20:36:54.000Z</time>
      </trkpt>
      <trkpt lat="48.86103" lon="2.32977">
        <ele>41.599998474121</ele>
        <time>2016-08-22T20:36:58.000Z</time>
      </trkpt>
      <trkpt lat="48.86099" lon="2.32993">
        <ele>43.599998474121</ele>
        <time>2016-08-22T20:37:01.000Z</time>
      </trkpt>
      <trkpt lat="48.86103" lon="2.33008">
        <ele>43.200000762939</ele>
        <time>2016-08-22T20:37:38.000Z</time>
      </trkpt>
      <trkpt lat="48.86111" lon="2.33012">
        <ele>43</ele>
        <time>2016-08-22T20:38:51.000Z</time>
      </trkpt>
      <trkpt lat="48.86131" lon="2.33025">
        <ele>41.400001525879</ele>
        <time>2016-08-22T20:38:57.000Z</time>
      </trkpt>
      <trkpt lat="48.86152" lon="2.33043">
        <ele>39.599998474121</ele>
        <time>2016-08-22T20:39:01.000Z</time>
      </trkpt>
      <trkpt lat="48.8617" lon="2.33059">
        <ele>37.799999237061</ele>
        <time>2016-08-22T20:39:04.000Z</time>
      </trkpt>
      <trkpt lat="48.8619" lon="2.33075">
        <ele>36</ele>
        <time>2016-08-22T20:39:07.000Z</time>
      </trkpt>
      <trkpt lat="48.8621" lon="2.3309">
        <ele>35.799999237061</ele>
        <time>2016-08-22T20:39:10.000Z</time>
      </trkpt>
      <trkpt lat="48.86317" lon="2.33179">
        <ele>39</ele>
        <time>2016-08-22T20:39:24.000Z</time>
      </trkpt>
      <trkpt lat="48.8634" lon="2.33176">
        <ele>39.400001525879</ele>
        <time>2016-08-22T20:39:27.000Z</time>
      </trkpt>
      <trkpt lat="48.86351" lon="2.33199">
        <ele>41</ele>
        <time>2016-08-22T20:39:33.000Z</time>
      </trkpt>
      <trkpt lat="48.86367" lon="2.33215">
        <ele>42.400001525879</ele>
        <time>2016-08-22T20:39:40.000Z</time>
      </trkpt>
      <trkpt lat="48.86381" lon="2.33235">
        <ele>44.200000762939</ele>
        <time>2016-08-22T20:39:50.000Z</time>
      </trkpt>
      <trkpt lat="48.86399" lon="2.33236">
        <ele>44.799999237061</ele>
        <time>2016-08-22T20:40:01.000Z</time>
      </trkpt>
      <trkpt lat="48.86414" lon="2.3324">
        <ele>45.599998474121</ele>
        <time>2016-08-22T20:40:08.000Z</time>
      </trkpt>
      <trkpt lat="48.86429" lon="2.33256">
        <ele>46.799999237061</ele>
        <time>2016-08-22T20:40:14.000Z</time>
      </trkpt>
      <trkpt lat="48.86448" lon="2.3327">
        <ele>47.200000762939</ele>
        <time>2016-08-22T20:40:20.000Z</time>
      </trkpt>
      <trkpt lat="48.86449" lon="2.33279">
        <ele>47.400001525879</ele>
        <time>2016-08-22T20:40:22.000Z</time>
      </trkpt>
      <trkpt lat="48.86437" lon="2.33303">
        <ele>47.599998474121</ele>
        <time>2016-08-22T20:40:27.000Z</time>
      </trkpt>
      <trkpt lat="48.86434" lon="2.33308">
        <ele>47.599998474121</ele>
        <time>2016-08-22T20:40:28.000Z</time>
      </trkpt>
      <trkpt lat="48.86422" lon="2.33334">
        <ele>48</ele>
        <time>2016-08-22T20:40:32.000Z</time>
      </trkpt>
      <trkpt lat="48.8641" lon="2.33361">
        <ele>48.799999237061</ele>
        <time>2016-08-22T20:40:36.000Z</time>
      </trkpt>
      <trkpt lat="48.86397" lon="2.33384">
        <ele>49.400001525879</ele>
        <time>2016-08-22T20:40:40.000Z</time>
      </trkpt>
      <trkpt lat="48.86385" lon="2.33409">
        <ele>50.400001525879</ele>
        <time>2016-08-22T20:40:44.000Z</time>
      </trkpt>
      <trkpt lat="48.86375" lon="2.33433">
        <ele>50.799999237061</ele>
        <time>2016-08-22T20:40:48.000Z</time>
      </trkpt>
      <trkpt lat="48.86367" lon="2.33463">
        <ele>49.599998474121</ele>
        <time>2016-08-22T20:40:52.000Z</time>
      </trkpt>
      <trkpt lat="48.86364" lon="2.33478">
        <ele>48.799999237061</ele>
        <time>2016-08-22T20:40:54.000Z</time>
      </trkpt>
      <trkpt lat="48.86354" lon="2.33509">
        <ele>47.799999237061</ele>
        <time>2016-08-22T20:40:58.000Z</time>
      </trkpt>
      <trkpt lat="48.86344" lon="2.33532">
        <ele>47</ele>
        <time>2016-08-22T20:41:02.000Z</time>
      </trkpt>
      <trkpt lat="48.86341" lon="2.33537">
        <ele>46.799999237061</ele>
        <time>2016-08-22T20:41:03.000Z</time>
      </trkpt>
      <trkpt lat="48.86333" lon="2.33547">
        <ele>46.400001525879</ele>
        <time>2016-08-22T20:41:05.000Z</time>
      </trkpt>
      <trkpt lat="48.86328" lon="2.33556">
        <ele>46.200000762939</ele>
        <time>2016-08-22T20:41:07.000Z</time>
      </trkpt>
      <trkpt lat="48.86319" lon="2.33568">
        <ele>46.799999237061</ele>
        <time>2016-08-22T20:41:10.000Z</time>
      </trkpt>
      <trkpt lat="48.8631" lon="2.33594">
        <ele>47</ele>
        <time>2016-08-22T20:41:14.000Z</time>
      </trkpt>
      <trkpt lat="48.86303" lon="2.3362">
        <ele>46.400001525879</ele>
        <time>2016-08-22T20:41:18.000Z</time>
      </trkpt>
      <trkpt lat="48.86301" lon="2.33632">
        <ele>46.400001525879</ele>
        <time>2016-08-22T20:41:20.000Z</time>
      </trkpt>
      <trkpt lat="48.86289" lon="2.33657">
        <ele>46.400001525879</ele>
        <time>2016-08-22T20:41:25.000Z</time>
      </trkpt>
      <trkpt lat="48.86284" lon="2.33665">
        <ele>46.599998474121</ele>
        <time>2016-08-22T20:41:27.000Z</time>
      </trkpt>
      <trkpt lat="48.86278" lon="2.33674">
        <ele>46.799999237061</ele>
        <time>2016-08-22T20:41:30.000Z</time>
      </trkpt>
      <trkpt lat="48.86267" lon="2.33677">
        <ele>47.200000762939</ele>
        <time>2016-08-22T20:41:35.000Z</time>
      </trkpt>
      <trkpt lat="48.86264" lon="2.33679">
        <ele>47.200000762939</ele>
        <time>2016-08-22T20:41:39.000Z</time>
      </trkpt>
      <trkpt lat="48.86263" lon="2.33679">
        <ele>47.200000762939</ele>
        <time>2016-08-22T20:41:40.000Z</time>
      </trkpt>
      <trkpt lat="48.86261" lon="2.33702">
        <ele>47.200000762939</ele>
        <time>2016-08-22T20:42:35.000Z</time>
      </trkpt>
      <trkpt lat="48.86264" lon="2.3373">
        <ele>46.599998474121</ele>
        <time>2016-08-22T20:42:44.000Z</time>
      </trkpt>
      <trkpt lat="48.86262" lon="2.33764">
        <ele>46</ele>
        <time>2016-08-22T20:42:50.000Z</time>
      </trkpt>
      <trkpt lat="48.86256" lon="2.33791">
        <ele>45.599998474121</ele>
        <time>2016-08-22T20:42:54.000Z</time>
      </trkpt>
      <trkpt lat="48.8625" lon="2.33818">
        <ele>45</ele>
        <time>2016-08-22T20:42:58.000Z</time>
      </trkpt>
      <trkpt lat="48.86249" lon="2.33833">
        <ele>44.400001525879</ele>
        <time>2016-08-22T20:43:00.000Z</time>
      </trkpt>
      <trkpt lat="48.86243" lon="2.33861">
        <ele>45.400001525879</ele>
        <time>2016-08-22T20:43:04.000Z</time>
      </trkpt>
      <trkpt lat="48.86237" lon="2.33889">
        <ele>46.200000762939</ele>
        <time>2016-08-22T20:43:08.000Z</time>
      </trkpt>
      <trkpt lat="48.8623" lon="2.33916">
        <ele>46.599998474121</ele>
        <time>2016-08-22T20:43:12.000Z</time>
      </trkpt>
      <trkpt lat="48.86224" lon="2.33942">
        <ele>47</ele>
        <time>2016-08-22T20:43:16.000Z</time>
      </trkpt>
      <trkpt lat="48.86216" lon="2.33972">
        <ele>48.200000762939</ele>
        <time>2016-08-22T20:43:20.000Z</time>
      </trkpt>
      <trkpt lat="48.86208" lon="2.33998">
        <ele>49.200000762939</ele>
        <time>2016-08-22T20:43:23.000Z</time>
      </trkpt>
      <trkpt lat="48.86199" lon="2.34024">
        <ele>49.400001525879</ele>
        <time>2016-08-22T20:43:26.000Z</time>
      </trkpt>
      <trkpt lat="48.86192" lon="2.34051">
        <ele>49</ele>
        <time>2016-08-22T20:43:29.000Z</time>
      </trkpt>
      <trkpt lat="48.86186" lon="2.34083">
        <ele>48.799999237061</ele>
        <time>2016-08-22T20:43:33.000Z</time>
      </trkpt>
      <trkpt lat="48.86181" lon="2.34108">
        <ele>49</ele>
        <time>2016-08-22T20:43:37.000Z</time>
      </trkpt>
      <trkpt lat="48.86179" lon="2.34119">
        <ele>49</ele>
        <time>2016-08-22T20:43:40.000Z</time>
      </trkpt>
      <trkpt lat="48.86178" lon="2.34131">
        <ele>49.200000762939</ele>
        <time>2016-08-22T20:43:44.000Z</time>
      </trkpt>
      <trkpt lat="48.86177" lon="2.34145">
        <ele>49.400001525879</ele>
        <time>2016-08-22T20:43:49.000Z</time>
      </trkpt>
      <trkpt lat="48.86176" lon="2.3415">
        <ele>49.400001525879</ele>
        <time>2016-08-22T20:43:51.000Z</time>
      </trkpt>
      <trkpt lat="48.86165" lon="2.34173">
        <ele>49.400001525879</ele>
        <time>2016-08-22T20:43:58.000Z</time>
      </trkpt>
      <trkpt lat="48.86163" lon="2.34203">
        <ele>49.400001525879</ele>
        <time>2016-08-22T20:44:05.000Z</time>
      </trkpt>
      <trkpt lat="48.86155" lon="2.34227">
        <ele>49.400001525879</ele>
        <time>2016-08-22T20:44:13.000Z</time>
      </trkpt>
      <trkpt lat="48.86154" lon="2.34255">
        <ele>49.400001525879</ele>
        <time>2016-08-22T20:44:20.000Z</time>
      </trkpt>
      <trkpt lat="48.8615" lon="2.34285">
        <ele>49</ele>
        <time>2016-08-22T20:44:25.000Z</time>
      </trkpt>
      <trkpt lat="48.86144" lon="2.34312">
        <ele>49.599998474121</ele>
        <time>2016-08-22T20:44:29.000Z</time>
      </trkpt>
      <trkpt lat="48.86146" lon="2.34348">
        <ele>49.200000762939</ele>
        <time>2016-08-22T20:44:34.000Z</time>
      </trkpt>
      <trkpt lat="48.86143" lon="2.34375">
        <ele>48.200000762939</ele>
        <time>2016-08-22T20:44:38.000Z</time>
      </trkpt>
      <trkpt lat="48.86134" lon="2.34406">
        <ele>48.400001525879</ele>
        <time>2016-08-22T20:44:44.000Z</time>
      </trkpt>
      <trkpt lat="48.86125" lon="2.3443">
        <ele>47.400001525879</ele>
        <time>2016-08-22T20:44:47.000Z</time>
      </trkpt>
      <trkpt lat="48.86121" lon="2.34461">
        <ele>48</ele>
        <time>2016-08-22T20:44:52.000Z</time>
      </trkpt>
      <trkpt lat="48.86118" lon="2.34491">
        <ele>49</ele>
        <time>2016-08-22T20:44:57.000Z</time>
      </trkpt>
      <trkpt lat="48.86109" lon="2.34519">
        <ele>50.400001525879</ele>
        <time>2016-08-22T20:45:01.000Z</time>
      </trkpt>
      <trkpt lat="48.861" lon="2.34546">
        <ele>50.599998474121</ele>
        <time>2016-08-22T20:45:05.000Z</time>
      </trkpt>
      <trkpt lat="48.86094" lon="2.34565">
        <ele>50.400001525879</ele>
        <time>2016-08-22T20:45:08.000Z</time>
      </trkpt>
      <trkpt lat="48.8609" lon="2.34578">
        <ele>50</ele>
        <time>2016-08-22T20:45:10.000Z</time>
      </trkpt>
      <trkpt lat="48.86085" lon="2.34596">
        <ele>48.400001525879</ele>
        <time>2016-08-22T20:45:13.000Z</time>
      </trkpt>
      <trkpt lat="48.86078" lon="2.34623">
        <ele>46.200000762939</ele>
        <time>2016-08-22T20:45:19.000Z</time>
      </trkpt>
      <trkpt lat="48.86061" lon="2.34633">
        <ele>45.799999237061</ele>
        <time>2016-08-22T20:45:23.000Z</time>
      </trkpt>
      <trkpt lat="48.86044" lon="2.34654">
        <ele>45.599998474121</ele>
        <time>2016-08-22T20:45:28.000Z</time>
      </trkpt>
      <trkpt lat="48.86031" lon="2.34665">
        <ele>45.599998474121</ele>
        <time>2016-08-22T20:45:30.000Z</time>
      </trkpt>
      <trkpt lat="48.86011" lon="2.34679">
        <ele>46</ele>
        <time>2016-08-22T20:45:34.000Z</time>
      </trkpt>
      <trkpt lat="48.85994" lon="2.34688">
        <ele>46</ele>
        <time>2016-08-22T20:45:38.000Z</time>
      </trkpt>
      <trkpt lat="48.85988" lon="2.34695">
        <ele>46</ele>
        <time>2016-08-22T20:45:40.000Z</time>
      </trkpt>
      <trkpt lat="48.85982" lon="2.34713">
        <ele>45.799999237061</ele>
        <time>2016-08-22T20:45:46.000Z</time>
      </trkpt>
      <trkpt lat="48.85982" lon="2.3473">
        <ele>45.200000762939</ele>
        <time>2016-08-22T20:46:03.000Z</time>
      </trkpt>
    </trkseg>
  </trk>
</gpx>